GFSNW_con_3kmhel_000.txt.gz
Helicity
18 2 30 82 127 176 42 36 4 146 155 124 96 161 24 37 20 54 78 147 84 19 54 98 96 91 69 59 78 53 72 74 66 59 44 49 61 49 36 68 76 78 120 55
21 25 30 70 114 78 94 34 85 122 53 58 80 65 91 12 19 54 47 51 53 59 43 55 54 46 91 130 99 70 84 79 81 77 62 54 46 34 57 68 57 87 130 63
13 25 12 54 95 129 81 85 48 119 248 236 121 71 35 11 71 60 81 74 37 50 46 31 25 58 89 103 63 76 88 99 128 136 87 100 65 49 62 75 84 141 146 98
-11 24 7 50 81 134 90 99 51 78 86 166 102 44 36 6 49 95 118 107 121 74 51 71 76 54 65 71 63 75 86 87 95 91 65 49 26 11 44 103 131 176 118 107
-28 10 19 41 71 131 78 115 77 89 85 106 105 68 90 56 61 101 100 70 111 79 97 82 63 59 79 59 62 55 73 46 49 21 14 37 35 26 52 74 60 103 79 15
13 7 17 32 55 71 81 102 115 82 81 57 85 84 67 61 75 79 94 106 48 76 105 123 133 128 100 64 55 42 48 65 63 29 89 58 -5 16 51 69 67 114 111 85
23 30 24 42 49 78 77 90 125 109 56 44 52 43 55 54 68 30 64 118 76 60 81 77 53 63 76 82 71 91 79 85 79 48 62 55 14 19 74 60 72 98 98 90
30 42 43 43 70 86 63 71 98 127 59 42 56 50 48 54 58 67 70 71 68 85 62 58 54 59 58 65 98 82 61 91 72 55 57 47 33 -4 71 98 95 94 136 42
25 53 58 60 61 88 77 73 87 87 91 86 94 51 46 48 46 42 41 54 41 50 51 34 29 38 55 32 38 47 42 22 63 127 78 19 25 126 185 132 78 149 207 197
33 44 67 69 64 72 88 77 100 88 87 76 116 107 98 105 81 66 58 56 51 71 66 61 49 51 72 46 42 51 76 58 96 68 92 29 5 127 117 112 125 167 167 165
39 46 54 76 70 52 84 73 94 104 93 62 81 109 101 103 109 80 78 93 79 93 66 57 35 37 67 57 63 61 66 52 99 78 87 -16 106 150 138 120 135 150 124 123
48 48 53 60 78 60 83 74 74 94 107 89 93 96 105 150 150 123 125 114 103 100 85 71 64 75 75 83 73 55 41 74 88 131 92 137 143 82 106 139 160 190 255 226
55 53 61 64 67 77 94 84 80 90 97 87 92 89 80 76 110 171 176 177 199 153 168 140 137 76 84 80 64 47 48 24 119 131 170 156 121 65 109 128 203 246 268 273
55 56 60 62 68 78 95 84 80 108 93 115 143 87 134 127 128 108 154 160 183 169 160 141 105 82 84 84 80 52 95 65 160 140 44 61 107 205 182 120 106 130 147 188
72 66 66 64 69 70 65 77 58 82 104 81 73 144 127 167 152 109 121 129 151 143 128 135 119 146 123 110 116 94 189 123 139 122 81 102 119 134 158 174 146 105 153 227
64 57 64 61 54 64 95 98 72 49 54 82 79 59 38 97 111 122 129 152 182 158 127 107 113 140 107 103 114 163 64 87 89 99 101 111 110 121 176 165 173 170 227 270
66 57 69 67 69 105 133 122 80 84 85 95 86 71 82 110 117 128 150 165 153 162 155 134 139 133 128 174 181 218 113 89 78 89 124 115 163 196 219 216 286 324 332 345
62 63 80 103 113 100 136 149 119 61 101 106 131 112 82 45 70 95 98 118 131 148 149 138 156 157 175 156 160 108 89 96 112 123 127 143 174 228 229 227 217 245 266 237
86 90 86 127 132 132 107 78 96 97 110 130 121 128 105 69 111 110 122 122 120 159 172 186 170 224 226 97 113 111 108 139 121 147 144 169 197 203 210 230 223 168 123 112
94 113 140 134 116 92 80 102 117 127 133 117 105 102 110 90 94 123 113 128 134 118 111 141 161 219 134 94 117 109 123 141 104 134 128 145 171 165 167 105 112 106 158 162
179 171 169 112 90 97 129 145 165 153 143 90 105 144 168 161 146 141 128 60 55 21 26 71 80 85 22 57 59 126 99 93 86 97 110 112 134 160 178 162 185 189 162 137
149 126 130 127 123 122 142 144 174 145 127 115 101 133 160 138 117 150 135 150 124 147 188 153 141 42 46 93 123 127 116 119 130 162 162 201 181 181 188 193 160 137 122 122
167 166 155 149 163 212 253 263 255 182 116 109 131 192 155 150 156 218 206 208 212 224 207 180 126 67 66 103 99 101 98 118 162 152 146 142 152 148 162 161 139 139 131 115
177 184 302 249 224 203 221 196 145 125 160 142 135 184 178 147 215 215 196 217 231 291 294 166 182 69 137 116 93 81 71 99 108 97 117 142 145 142 135 140 147 146 129 124
172 206 288 243 240 171 76 106 138 116 46 54 92 138 122 165 167 166 233 232 284 217 76 64 71 66 106 66 53 34 63 108 108 115 126 120 115 127 142 156 160 159 141 122
196 207 289 205 211 194 182 145 129 92 79 146 173 178 154 137 172 243 251 354 254 196 163 99 85 74 37 11 6 10 98 133 124 140 149 133 152 159 170 198 188 150 126 117
162 154 190 229 190 154 154 145 123 64 124 176 156 128 79 215 209 300 268 248 267 187 142 111 79 68 67 40 67 111 142 140 147 164 164 183 199 232 245 193 167 155 147 143

GFSNW_con_3kmhel_003.txt.gz
Helicity
-11 8 18 43 112 162 -12 -30 -29 98 9 33 60 86 -9 70 109 174 161 82 112 140 177 150 75 59 62 76 50 56 76 52 114 67 65 53 50 29 42 68 88 77 48 60
16 11 24 37 84 66 39 -4 18 85 36 24 119 85 48 59 73 87 74 92 51 189 175 84 83 94 97 79 56 44 67 64 130 121 65 54 41 56 68 77 65 60 69 46
39 31 42 41 65 85 29 -8 -3 100 191 100 70 90 44 42 106 128 109 99 54 84 106 82 82 103 89 101 65 88 89 79 48 57 39 56 52 46 61 82 79 93 124 121
30 18 58 51 67 90 45 17 25 44 110 160 106 72 43 42 82 109 115 102 79 51 20 95 69 121 160 160 135 116 109 99 70 71 61 61 37 28 47 61 122 112 123 69
-3 40 52 55 75 88 50 47 16 56 88 88 88 95 77 37 76 82 98 98 116 110 81 69 67 82 110 88 97 103 121 77 78 74 56 34 15 -6 15 35 67 83 71 -11
-6 38 26 54 74 45 60 90 72 44 55 50 42 46 31 47 33 90 118 74 110 132 145 160 131 90 97 78 71 83 81 69 61 50 82 31 5 19 69 72 91 86 89 101
28 33 45 59 69 62 60 113 102 72 63 55 38 45 65 68 53 50 94 105 59 78 116 109 113 125 126 116 128 87 56 68 69 56 74 38 34 63 52 45 32 39 78 63
40 32 64 59 86 94 68 87 78 118 93 58 97 80 61 75 106 101 80 108 86 90 89 73 56 64 57 71 100 109 102 86 68 75 70 6 34 75 66 60 34 22 53 71
40 55 61 77 79 109 76 81 79 91 117 94 81 93 64 61 57 63 64 77 83 80 67 44 25 16 24 33 56 86 66 75 82 80 67 49 23 49 31 9 39 111 154 132
45 49 74 77 80 82 91 95 98 80 110 146 129 106 85 87 90 69 54 65 62 69 41 53 41 36 46 39 41 60 97 86 71 81 71 38 48 23 59 87 95 136 109 98
38 46 66 92 92 91 85 85 121 76 81 122 114 139 117 126 99 81 53 83 46 69 80 69 51 67 62 65 65 46 69 83 65 92 79 39 105 169 101 103 110 145 199 209
42 45 53 64 95 89 98 101 102 103 93 80 99 109 127 124 112 107 129 93 94 80 109 115 110 79 97 78 68 93 78 97 83 76 57 112 169 72 78 103 133 146 163 185
41 39 51 64 77 74 119 100 104 106 108 123 121 124 131 121 135 134 117 143 138 155 135 130 121 105 102 81 62 82 74 39 102 118 108 116 85 53 16 14 28 45 77 106
25 29 43 62 76 65 102 121 129 135 125 125 126 115 132 112 134 141 193 165 200 175 179 165 142 119 75 56 46 74 65 95 123 64 22 44 104 90 67 38 20 53 98 87
26 29 33 49 69 83 107 116 107 147 122 92 125 149 140 149 145 155 176 189 172 174 168 145 126 126 99 65 74 106 122 132 157 92 114 114 55 88 107 125 116 87 113 88
40 35 32 38 45 68 106 104 89 93 127 160 160 85 105 176 171 156 154 181 185 152 122 110 108 140 109 61 78 17 46 78 104 117 109 88 86 127 128 113 95 80 102 128
39 45 48 48 53 81 105 77 72 89 109 136 131 126 129 134 127 152 182 190 151 117 103 79 118 93 91 70 116 75 53 99 66 124 123 142 116 94 97 130 156 163 167 161
49 62 85 108 112 101 118 117 96 58 139 138 119 130 131 124 159 167 137 137 126 115 115 113 114 127 113 63 58 63 105 100 111 157 145 124 135 132 149 141 151 152 164 166
59 102 118 139 142 138 109 89 105 88 131 133 137 140 136 124 156 125 138 134 161 130 128 142 123 125 90 1 72 70 95 116 142 154 132 132 134 86 85 100 111 123 135 152
109 166 174 141 143 96 115 119 133 135 153 144 125 133 168 124 147 161 148 146 167 144 141 149 182 99 37 41 94 115 123 125 154 159 118 106 84 50 64 75 101 132 122 133
228 249 220 130 93 130 151 142 145 140 155 117 128 162 201 173 192 182 154 154 160 139 160 150 126 34 42 105 103 128 100 92 83 82 69 46 31 36 55 70 94 107 122 126
261 197 187 159 162 171 175 187 206 162 139 163 151 181 249 239 248 241 175 200 212 199 166 164 58 9 30 87 96 83 94 91 61 47 46 52 54 66 74 91 107 127 135 137
296 335 318 215 199 281 309 243 232 273 202 140 150 207 189 198 208 228 198 196 181 170 155 97 -23 58 72 44 54 78 81 70 59 73 81 102 127 142 141 147 152 150 141 130
349 356 338 292 243 261 238 191 174 164 152 174 243 285 253 246 308 282 341 260 231 217 154 21 89 71 73 60 43 73 89 64 41 48 71 98 131 141 162 156 152 148 130 120
307 295 237 251 288 185 117 154 192 180 169 263 295 288 249 287 270 251 277 224 205 134 35 19 54 83 44 30 20 10 41 35 25 76 87 109 135 146 149 151 156 146 143 140
256 343 348 271 283 299 190 139 175 178 180 246 278 329 308 267 220 243 207 256 161 96 48 19 46 39 12 -23 -1 20 44 57 70 92 112 144 157 164 152 160 154 153 164 156
269 320 266 212 153 196 205 231 197 128 222 298 272 251 209 201 196 233 199 153 107 74 52 61 60 45 -15 33 89 113 119 106 93 126 145 165 175 178 182 169 164 166 169 176

GFSNW_con_3kmhel_006.txt.gz
Helicity
12 6 -27 30 71 129 0 -24 -42 49 75 10 15 20 80 39 22 115 189 132 168 132 179 145 152 182 217 155 84 101 150 105 198 142 113 87 67 56 90 89 69 75 51 43
33 18 6 27 61 62 44 -17 -65 18 -7 40 68 15 28 96 146 133 24 194 268 254 194 176 235 137 157 116 113 97 105 120 205 135 106 92 65 80 79 101 83 47 52 43
40 27 36 31 62 86 31 -19 -37 7 11 87 82 17 38 45 109 306 184 139 134 244 288 189 124 78 108 86 85 86 82 82 74 73 44 84 79 84 93 95 80 66 79 80
35 41 33 38 47 94 25 -6 -11 15 52 68 33 0 33 51 84 69 113 158 67 30 73 128 41 67 93 93 115 92 64 59 64 89 60 73 62 87 86 98 101 54 55 49
28 57 33 47 55 80 47 -5 0 41 44 55 66 57 10 28 49 78 87 79 90 84 37 45 75 104 110 91 107 92 102 74 83 85 86 58 45 49 41 48 64 51 53 -2
26 57 43 46 50 52 61 27 3 35 64 36 22 43 24 -15 6 80 87 67 147 139 134 110 133 119 123 121 142 133 103 92 105 74 81 44 14 29 60 79 90 46 6 58
28 54 54 49 55 46 61 69 37 53 52 26 21 22 46 36 32 66 92 91 83 76 145 130 112 129 105 131 136 86 61 73 67 13 58 39 56 67 58 93 127 89 88 81
32 41 76 61 71 74 70 99 61 58 73 62 96 63 75 76 123 131 92 89 108 89 125 119 91 91 62 87 114 129 109 95 77 46 61 60 76 112 108 97 121 112 116 107
34 42 74 79 89 85 59 91 73 64 94 76 74 88 62 88 91 107 100 126 112 100 92 86 37 18 40 40 68 140 163 146 109 100 71 51 79 112 83 74 100 134 102 104
34 49 66 93 93 97 69 84 99 90 113 134 109 81 52 61 75 66 63 68 83 97 76 52 28 35 62 39 42 60 115 121 83 83 47 62 59 76 48 105 91 135 107 84
32 43 59 82 92 110 89 79 110 92 113 160 139 115 98 105 92 72 58 94 74 79 62 44 46 56 58 84 67 57 85 104 86 120 85 53 98 102 112 118 124 102 87 70
33 40 55 80 91 105 126 110 119 129 98 98 121 124 137 141 120 110 125 89 88 77 89 76 86 92 92 89 67 86 92 91 80 78 73 103 158 134 122 104 90 68 60 44
49 46 59 68 90 103 116 119 127 124 119 134 125 157 168 143 157 127 126 120 91 115 103 103 109 104 91 88 78 98 101 65 91 113 130 160 83 103 74 35 17 -12 -11 47
49 49 52 75 80 87 141 145 164 147 125 121 129 141 147 169 150 143 119 86 129 127 156 140 120 98 70 73 92 99 70 91 95 84 81 112 135 97 18 5 32 59 87 82
44 49 48 74 101 94 116 138 170 185 151 76 132 152 170 177 134 123 130 146 166 176 172 155 117 103 89 75 66 46 94 86 94 57 65 112 116 113 98 115 113 75 84 123
46 62 59 70 98 110 123 102 109 134 149 133 133 130 174 223 198 216 242 222 209 178 167 147 130 104 97 97 76 66 67 88 99 92 96 77 89 108 90 106 118 134 150 152
74 80 89 92 113 129 133 70 73 139 135 165 140 105 159 172 204 230 244 237 218 183 177 186 138 115 93 60 113 70 84 77 96 133 147 164 141 137 166 169 156 136 147 152
99 111 114 121 116 91 114 120 101 105 135 137 109 119 138 193 214 217 195 183 185 182 155 141 126 106 93 75 85 79 115 129 133 163 195 163 170 186 160 105 65 66 84 104
129 143 133 160 135 124 104 108 125 106 139 124 118 117 103 130 211 225 205 192 203 156 157 129 124 113 80 88 87 75 112 143 145 172 168 184 164 104 74 58 54 77 100 117
170 220 198 140 141 104 112 130 125 117 149 130 98 137 152 137 202 217 202 182 198 172 154 132 143 105 38 51 71 118 127 127 183 215 198 156 121 81 59 42 56 61 81 108
297 257 205 136 143 163 160 120 118 120 129 111 125 151 171 159 197 221 195 195 195 209 174 207 190 127 112 139 165 159 159 164 126 128 114 86 70 49 46 50 71 85 98 109
281 204 234 202 182 160 125 122 153 129 97 127 127 201 251 232 216 219 181 191 178 188 173 240 203 127 96 160 172 157 120 108 70 52 55 52 46 34 56 75 99 109 122 128
351 364 318 222 196 191 165 210 245 228 186 121 146 224 246 238 270 259 207 203 234 197 247 254 139 143 194 208 179 167 112 80 75 59 65 61 64 77 103 105 125 138 130 125
376 367 400 270 231 192 258 274 266 242 214 213 264 308 248 249 255 201 245 264 252 237 219 125 126 143 149 169 151 101 62 43 39 33 37 57 78 97 110 118 150 159 138 136
349 241 267 228 294 324 247 285 319 298 241 297 329 315 226 271 253 252 307 276 238 135 119 88 91 129 63 31 17 25 40 67 70 77 86 89 108 127 133 148 154 147 161 164
210 271 281 279 281 311 293 260 283 276 302 334 375 381 343 346 262 250 259 278 193 107 77 46 72 57 30 31 19 24 65 85 89 100 105 101 123 133 141 169 157 152 155 152
179 273 245 193 231 225 241 251 230 188 312 467 483 447 375 252 250 274 180 140 110 45 12 2 11 44 36 32 42 62 74 96 116 133 120 115 122 160 188 167 175 159 157 168

GFSNW_con_3kmhel_012.txt.gz
Helicity
6 13 31 28 17 35 60 47 58 64 66 89 114 87 19 9 -12 -27 -17 43 58 84 108 106 158 90 107 100 123 137 202 140 223 232 213 190 164 160 190 161 147 124 64 27
11 8 27 37 20 42 37 50 60 48 18 33 92 20 -6 -73 -69 -12 14 38 146 123 110 39 27 46 140 194 222 139 160 136 247 213 189 246 215 209 207 173 144 86 77 64
15 11 31 37 23 33 45 51 28 40 30 -11 3 15 23 -22 -10 -1 22 18 51 103 46 55 62 84 177 191 195 139 153 113 123 161 128 212 166 178 205 212 127 107 103 74
16 10 30 35 29 19 50 50 8 30 4 20 32 5 24 25 33 30 53 52 38 135 174 132 99 157 201 178 177 171 127 69 107 130 110 184 176 169 204 185 158 128 59 80
21 13 31 33 34 50 39 35 40 28 10 -11 33 22 1 41 73 55 48 -19 96 154 131 75 88 101 189 189 146 121 148 103 146 143 139 116 117 124 160 210 217 183 148 123
27 17 31 27 40 47 39 36 52 19 14 -9 -18 -3 12 -1 76 71 135 86 90 100 110 130 127 119 181 178 98 123 84 102 98 100 91 103 99 57 139 164 188 169 160 112
32 19 27 29 48 31 35 24 41 25 28 -9 -2 14 21 13 44 55 76 93 88 117 82 186 174 143 156 201 216 132 56 94 100 55 106 94 52 74 92 162 125 137 155 176
33 24 28 31 53 35 42 33 41 23 24 26 17 30 56 59 99 96 109 97 103 105 193 277 214 201 131 164 206 180 122 117 96 79 84 70 72 68 99 138 130 198 245 253
32 29 25 36 51 50 57 49 46 53 16 34 30 54 68 43 83 121 124 108 78 -4 90 124 70 43 55 93 93 151 160 136 104 78 64 24 61 116 141 154 110 163 199 192
36 29 26 42 47 60 66 60 62 73 25 41 65 48 52 37 78 70 78 133 106 96 72 65 60 31 83 57 34 55 135 162 119 113 78 94 69 122 147 131 80 204 191 158
39 34 27 44 48 69 77 73 75 84 46 62 75 84 66 77 66 63 74 120 70 71 82 52 37 27 43 65 60 51 80 111 98 145 105 50 177 213 141 118 151 140 119 88
42 38 27 38 51 74 85 91 85 101 99 60 116 108 112 93 69 49 136 72 100 64 82 58 53 36 49 59 42 105 81 102 85 98 90 134 104 126 149 113 96 77 68 50
46 37 27 37 55 64 90 107 99 119 116 137 124 152 149 127 121 84 75 72 63 89 97 69 78 65 94 56 55 88 89 108 114 123 117 144 166 173 137 110 97 81 72 45
44 34 36 39 51 67 98 119 121 124 112 110 125 129 153 178 158 112 94 74 104 99 110 102 87 83 75 82 90 93 95 115 126 150 141 155 130 139 121 123 109 99 87 73
46 39 42 39 47 73 118 137 148 133 136 84 133 133 162 174 153 161 146 135 138 145 145 141 124 120 109 126 115 90 98 122 160 99 95 142 99 130 139 135 104 95 80 86
63 62 49 39 63 84 132 144 140 170 163 120 93 141 181 178 175 214 223 195 182 168 152 140 138 132 122 90 45 44 17 75 138 162 145 148 134 148 126 100 98 112 126 124
80 71 55 53 83 102 147 122 146 198 165 137 99 86 145 165 188 184 207 206 181 166 148 162 148 140 139 122 84 16 10 40 84 120 168 184 112 90 101 107 107 118 110 101
83 77 80 113 110 101 150 162 139 213 198 181 111 113 117 167 164 176 222 170 174 199 154 144 137 147 163 64 60 81 138 172 170 147 119 108 112 114 118 125 118 117 118 104
99 107 100 155 150 139 95 85 159 168 155 133 107 100 86 144 178 191 201 206 159 164 157 164 151 176 137 113 98 73 60 98 110 162 153 118 101 85 104 113 107 121 90 60
142 207 256 195 187 149 146 143 140 156 163 145 97 134 124 106 167 195 217 219 186 130 159 169 150 146 201 193 108 23 54 100 123 138 114 107 130 105 121 113 96 63 58 68
293 252 211 173 214 191 173 157 160 141 140 104 129 158 159 148 140 164 169 147 174 154 140 159 126 119 133 210 180 167 111 141 127 105 103 152 156 146 128 84 41 50 76 95
248 213 293 255 224 183 182 172 195 130 118 110 155 216 210 190 180 167 178 168 142 129 129 153 119 84 90 84 109 161 212 216 170 158 154 152 140 99 64 49 50 62 84 113
444 389 316 227 212 187 178 189 245 243 141 106 170 246 193 172 169 151 134 104 108 142 146 133 82 77 92 106 140 193 171 137 143 152 147 100 92 68 42 42 65 88 105 126
404 369 352 229 186 199 179 143 149 193 179 166 236 266 166 155 163 117 115 149 139 133 158 123 104 70 99 132 154 152 113 96 112 113 121 93 65 52 63 75 91 105 113 134
290 334 321 278 280 231 232 215 224 224 150 246 345 354 215 232 177 167 177 139 138 108 114 129 106 120 172 180 166 133 102 87 100 110 96 76 89 97 90 84 87 106 135 154
239 269 285 270 305 275 265 213 215 282 248 347 339 278 235 216 189 177 173 180 126 92 77 94 166 196 191 157 103 75 88 87 85 91 104 113 112 103 99 107 106 124 144 158
237 242 253 203 216 229 221 208 218 193 232 407 333 254 188 173 167 205 195 199 146 121 137 154 155 124 78 76 83 78 71 72 83 109 111 117 121 122 129 115 126 144 167 180

GFSNW_con_3kmhel_015.txt.gz
Helicity
20 21 31 34 43 70 87 77 51 73 177 263 230 151 156 63 14 1 39 33 50 41 70 99 93 72 119 26 22 103 171 129 156 198 149 115 146 127 112 136 120 107 77 64
20 17 30 38 50 62 75 66 60 79 69 94 167 131 120 42 -7 -7 30 28 66 -55 61 65 85 61 53 64 -48 102 139 156 218 159 156 184 143 194 173 144 136 100 91 59
17 18 31 41 52 64 79 73 50 85 80 88 21 37 -15 -23 -46 -37 6 47 61 101 81 95 80 74 81 38 -11 43 117 96 97 149 113 195 174 203 209 194 152 125 127 88
14 18 29 37 55 56 78 70 27 59 45 120 122 74 46 -3 -2 -26 13 38 47 98 159 89 72 89 133 115 47 19 107 104 94 125 133 151 233 259 235 226 169 140 96 120
15 17 29 34 59 70 69 60 48 47 39 17 30 87 32 32 -7 -16 -1 25 28 81 31 27 69 165 127 105 174 120 47 21 67 103 103 105 133 162 193 166 192 183 160 102
22 22 31 34 62 79 46 44 32 31 -0 2 5 4 -0 15 -26 66 76 46 54 51 60 -8 104 142 128 86 157 134 66 62 100 78 99 92 88 84 145 148 180 144 184 104
29 25 30 33 49 65 54 31 41 33 12 32 8 2 13 17 16 62 158 114 78 122 134 230 215 155 138 172 173 178 107 112 105 99 124 87 48 79 106 170 122 204 179 135
38 27 30 27 30 52 68 40 42 35 39 51 22 26 62 75 74 101 142 159 155 131 278 224 213 220 137 161 135 104 84 123 74 83 103 47 38 40 81 126 94 109 160 208
30 30 32 27 25 42 77 46 45 31 42 28 30 50 45 127 89 104 120 180 178 148 196 150 124 85 85 86 100 128 147 147 59 85 87 81 25 50 69 79 81 118 197 233
30 33 30 32 24 35 73 51 55 49 46 37 52 51 48 40 73 100 126 139 110 155 134 137 138 97 95 96 95 89 63 114 83 99 74 56 56 78 97 109 33 203 217 204
39 39 31 34 24 35 75 62 51 56 55 77 54 62 56 72 65 56 65 154 62 76 47 53 64 38 59 79 48 56 107 97 90 129 89 21 125 168 134 100 185 199 196 170
43 48 34 30 30 35 64 75 64 68 77 64 85 78 81 79 70 46 105 31 85 32 45 42 70 76 73 63 45 62 69 91 73 94 88 109 119 129 150 106 142 135 141 108
42 49 35 30 25 40 60 81 82 97 94 115 117 110 117 115 112 87 58 81 49 60 63 40 39 41 49 43 47 83 77 93 94 103 105 121 150 217 194 164 149 132 118 102
42 42 36 35 35 46 63 84 82 94 92 101 115 117 121 153 144 105 85 58 88 82 70 56 31 40 38 39 45 68 72 94 100 124 140 190 188 198 194 200 175 161 137 104
58 50 43 45 42 50 79 81 82 86 96 71 121 120 150 162 128 125 132 130 113 98 97 82 62 67 57 78 89 76 76 72 88 48 80 175 151 203 189 175 143 114 90 84
73 57 51 47 46 50 107 95 87 95 127 103 83 123 169 178 174 180 172 154 150 139 118 101 101 101 98 78 84 91 86 90 93 84 177 210 287 271 193 165 116 101 104 91
68 57 53 57 75 122 138 150 119 144 126 135 123 108 129 156 193 182 198 184 166 151 135 144 119 119 141 144 134 85 71 83 82 101 219 270 204 164 134 124 102 100 87 86
67 75 82 87 106 97 109 146 145 160 159 168 105 111 138 187 166 164 217 184 195 209 166 159 158 156 171 103 98 158 164 188 164 128 176 164 191 153 119 102 84 76 83 84
88 104 108 170 162 137 152 125 105 135 123 140 128 97 66 130 165 176 202 194 188 184 165 177 149 169 138 100 134 157 163 139 148 230 267 211 153 104 83 81 63 70 79 86
116 226 264 204 165 153 150 152 154 158 136 149 138 160 170 142 175 178 158 154 143 131 161 163 155 185 222 194 157 157 115 82 175 251 176 143 120 70 57 48 72 84 90 80
287 330 287 231 230 201 156 166 175 141 153 124 138 157 185 156 148 150 154 128 143 109 105 133 98 100 142 247 290 270 170 98 71 119 100 63 62 56 64 64 62 63 54 39
286 247 271 284 231 173 186 197 198 153 157 112 175 222 196 183 186 159 161 141 128 97 108 104 80 64 116 149 218 248 192 167 155 141 114 92 104 81 81 75 68 38 24 53
447 373 334 284 243 221 208 237 301 269 137 163 188 259 226 232 195 179 133 119 114 119 100 78 56 48 22 49 134 185 177 185 198 168 137 112 91 84 89 71 46 51 63 81
416 411 404 252 235 251 232 217 219 213 173 185 264 298 190 168 196 133 155 144 115 125 94 57 59 46 61 70 78 190 158 124 120 110 108 95 86 72 53 46 51 66 76 86
311 316 341 279 232 216 280 242 214 235 174 221 310 322 173 202 136 117 124 120 127 67 36 23 42 88 96 91 84 89 87 87 96 82 71 65 62 61 77 87 93 98 103 106
254 247 251 249 263 241 210 235 272 229 162 301 303 211 179 187 151 137 118 118 83 70 39 14 52 117 110 93 93 87 72 58 59 57 54 62 77 103 119 129 116 98 99 106
259 241 258 185 251 215 204 174 183 209 225 335 256 199 139 152 134 143 141 126 106 78 54 36 60 117 134 124 110 85 67 58 47 53 68 97 127 136 135 132 119 105 107 126

GFSNW_con_3kmhel_018.txt.gz
Helicity
35 9 20 31 36 74 86 80 86 120 264 223 290 255 165 53 131 165 39 42 15 14 11 37 77 22 38 26 106 77 104 167 167 130 107 33 79 59 72 93 76 127 140 75
37 3 12 30 53 95 87 74 91 93 217 105 216 211 163 112 26 88 26 1 6 10 13 38 80 39 48 11 62 178 140 120 125 111 92 129 98 64 40 61 104 51 75 61
32 -1 9 39 42 48 75 91 99 95 71 89 130 153 94 48 21 -28 17 -0 6 22 -3 58 42 91 23 13 42 85 181 127 80 92 96 89 98 50 55 48 52 63 69 65
25 1 7 45 39 55 82 86 82 76 82 50 54 103 17 -29 17 -44 -11 41 9 -23 -15 14 31 52 58 18 -24 22 197 146 72 91 73 -29 23 108 89 103 69 89 29 34
24 -11 11 44 38 76 98 76 80 61 35 53 92 126 81 91 -18 -26 -12 -4 20 11 11 -12 -31 47 36 40 -36 -36 95 110 98 74 82 68 65 44 57 66 66 56 52 17
22 -4 21 45 45 140 83 68 63 52 8 16 26 40 57 57 -9 -29 14 -2 -0 35 58 47 74 62 59 23 28 -33 31 62 103 97 80 76 46 45 64 61 58 66 53 -10
26 1 23 44 45 97 71 60 75 39 17 19 22 4 15 40 -23 12 63 16 25 55 39 7 39 75 160 150 175 72 22 33 54 54 62 43 62 74 26 63 53 74 47 75
17 16 11 39 35 54 67 48 61 44 29 28 73 33 8 44 77 84 113 111 98 79 130 82 147 181 178 133 180 134 111 101 51 76 28 54 45 43 63 94 12 23 9 91
26 17 11 27 26 20 78 54 70 44 32 41 68 69 13 40 23 117 116 146 264 172 184 169 84 122 102 99 152 146 80 86 128 99 88 48 54 36 36 41 43 45 128 170
73 8 7 30 27 18 68 56 67 48 18 17 33 33 30 79 60 81 133 181 120 243 219 161 136 104 129 51 70 97 97 77 48 73 24 57 38 46 57 62 50 70 111 168
61 23 2 32 28 21 74 60 46 60 32 37 28 25 40 49 91 89 124 185 152 97 125 103 196 60 104 73 80 122 104 94 72 55 31 17 64 113 86 93 106 98 137 191
166 17 3 21 27 25 62 66 67 59 48 71 48 20 51 67 62 91 122 143 111 124 114 84 109 100 118 71 74 117 92 64 68 42 53 70 81 96 112 89 133 139 178 161
226 46 14 32 31 25 49 62 95 87 58 63 75 61 54 92 83 63 56 37 45 58 111 69 110 115 61 64 59 109 74 106 80 78 81 82 79 114 138 142 187 183 153 126
257 38 28 41 39 24 53 66 69 95 79 87 84 70 70 102 104 52 50 56 81 83 73 49 35 53 45 46 63 90 100 109 107 104 90 95 81 129 202 233 213 194 159 131
225 50 41 46 42 30 63 75 64 76 102 67 93 108 112 121 99 86 62 82 110 90 69 49 41 39 23 56 67 55 61 77 71 50 53 86 114 212 232 239 202 160 149 134
157 70 53 51 40 43 93 67 55 61 91 77 81 123 128 151 138 143 149 134 120 112 90 75 70 69 62 21 36 56 51 60 82 81 98 137 199 255 236 253 189 154 119 106
55 84 64 64 43 102 102 146 90 109 159 123 97 75 120 166 151 155 159 153 145 130 112 104 83 82 86 73 59 45 54 88 130 137 217 203 203 219 219 210 169 135 129 103
104 92 85 77 74 77 65 97 111 146 151 163 106 133 140 151 149 164 179 154 150 167 134 127 119 102 118 57 61 148 185 204 183 167 162 139 251 276 231 175 131 119 96 83
115 118 121 167 127 119 94 95 113 137 121 137 85 87 66 133 171 165 159 150 159 137 137 151 117 141 112 79 108 120 173 185 179 232 231 265 262 222 160 122 99 89 75 70
147 232 282 233 173 123 103 170 139 91 142 204 151 162 157 159 194 198 178 165 158 144 158 139 148 158 132 149 107 140 167 165 239 271 233 249 203 120 91 77 77 71 67 73
331 352 329 234 216 191 196 166 178 163 175 122 148 146 160 152 170 165 141 119 161 139 130 142 121 119 92 163 229 230 228 158 158 117 121 86 108 92 82 78 74 75 75 72
331 353 317 270 237 195 177 173 177 147 151 109 187 281 183 155 180 154 163 135 92 86 101 88 80 49 61 83 157 205 204 178 120 98 115 96 90 86 90 85 73 72 84 82
437 396 314 279 212 206 155 211 259 243 140 159 176 288 249 219 178 160 117 115 126 108 91 77 51 58 61 86 147 219 207 196 143 178 174 120 125 110 93 96 99 93 87 84
451 452 409 279 224 190 193 195 226 235 181 163 280 349 260 239 210 133 140 148 117 112 94 62 59 55 71 100 142 186 182 154 166 162 124 102 98 90 94 97 89 83 78 80
409 392 366 337 310 260 308 231 231 272 190 260 309 314 218 257 185 163 153 131 129 102 86 69 44 57 86 107 128 172 178 153 137 102 94 77 70 82 104 106 104 99 99 89
285 326 285 279 306 255 220 270 257 209 201 299 294 215 198 181 146 149 154 159 125 117 54 44 55 76 99 99 121 144 148 104 82 60 60 71 82 91 102 113 106 98 95 105
225 242 231 201 292 238 198 180 220 221 211 329 286 243 188 159 177 201 190 172 138 82 78 63 72 110 140 149 154 134 111 94 81 76 70 82 99 112 111 120 139 141 140 145

GFSNW_con_3kmhel_021.txt.gz
Helicity
194 50 43 7 19 58 151 127 90 118 197 204 222 232 377 161 127 181 111 31 15 11 19 24 12 -18 20 -45 1 33 65 103 231 332 285 144 155 127 128 130 150 243 265 106
252 85 40 10 28 132 167 118 99 85 187 158 191 259 210 188 136 73 55 44 26 -3 30 31 -17 -33 2 -22 -5 39 49 168 195 336 253 228 78 93 72 133 128 89 109 61
306 117 36 4 47 85 132 109 63 144 193 91 72 134 157 146 96 66 60 3 14 -0 28 54 -19 -21 -13 -27 -1 49 118 224 146 101 52 82 140 35 42 48 72 81 55 74
453 130 14 -0 44 80 121 124 81 119 83 45 54 88 84 51 -7 9 55 -9 -18 14 30 51 79 20 5 13 38 45 125 168 142 169 115 7 21 13 17 34 33 45 24 60
523 247 19 -15 44 76 138 89 110 91 74 10 13 89 167 172 5 -37 75 14 43 30 8 43 53 -1 26 35 36 20 88 131 103 54 69 59 36 14 2 28 25 19 19 44
425 226 6 -15 55 151 112 137 105 90 32 -9 -9 63 156 58 26 -47 3 22 22 7 54 4 82 32 31 24 12 19 75 140 95 55 40 61 52 32 35 19 -18 10 31 2
463 336 38 -19 55 92 114 87 69 69 43 9 14 33 5 34 32 -40 -38 25 34 50 75 65 124 135 95 64 31 10 42 50 108 120 81 44 82 73 8 23 33 27 -1 27
477 421 43 28 34 56 91 66 95 65 39 22 27 25 34 17 79 -0 -9 83 106 167 70 46 46 103 86 92 115 69 107 95 87 91 58 109 54 26 58 61 29 -0 7 32
328 385 11 4 25 44 87 41 64 59 45 23 10 72 23 -0 52 57 89 117 147 152 140 89 80 76 71 41 89 200 199 97 59 41 47 51 58 26 31 35 62 38 24 47
309 317 197 28 27 39 95 31 73 55 36 -1 18 68 23 9 62 73 94 121 90 79 172 113 73 82 132 53 64 174 174 113 62 32 56 45 13 26 35 55 64 39 55 117
281 346 181 45 32 30 85 39 52 96 32 18 -0 23 23 17 56 66 80 130 121 123 120 137 96 57 84 59 66 138 176 156 93 61 74 4 33 54 75 57 47 27 64 94
283 304 332 33 24 27 51 45 54 69 54 46 12 27 29 30 46 120 71 133 135 124 127 141 122 61 106 64 46 92 97 85 92 47 37 60 50 101 84 52 50 61 118 138
288 257 245 37 26 28 39 53 77 108 38 33 28 11 18 38 27 40 71 92 112 147 165 167 102 141 82 105 89 83 84 133 103 71 29 51 48 68 60 88 94 104 125 136
244 290 236 42 26 33 53 55 62 114 46 64 51 47 42 49 49 9 34 78 123 79 147 102 48 107 106 88 93 91 100 80 75 81 44 48 48 65 97 147 175 196 178 143
215 272 262 50 38 44 56 58 42 62 111 57 40 64 57 68 40 29 26 7 51 22 45 62 75 70 95 77 86 86 62 62 90 44 46 58 53 123 161 214 226 205 203 200
202 254 205 58 54 71 72 45 21 58 91 64 52 85 97 95 73 71 73 74 70 66 47 48 36 44 45 9 22 30 40 57 127 80 75 121 108 168 199 249 238 201 183 157
173 161 99 66 65 92 133 137 66 72 101 86 83 66 121 137 135 120 108 105 89 90 77 63 56 61 75 58 49 31 25 67 101 126 172 155 144 210 251 260 249 219 188 157
166 145 72 88 93 72 68 59 95 148 172 111 89 80 92 162 156 133 152 127 115 123 95 90 99 105 101 45 46 91 110 152 141 151 148 115 196 251 276 251 227 206 162 125
96 98 138 178 135 104 103 2 93 165 155 140 135 100 97 159 151 164 152 158 131 111 109 119 104 119 86 49 72 126 142 159 207 238 228 207 243 269 264 227 178 148 122 95
106 201 258 187 141 99 92 123 95 137 106 79 126 167 141 85 138 155 133 139 122 101 102 118 116 128 110 161 122 89 117 153 206 279 225 236 230 225 194 149 117 104 90 91
247 423 398 282 174 176 102 117 145 102 173 69 121 147 143 176 170 177 167 128 152 115 126 130 113 94 97 169 180 159 153 145 107 173 166 134 192 181 150 136 130 114 103 100
241 334 321 361 267 220 170 164 218 156 123 131 172 251 211 175 163 161 167 132 95 79 103 114 100 69 92 93 111 171 195 198 206 192 186 189 187 160 158 137 120 104 101 96
352 468 334 301 274 208 191 275 304 240 132 161 187 269 294 241 173 173 140 99 98 114 69 58 37 49 53 71 119 199 274 287 304 302 230 228 217 155 133 128 100 93 97 94
546 505 414 264 246 229 236 226 208 203 169 138 293 348 209 256 253 151 146 147 110 101 89 60 59 63 76 91 106 161 234 274 292 254 243 231 189 163 132 109 92 88 86 90
418 393 430 284 278 274 244 210 171 220 166 225 248 252 186 253 217 193 165 131 127 93 77 80 79 91 95 117 147 187 246 273 280 245 217 169 128 116 108 97 94 99 106 115
344 308 307 258 267 238 219 267 220 170 176 251 270 204 171 191 184 148 138 146 96 92 91 105 74 70 82 129 174 208 242 268 253 198 140 109 104 89 86 89 92 109 125 139
257 240 248 261 301 213 164 167 179 147 224 359 276 227 189 138 168 179 154 135 132 125 120 75 63 75 96 144 210 249 250 227 171 134 117 103 89 80 83 107 120 147 160 166

GFSNW_con_3kmhel_024.txt.gz
Helicity
-45 297 261 218 35 66 127 124 134 88 195 175 283 248 256 227 235 172 97 68 55 14 -2 33 15 29 20 -40 118 229 112 -1 58 58 98 49 151 104 227 282 222 206 174 173
-2 247 397 204 41 104 181 118 136 94 140 165 186 219 171 240 304 166 72 72 50 -3 30 -1 41 3 9 -33 9 10 48 17 55 125 190 72 175 176 186 271 185 215 230 120
80 66 368 371 48 88 150 168 94 129 142 169 119 82 80 206 185 100 116 23 36 0 33 -2 43 47 -8 -31 49 18 -31 25 52 229 206 115 39 55 111 210 171 212 196 98
62 94 390 461 72 75 145 164 104 122 87 79 124 78 16 43 31 76 38 10 31 19 11 15 48 17 2 -10 7 13 5 70 -10 310 -88 89 73 16 60 67 81 115 146 51
-39 350 616 209 52 69 153 121 106 119 62 27 40 8 -3 94 117 47 -32 45 37 0 25 19 7 6 26 13 -9 15 65 164 102 66 120 60 56 46 52 34 55 68 87 75
-51 37 502 107 79 121 136 197 112 95 51 21 33 6 2 -15 58 -9 11 80 46 29 45 54 14 9 -12 1 8 21 29 75 123 80 38 64 42 -2 5 30 26 34 32 -6
-160 155 270 362 39 33 135 130 110 60 37 31 -14 -29 6 74 69 21 -32 0 29 24 66 93 107 127 80 27 36 38 57 80 125 87 63 32 30 46 25 35 49 38 29 40
-66 133 308 310 14 21 129 147 72 32 16 13 14 -32 56 42 37 -1 -50 -35 42 80 86 60 88 152 138 112 119 56 12 40 68 76 46 61 43 32 52 64 84 39 38 62
-143 78 383 297 23 9 123 113 98 57 36 9 22 5 -18 47 54 60 68 26 105 107 60 102 122 132 121 99 112 137 97 68 91 96 74 56 65 44 40 62 67 67 35 129
-57 121 312 302 42 29 95 66 99 28 6 -10 16 3 59 3 51 35 38 5 84 198 112 97 51 57 102 38 63 106 119 135 90 66 65 54 6 15 58 65 57 60 85 184
-25 110 395 317 197 26 88 61 49 60 12 8 24 16 42 28 6 43 71 113 128 157 129 81 69 51 56 53 40 71 161 126 121 76 22 36 37 18 45 24 24 33 119 204
-36 85 339 323 123 37 54 62 66 83 67 36 31 16 8 28 2 70 91 111 121 69 119 104 104 83 67 39 27 60 78 99 98 70 24 45 83 30 46 39 29 88 136 155
12 81 269 269 207 29 30 73 70 100 58 15 15 -25 22 23 18 -2 66 50 104 93 117 131 118 106 108 85 56 85 55 53 113 81 56 65 40 63 65 68 100 115 125 145
92 101 225 226 252 37 49 79 58 85 39 30 31 37 21 30 20 -12 24 28 98 117 180 141 117 113 105 132 93 78 81 101 58 97 86 82 47 52 111 168 176 175 174 168
122 159 183 224 217 33 53 74 33 73 83 62 43 38 39 26 16 13 13 12 49 86 93 86 86 62 69 108 93 31 75 59 102 93 51 48 29 67 151 172 187 211 247 230
164 252 157 189 149 41 104 72 32 65 42 99 52 53 49 59 37 34 19 12 4 4 21 66 88 44 64 98 101 85 94 101 91 47 102 96 126 164 163 214 222 237 254 218
185 229 143 208 65 94 138 106 68 63 108 63 71 49 86 99 74 70 54 32 33 27 8 -3 19 38 45 32 59 8 68 98 112 148 200 153 134 128 210 289 309 287 262 215
229 177 182 197 93 113 57 74 82 107 141 105 81 60 64 127 109 107 92 62 51 49 38 39 39 45 35 6 5 47 107 122 122 153 136 125 219 325 319 307 299 304 256 208
282 191 176 164 139 134 98 20 67 121 109 88 73 59 30 96 146 137 121 123 82 63 48 62 77 74 39 11 25 99 141 138 197 255 275 273 282 279 271 275 278 277 218 182
198 126 223 201 144 89 29 42 44 97 123 103 107 117 83 107 138 147 155 153 115 69 64 81 69 83 98 86 88 67 149 197 241 299 274 258 222 228 241 249 238 215 178 138
191 181 234 238 121 166 151 97 134 124 123 62 70 96 155 125 139 131 131 83 102 72 66 81 31 4 51 134 185 175 231 186 164 170 238 220 231 228 276 285 237 185 141 104
171 163 192 334 191 187 169 165 139 142 144 126 160 227 145 101 111 106 114 113 109 70 99 75 57 60 109 106 91 176 193 201 213 199 220 192 219 233 260 251 200 152 118 91
230 223 409 333 258 224 160 210 263 220 154 163 110 190 256 254 169 148 105 102 99 126 78 53 30 22 29 46 97 167 223 278 334 330 309 317 303 272 235 203 144 119 105 80
182 274 439 373 233 212 178 209 201 193 169 93 219 327 205 201 223 153 121 129 119 82 63 32 51 56 65 89 137 198 262 292 314 312 311 334 293 261 204 152 109 91 90 77
188 304 319 276 234 249 276 183 198 291 154 179 238 262 156 195 168 142 138 113 83 54 55 65 60 92 98 101 118 157 200 250 268 242 288 267 249 228 204 145 107 90 82 86
230 296 236 225 240 233 223 256 229 157 189 298 276 196 163 178 143 125 100 125 81 60 61 61 93 99 100 120 149 180 208 228 254 247 239 229 188 161 129 121 116 96 86 96
242 267 252 218 267 190 148 155 191 150 179 271 262 219 161 160 151 157 126 105 94 90 81 99 84 82 98 140 190 224 255 283 286 263 236 187 126 113 122 133 104 116 115 125

GFSNW_con_3kmhel_027.txt.gz
Helicity
295 -0 -15 83 90 257 68 153 146 138 303 246 239 222 182 169 173 126 134 101 76 107 60 27 70 91 55 85 166 78 123 74 116 166 -26 -21 -24 -60 -23 -46 47 85 244 261
193 -16 87 111 153 343 285 192 188 133 286 159 195 193 118 148 136 174 155 121 60 46 -13 -21 74 81 14 104 120 53 99 38 30 -16 -6 -36 18 -37 13 -19 185 258 176 179
127 -29 -0 204 270 407 219 230 181 125 163 166 168 153 97 112 95 175 251 132 59 46 -27 -56 27 123 -10 145 124 59 53 58 90 19 55 117 52 8 133 111 178 221 105 164
53 -30 68 171 327 216 148 240 166 203 131 131 119 86 65 20 46 39 47 41 86 46 -15 -20 -17 89 15 47 92 86 8 102 162 168 75 9 79 57 110 110 304 249 89 72
29 17 -96 343 495 49 174 155 171 173 76 84 106 53 41 17 45 97 58 52 41 11 -15 14 -21 33 -1 31 48 25 38 153 270 133 93 42 56 41 40 82 126 146 65 93
42 -64 23 301 500 120 180 167 178 109 76 62 55 55 -18 -17 72 -38 49 62 -19 12 1 50 97 38 14 20 42 84 29 88 79 191 151 84 78 24 17 23 21 58 63 101
40 18 21 207 285 90 113 153 129 85 52 48 29 -0 -31 -17 19 33 51 70 -2 39 32 31 70 92 -2 47 7 18 2 9 54 58 59 32 99 34 49 39 61 31 19 95
34 86 54 144 442 59 97 112 116 90 33 -24 -20 -0 -26 -29 45 94 89 6 35 46 80 75 96 25 45 54 51 46 -2 2 43 30 27 56 62 64 51 58 66 51 27 77
60 42 29 195 299 276 118 108 115 68 46 8 31 -18 -16 28 36 50 43 56 54 65 73 79 112 108 82 35 9 100 40 -11 -27 12 30 23 60 79 49 49 57 74 90 107
103 74 34 222 371 219 136 92 89 88 27 11 10 -1 -36 -12 28 39 73 52 35 82 44 67 91 118 105 44 40 64 64 42 17 30 33 56 48 49 41 57 57 55 30 70
122 66 16 199 364 244 62 52 58 48 30 2 14 -1 -12 29 62 77 27 24 112 139 56 42 69 76 63 87 73 94 120 82 58 38 16 47 35 29 37 18 36 35 73 149
127 117 43 199 357 266 102 71 80 74 34 28 20 15 -20 -13 40 16 50 144 124 127 96 88 75 56 61 56 38 57 42 116 143 72 12 46 44 42 45 25 16 23 79 133
151 108 67 194 320 265 80 85 83 71 20 -9 -16 2 4 39 24 20 94 81 102 110 206 113 106 57 56 56 40 62 35 66 54 68 -13 38 53 58 61 41 51 69 93 110
124 136 92 199 222 288 96 80 63 67 32 17 4 23 26 6 35 11 -0 48 40 92 102 79 66 62 73 67 54 47 48 79 33 47 52 71 74 36 63 104 119 142 123 115
129 159 125 171 252 239 103 81 50 69 56 36 30 31 27 10 5 13 9 11 98 113 92 41 35 54 47 77 93 51 58 52 70 32 56 49 53 46 109 135 118 123 159 158
138 146 135 229 271 258 94 65 43 59 61 41 35 53 44 53 18 20 -2 -7 53 86 96 67 81 73 67 25 27 44 50 57 60 60 60 62 80 171 157 177 175 173 187 167
141 145 185 191 221 158 147 94 70 79 91 72 42 25 73 81 54 42 13 -2 24 15 32 56 86 105 67 45 32 67 73 105 133 94 164 131 121 85 172 235 256 284 282 245
133 174 186 198 229 90 84 93 50 101 90 79 47 47 35 84 78 61 41 28 27 64 73 19 23 24 26 70 7 -30 45 100 140 113 54 85 160 227 241 265 305 328 276 233
160 198 258 158 147 134 60 -2 88 75 102 74 60 53 45 63 113 103 91 65 36 39 13 75 33 17 15 -1 -19 33 41 62 101 164 171 173 218 219 240 288 277 282 227 212
222 199 240 215 147 95 26 30 111 102 105 65 50 79 64 70 85 105 103 92 76 36 52 58 27 28 31 42 37 9 81 126 185 239 200 234 229 207 198 197 204 219 197 172
130 257 263 178 73 159 142 130 103 106 110 77 73 84 88 75 97 122 95 62 70 41 49 66 29 11 65 116 139 127 140 139 177 174 223 201 246 214 232 240 233 212 178 151
202 174 135 184 216 200 208 192 137 109 120 80 103 132 102 118 145 89 37 52 63 35 45 41 24 13 40 92 96 110 151 210 199 178 221 206 232 220 244 247 245 217 174 137
117 171 315 255 206 163 165 203 274 208 97 114 108 195 162 103 62 89 62 54 41 64 44 38 38 48 37 34 60 129 158 182 198 226 245 263 249 235 234 249 214 188 157 101
152 162 263 225 181 147 141 167 147 164 107 105 192 223 157 212 197 116 90 91 101 76 60 44 25 34 52 58 76 157 185 210 255 270 298 313 307 296 280 225 159 138 116 70
141 91 265 239 219 211 237 166 166 232 145 213 174 185 119 187 153 128 122 100 57 19 10 28 16 34 65 87 123 163 186 220 258 256 279 281 252 282 249 179 137 109 85 86
115 115 168 193 225 196 185 210 187 151 200 264 194 156 143 155 146 149 119 132 50 25 25 30 63 61 70 84 107 135 170 209 228 226 233 235 217 216 190 160 120 92 86 94
50 101 148 158 206 170 150 137 153 118 189 278 259 249 183 163 177 188 136 89 51 45 56 64 67 81 85 100 123 146 186 227 226 236 216 220 196 178 169 158 113 132 135 140

GFSNW_con_3kmhel_033.txt.gz
Helicity
39 71 26 -1 112 59 0 65 -37 39 389 357 277 241 212 136 116 120 111 127 100 72 84 71 90 106 56 31 145 69 92 70 141 246 399 269 273 141 156 106 169 137 -10 -180
78 114 46 -35 127 37 18 56 84 128 332 395 261 244 169 142 117 99 89 58 42 44 94 83 84 55 15 -7 61 21 74 54 36 85 79 104 114 205 161 103 -37 -38 -59 -46
66 94 53 -6 89 51 32 57 118 282 214 216 173 198 137 121 79 69 84 52 41 62 68 58 46 -32 27 -8 71 105 145 90 262 187 146 -6 99 137 228 128 -65 -76 -109 -86
72 100 43 16 -9 115 57 58 46 240 139 144 122 144 68 79 49 35 33 33 61 85 47 42 32 -15 -16 -25 7 178 170 123 268 420 410 166 18 144 121 114 156 7 -100 -30
86 98 66 18 -5 237 51 54 35 177 47 131 122 93 75 12 21 48 59 47 22 39 49 26 -12 26 -34 -17 -24 69 84 206 270 409 241 227 37 25 136 90 100 1 -92 152
81 99 90 44 10 170 76 -12 53 152 107 133 92 54 59 16 57 4 21 -13 9 12 -5 56 64 2 -11 -6 -51 44 73 126 215 252 19 27 79 93 302 142 124 305 275 346
50 94 93 63 66 141 82 -24 136 104 112 63 22 24 28 29 10 12 -15 -15 47 21 14 30 46 31 31 23 24 81 89 170 158 177 67 62 61 288 269 362 286 433 457 213
42 56 70 88 107 210 142 22 111 177 111 41 38 30 19 8 -5 -9 -2 86 78 17 29 -3 1 6 -35 -42 2 109 160 59 75 54 60 17 14 45 34 51 3 49 177 202
39 57 79 125 140 201 192 69 164 132 102 41 44 -36 -11 -2 -19 52 -5 2 29 -7 33 17 26 15 17 -3 -4 -9 21 52 20 7 24 -13 3 -34 -41 53 7 45 67 11
35 75 106 151 131 266 194 97 150 122 63 73 75 30 25 33 15 -19 -27 -7 45 50 33 50 31 0 26 14 7 14 26 20 8 4 17 45 32 28 10 -2 2 27 13 -6
44 75 135 179 151 248 256 151 113 78 70 40 43 42 23 31 -9 -10 -15 75 86 93 63 38 62 45 47 34 36 -12 11 19 -2 -1 -8 21 40 22 37 37 47 53 48 87
45 78 137 167 176 206 302 81 59 59 38 33 33 19 39 33 -15 10 -6 89 115 69 50 24 52 45 45 42 21 46 -1 17 23 33 6 20 45 54 43 23 24 33 24 54
54 82 110 149 168 227 243 127 88 82 32 12 5 -14 -6 3 1 41 11 44 48 106 93 51 47 45 41 32 46 44 30 44 55 55 35 12 41 56 80 66 27 20 36 56
45 91 102 136 152 223 228 112 51 54 28 1 -11 8 1 -12 40 21 41 52 79 97 51 15 55 46 40 28 37 50 31 38 60 73 32 72 78 57 44 69 52 71 80 82
63 101 115 167 189 215 177 88 45 54 42 12 14 5 3 -2 -4 20 33 86 96 61 74 110 65 70 39 19 30 19 40 32 53 25 55 21 42 38 45 61 53 41 73 111
69 123 145 182 190 238 171 86 38 31 45 5 24 16 28 9 1 33 2 23 60 66 100 97 49 86 42 18 -8 30 43 53 45 16 52 66 57 132 85 101 79 70 81 83
77 131 181 212 202 167 152 83 86 30 58 24 2 19 31 17 10 7 -5 -1 57 73 122 105 88 56 78 14 14 17 24 12 55 63 84 104 107 84 86 128 139 151 166 146
119 162 201 233 218 204 127 80 14 47 47 26 19 9 21 42 24 8 -2 26 31 53 69 89 66 62 68 16 -13 -6 39 78 104 106 87 77 144 169 125 147 170 189 161 150
179 197 170 159 130 154 117 66 58 63 62 29 30 11 16 49 41 38 23 12 66 28 40 40 36 44 27 38 34 34 28 36 78 126 128 104 129 121 129 158 152 193 154 158
164 59 153 164 147 101 70 92 79 93 69 45 28 40 21 23 46 51 37 33 24 43 37 23 34 29 34 64 39 22 18 33 65 124 74 99 96 98 105 100 131 172 159 161
145 153 173 179 119 152 105 87 98 91 47 19 58 46 51 39 35 36 47 40 33 33 28 30 20 21 -10 84 56 30 35 51 55 75 122 82 131 164 187 188 205 219 190 168
116 144 122 202 191 146 130 94 94 62 54 76 81 92 57 50 43 45 43 28 32 38 34 36 23 39 40 33 84 129 108 112 107 94 133 160 203 205 223 215 224 205 192 195
68 62 113 238 195 138 90 102 138 111 39 68 125 124 146 117 71 56 35 32 17 17 38 27 21 23 36 66 92 117 181 216 201 198 220 253 266 230 241 249 220 241 251 196
116 92 170 222 187 127 109 98 101 107 90 94 169 170 117 114 99 52 60 61 47 40 38 37 10 14 40 62 73 94 129 177 209 215 233 263 268 292 275 270 223 237 237 185
107 114 143 158 167 150 127 65 74 94 136 156 163 132 103 134 112 120 121 115 86 9 9 22 10 33 50 55 68 98 136 173 212 238 283 290 309 315 309 256 260 248 208 169
115 84 117 87 93 121 97 84 79 43 52 155 178 141 111 115 124 139 108 98 39 33 28 14 28 40 53 65 92 119 140 169 208 233 259 266 279 285 300 306 270 204 167 139
128 73 56 64 91 91 88 37 64 87 94 189 197 146 106 129 139 154 107 58 36 51 47 34 21 17 42 80 126 157 175 195 235 275 283 275 332 261 287 283 193 184 159 155

GFSNW_con_3kmhel_036.txt.gz
Helicity
-24 48 77 77 -28 163 11 -8 70 29 159 213 194 215 320 230 144 170 147 124 121 91 48 28 68 72 51 81 126 116 99 128 79 177 243 220 261 294 204 251 471 346 220 12
-14 45 83 65 17 70 -19 54 58 -21 121 170 207 224 274 178 175 108 90 104 94 65 58 47 42 63 41 142 130 110 81 92 -53 27 138 259 362 270 276 223 214 236 51 68
-16 51 82 74 59 46 20 94 55 81 282 170 250 242 187 180 122 76 82 57 45 57 39 58 67 12 5 -23 80 62 67 133 74 145 176 143 263 344 270 270 227 178 136 164
-15 42 92 87 64 46 16 57 69 158 150 92 247 203 123 152 90 69 47 3 3 31 24 37 28 10 -29 -35 -32 15 81 81 177 303 353 448 467 387 429 316 263 319 194 128
-19 48 95 88 53 91 21 22 90 99 17 134 120 186 106 67 130 37 38 21 17 -7 47 58 40 -16 -2 -18 58 128 119 126 116 323 402 248 181 223 249 382 228 303 193 81
-1 56 76 83 60 21 81 38 -77 63 -7 125 123 128 60 41 69 8 45 27 -3 -18 -19 24 4 -20 -23 -18 22 -31 17 39 133 351 228 140 176 247 326 224 115 196 217 239
7 43 65 95 83 68 48 58 -18 79 34 62 62 41 65 42 42 39 21 3 0 3 9 -7 -12 -13 -1 -38 -27 20 55 92 151 283 142 38 120 104 239 307 194 238 204 380
5 37 57 70 72 80 51 34 40 79 50 31 27 40 34 23 19 17 41 40 54 89 13 -23 -25 -12 4 -2 29 54 169 120 80 67 79 62 87 105 139 144 190 255 273 304
17 43 68 82 116 91 69 88 24 90 52 17 47 54 54 32 33 31 25 46 81 158 55 -11 -7 9 26 24 -3 0 40 82 56 2 55 31 54 2 84 84 115 223 293 320
18 43 53 89 116 113 116 36 51 110 68 91 69 35 7 27 41 3 6 6 19 97 36 27 27 33 32 22 17 3 16 24 58 -15 -11 19 21 16 60 20 45 3 88 112
13 32 67 88 111 165 118 138 123 112 78 71 62 54 54 50 8 2 -4 -23 20 40 46 32 39 30 14 10 35 17 1 17 7 22 4 -3 -1 13 46 23 27 33 4 -8
17 46 92 94 57 166 179 127 69 69 55 34 56 59 33 4 56 -12 -18 4 55 37 28 37 41 57 40 31 41 42 -5 11 10 42 17 -3 24 22 0 50 45 5 -3 43
30 66 108 120 97 117 155 79 60 42 17 25 32 7 23 60 61 63 -18 11 19 94 54 50 44 59 48 47 47 34 15 42 28 45 19 -9 -2 29 38 41 13 14 22 72
47 73 96 130 134 170 168 84 90 68 42 9 2 2 -10 37 29 33 1 26 39 56 83 53 26 28 37 33 30 30 22 45 47 60 30 13 32 32 33 46 35 37 47 58
46 82 103 145 170 183 129 80 55 51 60 20 10 -14 0 -7 35 -13 -2 16 36 76 88 61 6 38 38 17 33 40 54 51 65 -6 -31 46 105 46 22 28 35 29 67 99
60 105 130 162 185 163 86 66 48 37 26 23 -3 -1 -9 0 -18 8 26 31 46 60 75 31 40 100 71 28 26 30 34 44 40 36 45 37 55 63 38 64 54 41 57 62
116 172 176 176 182 97 117 99 59 105 67 23 21 -10 12 -3 -5 10 7 18 41 57 57 55 67 83 56 56 38 15 42 2 58 90 76 77 48 94 102 106 95 113 95 101
153 188 198 204 193 128 115 66 38 31 35 23 25 4 10 5 5 3 13 29 28 32 50 52 56 76 75 33 46 29 40 68 94 80 72 70 103 186 153 98 125 128 116 112
176 196 117 100 124 111 95 45 29 38 34 12 29 5 -3 11 29 17 11 23 37 29 33 38 49 52 38 20 32 -7 59 35 54 90 110 130 154 177 119 92 169 169 117 127
159 98 114 95 118 168 36 76 73 65 73 47 30 23 4 5 33 32 25 14 20 48 37 35 15 34 -33 -10 10 40 40 52 81 122 121 128 101 73 95 62 108 140 135 150
82 155 141 130 163 119 108 83 74 43 41 32 43 40 40 26 17 28 44 35 22 21 24 23 9 16 2 35 40 38 4 24 -5 7 5 27 76 110 142 153 180 192 176 180
83 125 109 155 122 126 101 95 103 42 28 36 54 61 49 34 29 21 21 26 32 24 24 19 20 15 17 35 60 54 25 45 59 70 105 137 168 157 182 199 215 219 210 203
59 87 127 131 141 105 75 75 94 66 28 8 75 99 102 74 47 38 27 24 17 14 34 23 8 9 18 38 29 78 156 166 143 154 173 209 239 202 232 265 240 235 243 194
104 112 174 143 147 134 120 95 78 92 58 28 81 103 97 86 97 56 36 40 31 27 32 26 -3 6 27 50 64 87 136 165 184 196 209 247 285 303 298 281 219 241 239 190
123 97 160 144 127 131 127 63 49 33 86 60 58 89 70 78 95 98 82 68 61 33 22 8 8 -1 20 38 58 82 118 159 202 220 253 265 291 309 307 256 259 242 224 178
121 110 123 85 118 103 84 93 80 40 66 98 121 73 71 88 89 107 79 95 52 59 18 18 17 4 20 41 63 85 118 161 205 221 252 263 267 299 310 294 248 242 183 189
-58 110 77 41 116 127 110 20 96 112 102 129 144 92 82 108 105 126 113 71 48 42 70 51 28 20 30 58 98 123 142 165 192 235 252 281 271 280 293 307 262 232 208 184

GFSNW_con_3kmhel_039.txt.gz
Helicity
4 3 36 47 43 48 36 49 15 140 70 219 211 214 265 254 188 188 136 125 123 106 87 73 37 16 37 60 115 80 90 35 78 132 187 183 212 248 325 413 485 516 405 308
10 -11 54 55 53 45 12 66 24 16 167 105 115 79 214 194 205 148 118 110 114 98 81 49 24 27 24 104 121 106 92 65 60 22 73 143 283 334 418 517 332 399 359 244
15 -18 56 52 72 66 1 72 61 124 118 173 98 98 123 193 212 132 95 79 94 88 60 47 27 20 -6 69 -15 95 93 96 177 131 204 123 287 474 503 503 436 407 397 450
10 -6 64 57 76 95 33 72 109 74 34 20 10 109 160 151 167 75 69 69 49 43 15 22 25 1 -26 -3 -81 83 96 24 186 257 307 360 435 388 281 416 485 304 254 369
-7 7 66 59 79 86 46 82 77 48 2 66 94 132 94 115 95 69 63 52 -7 -0 4 24 3 -32 -41 -24 76 98 22 74 84 278 291 295 340 239 246 120 207 175 218 300
-9 21 47 54 77 53 60 102 39 59 6 96 132 131 112 55 43 45 -12 13 9 -11 -0 -9 -1 -8 12 17 52 55 24 68 53 124 96 130 88 183 162 82 106 116 161 187
-14 21 29 44 80 72 -3 36 57 77 49 55 33 57 131 44 47 55 36 43 7 10 26 3 13 -11 -48 -28 -25 -4 38 48 41 96 95 36 125 127 114 135 83 191 128 124
-21 23 28 52 77 70 -11 17 23 59 40 23 73 54 63 32 21 53 22 15 19 61 7 -10 -7 -24 -15 23 78 62 92 65 30 28 85 127 -0 101 101 156 179 180 173 229
6 26 26 60 66 41 41 98 30 65 20 9 17 66 31 42 23 31 36 44 67 82 -14 -3 29 1 4 6 12 -3 67 124 71 30 73 57 86 73 86 135 159 199 226 274
6 21 46 72 64 45 77 72 37 82 19 33 50 50 28 27 48 32 26 27 10 27 28 21 48 46 18 34 27 18 20 21 96 66 52 62 70 79 74 36 62 130 140 158
2 35 64 77 76 70 67 126 107 91 28 58 55 44 52 78 25 7 6 24 14 24 48 75 44 19 31 33 38 33 -5 4 12 25 30 23 22 29 37 89 52 61 87 84
17 45 69 80 72 86 52 96 114 116 47 26 36 32 35 26 16 40 66 36 32 22 29 52 44 35 42 42 53 43 31 -9 2 39 37 12 24 68 47 64 80 21 -11 -47
35 44 67 77 97 135 63 67 99 40 36 19 30 28 27 42 42 98 74 9 -9 30 18 26 3 45 39 55 56 42 -21 12 5 16 15 12 -2 9 5 16 25 40 20 19
44 56 75 101 117 145 139 31 65 53 40 10 32 16 8 28 49 105 46 23 35 36 47 30 15 25 35 47 29 2 3 28 19 24 10 14 10 5 30 37 23 5 35 29
52 55 79 120 143 191 139 82 31 23 33 28 16 2 3 17 33 -21 -10 7 -2 35 27 36 18 16 21 18 51 10 58 53 53 23 20 17 19 88 16 39 25 13 47 68
44 78 107 143 145 189 109 34 23 26 56 23 11 -2 -13 2 -12 -20 -2 4 1 32 45 21 34 60 26 24 40 14 38 31 29 37 51 43 40 40 38 67 86 36 51 52
45 109 145 140 150 110 97 105 78 153 95 26 -4 -9 -21 -6 -5 6 1 14 22 17 49 32 45 35 80 50 59 86 2 23 16 56 112 84 35 79 89 113 68 108 89 67
80 146 134 104 118 91 72 101 65 28 35 22 18 6 -7 -24 5 10 4 3 19 10 45 39 48 41 79 40 74 65 66 27 34 94 70 59 107 137 176 135 143 179 151 89
147 150 73 62 87 94 77 67 25 40 35 22 8 9 -5 -16 6 4 6 15 16 8 16 25 40 63 43 27 30 27 16 27 50 79 74 112 125 122 145 119 92 201 102 99
120 88 134 112 121 138 72 62 45 43 42 25 18 2 -1 -10 6 13 11 11 14 10 19 10 15 84 41 -8 15 5 10 43 96 122 86 109 103 57 85 35 25 104 83 114
54 102 122 111 192 115 85 58 55 41 19 14 19 16 9 4 1 11 19 18 15 3 7 17 19 23 15 19 13 51 24 21 13 26 59 73 63 77 165 121 107 151 142 146
59 113 95 148 101 117 92 73 73 36 6 6 10 35 27 23 20 7 8 12 23 25 15 13 13 -0 10 12 45 56 -3 10 7 -16 1 66 123 113 169 191 189 198 203 188
57 74 111 97 74 104 89 64 101 77 33 -2 15 70 82 46 42 35 22 20 6 13 27 18 3 14 2 12 17 42 37 38 54 96 128 168 196 180 204 228 215 227 233 180
78 107 136 128 136 129 113 96 91 105 67 22 4 65 85 69 75 53 48 40 28 18 28 32 -0 -1 1 10 28 37 72 121 164 167 183 217 247 249 233 232 194 238 239 189
-26 106 125 91 93 105 125 72 60 20 75 85 59 58 55 69 69 76 74 62 51 25 24 10 3 -2 2 14 30 51 92 145 175 176 214 241 255 274 277 244 216 238 208 226
-26 -44 120 100 73 86 41 64 84 12 57 80 116 80 51 43 69 86 72 89 56 47 28 15 10 6 2 5 22 41 72 113 158 184 222 262 262 294 325 320 290 273 222 196
44 2 -46 45 84 94 107 62 57 128 134 123 135 87 58 93 74 87 60 49 33 58 69 42 31 26 24 32 50 70 93 127 159 203 239 288 293 308 338 348 311 284 224 212

GFSNW_con_3kmhel_042.txt.gz
Helicity
11 11 -10 58 46 41 47 1 13 60 79 86 131 102 87 189 111 150 99 109 102 36 62 64 65 38 48 13 47 26 75 64 59 79 41 47 84 121 169 301 307 363 364 435
13 10 5 58 47 48 56 82 95 101 111 65 120 182 189 240 184 136 89 93 88 87 39 61 50 28 18 20 31 64 120 60 32 3 41 69 102 105 195 374 317 355 326 344
17 -0 36 64 40 82 36 50 68 83 111 95 146 193 192 225 231 148 96 95 93 89 68 88 44 27 12 -25 24 122 86 75 63 30 32 37 164 311 371 386 368 335 409 302
8 -24 50 61 66 94 27 45 183 109 69 80 47 50 61 85 117 94 79 89 58 59 61 41 28 19 31 10 12 47 26 49 38 102 128 126 187 237 255 215 347 240 157 -0
1 -22 52 57 69 128 48 266 84 82 54 54 29 47 19 36 100 89 56 35 24 36 12 14 10 17 -10 -3 32 8 64 45 13 67 105 122 216 187 164 72 56 110 111 19
-10 -15 56 65 69 76 46 95 124 57 64 42 30 55 70 52 64 84 51 36 9 -1 11 -2 10 26 40 25 9 10 42 32 1 5 56 118 39 51 69 85 70 34 70 47
-11 6 50 59 50 30 17 33 127 79 76 35 60 68 63 46 55 50 39 3 30 29 24 20 18 8 5 -16 -26 -7 3 15 26 71 99 20 17 74 110 100 110 122 106 82
-16 13 34 38 34 26 3 44 61 77 81 60 89 80 79 48 39 53 44 24 10 11 32 23 4 4 15 -9 -14 8 12 16 30 13 66 101 21 43 21 60 58 37 84 95
-23 28 47 58 49 49 12 56 16 54 61 54 59 60 78 35 26 51 34 42 24 61 14 11 21 37 18 3 -12 7 -12 39 37 2 11 18 33 44 42 51 43 138 93 122
-11 36 47 58 60 56 35 52 30 55 95 50 39 59 30 32 15 50 43 25 32 23 16 11 45 52 14 18 -4 27 33 37 130 107 53 53 54 8 70 -0 88 131 133 151
17 53 56 66 52 98 30 115 50 31 78 40 50 33 34 33 12 47 28 29 26 28 11 31 45 15 8 35 41 31 29 16 34 48 50 39 32 26 8 26 73 81 56 85
12 53 48 41 64 74 38 58 98 93 49 40 32 32 36 21 24 40 31 13 21 -11 -22 -0 11 31 27 42 37 42 37 18 -11 26 25 11 23 37 24 60 48 -4 -22 1
7 72 50 59 88 89 62 47 121 67 37 16 29 20 28 41 41 51 9 44 61 28 39 10 39 50 39 54 30 28 19 -8 -21 -27 2 15 -10 -4 21 17 15 18 -2 9
-1 56 80 76 106 117 77 47 65 31 40 11 26 23 17 29 35 53 105 123 82 62 44 25 29 37 21 56 38 39 35 -9 -13 2 28 9 17 31 23 29 22 4 21 22
-0 44 92 92 113 119 119 79 34 21 38 11 25 8 4 20 37 28 54 33 47 54 30 19 30 9 27 29 5 -20 -9 -4 8 -2 16 6 15 37 33 31 34 36 21 37
6 59 100 138 154 126 131 81 13 37 54 12 6 1 -22 6 53 41 5 48 58 60 22 38 18 44 11 -3 -0 21 28 4 2 -13 21 28 49 48 24 35 46 49 39 26
36 94 116 125 126 72 100 88 58 84 49 -2 3 -1 -17 -12 3 32 -5 13 24 24 17 11 11 14 42 39 43 51 53 -0 -18 -10 37 39 54 47 59 98 99 139 59 83
78 141 126 105 44 50 128 99 80 30 39 2 13 -2 -15 -25 1 28 5 -2 2 -0 30 26 19 42 43 25 84 39 26 39 23 25 70 86 107 136 96 156 66 98 135 108
116 132 86 82 93 120 114 99 43 15 40 15 15 3 -17 -20 -8 15 7 2 6 5 12 26 31 48 36 28 7 26 19 23 37 98 121 104 128 117 137 179 136 120 96 65
98 76 132 129 103 130 100 42 36 41 18 18 17 9 -3 -13 -1 5 11 6 9 6 13 19 18 88 81 20 29 40 54 42 84 106 96 97 98 85 91 71 54 75 78 74
37 91 123 113 167 89 88 74 52 37 2 5 23 18 10 2 4 8 12 13 11 10 -1 12 10 14 8 21 -4 -8 30 26 42 58 59 29 71 64 61 46 44 42 55 94
52 100 90 143 120 126 96 81 73 32 14 7 9 20 26 12 11 -1 2 9 12 14 16 11 13 7 12 18 26 51 32 -4 -7 -28 -40 -0 47 72 51 75 77 87 101 125
42 74 102 96 90 109 74 75 101 68 51 33 -0 -6 38 51 27 27 15 5 -0 1 22 18 15 27 9 10 27 43 12 5 12 6 31 62 96 109 169 179 136 164 188 174
-12 -26 67 117 116 119 115 103 104 90 80 65 19 -32 23 63 58 43 39 27 17 6 8 29 18 14 13 17 20 37 21 23 26 57 97 137 182 193 181 178 175 222 221 193
25 -32 -48 83 113 93 100 69 81 74 92 83 66 44 23 59 69 64 51 39 35 23 14 19 13 15 7 13 15 21 42 75 106 127 140 163 186 224 234 206 205 237 264 254
36 15 -13 -14 103 108 59 60 80 55 65 75 80 71 55 35 65 64 51 59 38 33 29 47 40 17 8 4 -0 15 44 78 110 121 134 172 200 249 291 277 278 257 251 188
38 45 29 -24 -37 94 105 96 44 74 103 105 113 78 72 92 54 51 51 46 62 58 41 42 22 18 25 18 17 32 54 76 99 121 152 198 230 275 314 344 295 337 241 217

GFSNW_con_3kmhel_045.txt.gz
Helicity
13 14 -1 55 49 34 58 63 3 22 31 37 116 87 25 68 71 200 86 16 65 22 40 73 92 88 123 -3 3 13 26 54 56 31 28 48 65 86 90 188 165 217 273 291
13 12 5 69 56 48 70 34 53 77 43 96 80 59 93 58 152 164 81 70 53 32 39 114 100 65 36 8 -0 20 61 35 43 72 90 47 54 1 95 193 165 321 301 466
16 1 33 52 42 47 14 11 23 57 31 129 59 91 93 117 86 79 46 44 31 29 46 69 44 51 41 13 8 123 59 43 58 75 90 38 80 116 162 232 295 289 541 304
4 -14 39 38 46 53 108 109 57 42 90 156 125 74 106 40 121 113 70 63 67 51 79 68 67 38 47 28 38 47 56 34 37 51 61 48 50 72 96 145 276 325 312 98
-1 -16 39 31 34 55 133 163 53 109 112 45 54 73 28 57 112 131 76 33 34 60 59 81 52 20 29 29 14 36 55 62 63 113 62 23 80 30 24 67 104 91 124 135
-6 7 32 33 31 36 41 153 148 125 91 74 35 73 41 12 33 78 47 13 21 50 68 56 51 58 47 47 16 18 58 54 21 40 41 47 40 14 45 105 92 78 89 74
-20 34 45 47 42 17 23 97 146 94 37 38 28 29 38 34 53 39 49 28 52 46 29 26 17 13 13 16 16 41 13 13 30 50 25 47 72 67 54 85 19 -6 53 39
-33 36 48 61 53 46 22 16 76 77 76 42 49 40 30 25 43 51 43 57 57 19 37 34 18 4 14 21 12 -16 -28 22 37 20 20 40 21 36 -29 43 20 53 -2 -5
-28 40 51 57 49 53 47 33 24 58 70 52 45 57 33 21 22 48 47 54 25 37 23 33 43 32 35 24 6 -22 -19 -14 25 38 -2 3 30 45 78 26 25 25 15 29
15 54 57 65 52 46 52 48 58 43 94 83 51 48 30 57 38 48 48 22 19 35 15 23 44 40 28 24 7 20 35 37 30 26 10 21 55 52 80 -21 11 9 -5 70
17 56 63 74 48 58 57 75 25 14 97 97 60 103 83 18 24 42 50 50 43 42 18 3 11 -7 8 27 17 17 10 6 4 14 26 26 48 37 -10 -3 63 5 9 42
15 46 80 73 56 71 53 53 55 42 86 78 38 47 53 48 59 18 13 45 32 37 10 -2 -9 14 25 34 59 15 23 27 19 20 32 6 19 -1 -6 12 15 -1 45 35
10 52 78 87 73 86 58 73 62 39 43 40 26 28 28 35 35 54 24 33 23 26 47 35 14 21 38 34 44 41 8 -2 16 -6 -3 14 -17 -11 40 38 13 20 -3 96
1 42 69 92 88 94 101 48 29 42 55 45 45 25 29 43 49 58 54 39 83 78 62 39 32 19 14 41 32 48 44 21 -8 14 68 15 54 22 46 47 30 22 14 46
-3 38 72 106 123 116 104 89 51 10 7 27 36 28 25 31 37 44 82 90 111 89 55 38 23 11 17 14 19 11 3 -7 -46 -31 29 26 29 17 40 41 25 9 21 49
3 46 94 122 147 130 138 85 39 4 12 7 -7 24 7 11 33 42 93 78 79 79 55 24 25 29 18 21 25 26 15 12 -2 -38 48 28 33 34 53 41 30 33 39 39
-1 82 118 140 119 76 120 121 77 54 79 8 -4 -6 1 -12 8 21 55 45 84 77 69 43 40 41 26 21 63 47 26 62 51 52 45 31 38 48 71 63 62 86 39 51
-0 130 144 114 51 61 115 110 51 19 33 27 -26 -19 -10 -6 -19 16 22 5 33 26 59 43 34 30 5 24 42 18 28 33 8 16 33 76 91 125 121 65 72 73 71 70
65 127 92 89 118 124 105 114 67 41 47 16 -25 -6 2 -12 -15 -2 7 -3 1 10 22 25 34 21 23 8 32 40 50 40 48 64 65 91 123 144 116 80 122 95 111 117
92 79 126 165 119 101 103 74 67 52 53 35 -7 21 4 -17 -3 4 23 8 11 7 7 12 15 56 96 52 5 46 49 37 46 64 74 113 114 92 96 108 119 110 95 72
-29 82 122 132 149 82 99 92 67 49 29 -0 15 29 15 13 2 -0 4 17 14 26 27 31 35 38 31 32 26 12 -20 31 40 32 45 75 75 78 118 109 85 119 72 50
-6 84 85 139 156 132 103 97 80 50 39 22 15 35 29 39 18 -4 -1 1 5 17 11 25 28 31 23 20 14 32 34 26 17 40 38 16 46 90 59 58 52 66 55 68
-17 60 104 120 112 105 86 89 93 73 56 49 33 16 11 34 40 13 5 -3 -2 1 7 12 15 29 10 14 30 53 62 20 -9 -52 -81 -48 36 47 69 65 59 100 101 106
-22 -38 -31 6 120 88 108 105 121 104 72 72 53 20 -6 7 47 43 10 12 6 1 6 24 23 20 22 26 35 52 31 22 19 -7 1 36 65 79 99 103 139 185 194 187
-0 -25 -38 -79 129 102 89 76 89 86 97 79 66 52 37 20 18 46 53 28 23 17 16 36 36 31 26 30 41 48 30 41 38 38 54 82 117 162 179 188 198 208 222 227
34 -0 11 -17 -27 110 83 79 94 73 81 74 76 78 51 43 42 32 49 61 44 51 43 49 78 61 40 32 27 34 43 53 76 107 121 131 146 169 214 238 234 236 237 253
22 25 36 32 16 -36 116 92 65 77 100 84 83 68 72 79 51 46 50 60 82 90 74 40 29 47 48 36 26 21 24 35 62 94 117 147 194 218 249 278 258 270 296 325

GFSNW_con_3kmhel_048.txt.gz
Helicity
22 -8 -40 52 25 18 73 49 25 14 15 69 125 -14 3 115 136 96 44 53 50 53 95 74 100 61 123 1 40 21 57 71 72 53 25 13 69 92 126 153 86 136 178 233
17 -46 18 49 32 7 57 13 48 30 34 152 122 8 89 71 175 111 48 69 25 25 71 138 132 105 81 50 32 51 70 47 63 59 86 76 88 73 99 82 101 162 196 318
0 -52 33 50 34 66 17 47 57 27 -5 94 73 27 75 77 194 126 56 27 -7 33 94 70 96 103 65 43 49 106 47 49 43 61 118 109 75 53 20 117 186 185 399 328
-11 -52 19 55 62 102 49 56 68 45 148 70 46 46 56 72 141 99 110 103 16 32 100 59 57 66 56 44 54 71 74 35 31 44 25 21 7 31 66 144 247 277 314 202
-17 -56 33 63 70 114 48 35 25 93 66 49 37 48 73 49 64 113 64 23 60 89 62 98 31 31 33 26 36 41 69 38 54 44 60 10 -1 14 68 90 145 188 166 207
-4 -57 32 69 55 48 38 65 95 122 106 76 85 51 64 23 36 92 85 47 60 87 116 90 133 101 33 47 28 19 26 25 25 46 75 47 8 32 25 88 99 60 66 81
7 -69 36 56 61 33 44 65 97 77 25 76 63 55 44 17 38 42 44 46 29 37 28 44 54 54 60 44 54 35 32 19 27 36 82 -36 57 59 54 41 69 73 92 29
-9 -72 36 52 61 45 37 40 37 49 40 46 53 61 79 54 24 42 64 54 43 33 49 30 27 27 26 16 21 28 30 58 17 18 43 36 50 47 18 0 18 89 40 24
1 -52 33 56 77 54 37 34 24 34 50 41 102 76 89 35 27 31 40 40 28 33 39 41 28 22 32 34 21 -3 28 53 23 38 23 17 58 11 37 83 15 45 10 -6
9 -23 43 57 68 68 54 53 56 48 70 86 72 72 70 43 44 27 34 21 17 36 32 34 43 43 44 18 7 30 22 29 -6 -8 24 17 10 53 36 13 -15 -13 40 -14
13 -14 59 62 77 76 66 89 41 5 26 60 65 73 88 46 51 32 39 22 27 40 26 18 10 21 9 28 64 6 22 17 7 28 33 15 10 27 25 18 35 71 74 48
16 -5 47 60 80 96 66 54 30 55 27 59 37 67 67 77 60 11 24 37 36 38 35 28 15 0 6 18 33 94 32 26 10 12 6 -7 28 -17 23 93 17 36 68 104
12 -3 24 61 76 88 70 77 84 80 56 63 34 33 33 37 46 60 0 46 56 33 40 26 31 8 10 21 26 23 16 17 37 -6 24 9 21 25 49 49 48 37 52 85
10 -6 12 55 72 95 106 58 33 48 52 54 38 24 26 46 47 56 64 68 87 79 51 33 41 16 38 33 37 4 30 49 17 20 17 37 56 27 30 44 49 33 38 48
12 1 4 55 96 115 86 77 21 28 34 29 36 41 55 47 45 54 74 74 110 72 67 62 49 37 24 17 15 19 18 12 -13 2 52 45 43 30 35 72 27 24 39 76
14 7 15 70 115 134 122 106 55 -12 15 11 2 22 21 31 46 51 35 86 84 84 67 70 55 36 25 26 9 27 37 29 11 5 35 55 81 77 63 65 38 40 32 65
14 -7 47 105 129 81 103 98 75 63 54 27 4 -9 35 29 27 27 47 74 76 71 96 79 58 41 63 19 32 59 36 51 41 76 93 66 48 65 76 89 88 90 108 83
6 -5 74 110 57 42 69 67 20 14 12 -11 0 -17 -31 -5 -3 -2 16 37 52 54 77 48 43 36 24 -14 10 21 11 6 18 40 85 113 148 144 102 96 80 53 68 73
3 55 63 104 106 103 93 97 74 19 51 24 1 -29 -43 6 -15 -20 1 27 -7 13 18 49 45 37 -7 5 17 34 46 48 53 108 115 108 113 128 140 145 85 93 72 92
19 38 94 139 85 74 35 59 68 65 58 50 20 13 -21 2 -4 -7 -8 1 -3 -9 0 19 35 58 73 50 20 25 44 51 58 66 53 73 102 114 115 94 65 85 93 134
-12 11 72 76 47 83 95 92 87 80 44 34 29 17 -3 16 10 30 -7 0 -2 -8 0 13 30 72 40 35 30 26 29 22 10 25 77 61 89 109 104 93 113 116 139 153
-12 44 69 113 108 120 100 96 99 68 43 44 20 11 23 25 32 -10 -18 -9 -4 -5 8 29 72 50 21 9 11 17 38 66 41 79 64 74 88 100 112 115 97 108 161 106
7 -27 11 115 115 93 72 63 106 94 63 48 44 18 7 10 27 20 -9 -8 -12 -15 -4 5 19 -1 -9 -7 13 62 85 105 79 22 8 26 63 58 87 59 52 72 97 84
-1 -32 -48 -59 72 112 114 109 113 92 65 55 49 35 12 -8 5 22 18 -2 -9 0 12 14 20 20 39 42 49 91 99 51 -6 -14 -22 1 71 71 90 107 96 132 163 158
16 1 0 -48 89 85 99 79 83 93 94 75 54 56 48 31 19 14 33 39 13 -1 0 10 19 48 36 36 49 68 35 38 14 -6 5 55 119 151 154 137 163 180 214 224
47 27 32 18 18 9 79 79 92 79 83 78 77 76 52 33 51 41 13 44 51 51 50 19 31 48 47 44 44 46 56 51 43 50 56 87 128 167 210 241 227 208 231 230
32 23 20 50 46 73 22 113 91 79 91 110 95 71 69 86 60 56 54 41 58 63 70 56 48 48 57 42 34 25 24 31 44 58 85 117 153 211 242 241 242 279 288 272

GFSNW_con_3kmhel_051.txt.gz
Helicity
-31 -54 -24 -1 13 1 30 52 -1 56 26 56 125 44 34 137 64 148 235 120 54 111 125 64 95 42 73 8 93 73 83 67 53 49 25 38 76 74 103 92 63 86 100 114
-33 -55 -16 -9 -7 0 46 25 44 24 31 72 6 61 120 258 152 145 75 53 72 91 125 69 82 82 87 -9 66 77 82 49 64 67 67 74 68 39 71 114 93 82 128 64
-35 -51 -30 -21 12 48 37 40 144 104 80 85 100 104 186 115 231 106 63 38 30 103 110 87 103 133 136 107 77 55 73 35 27 22 56 73 48 60 83 118 135 82 294 146
-27 -54 -42 -20 40 90 29 0 118 93 49 69 106 128 98 187 137 111 52 -8 -5 41 98 65 109 108 119 105 104 86 60 34 24 -3 -8 16 39 46 24 120 173 186 226 134
-16 -57 -54 -27 33 127 19 30 44 24 98 64 98 59 61 116 140 116 49 7 70 104 100 70 54 52 74 61 84 99 93 41 52 23 19 16 20 12 53 90 84 158 201 233
-12 -43 -45 -20 26 61 64 80 74 52 83 79 83 99 15 101 109 140 66 62 89 132 106 112 89 30 12 33 57 79 45 19 34 32 67 34 5 40 113 91 120 165 139 179
16 -23 -38 3 39 32 37 94 76 46 58 65 116 108 52 33 57 46 42 59 45 59 51 58 93 131 105 67 23 66 29 22 22 17 47 13 8 29 43 75 31 28 89 62
30 -12 -33 3 39 51 34 67 51 35 37 41 81 96 39 30 44 48 40 44 37 32 54 57 52 52 40 22 50 40 48 46 17 12 17 17 21 21 15 57 -2 36 33 52
34 -2 -23 2 50 44 40 55 48 38 36 33 51 61 43 29 21 25 22 31 44 33 24 35 33 21 20 24 23 -4 23 37 33 37 13 19 25 -6 31 68 -1 53 62 -14
40 14 -12 48 43 55 47 32 57 42 31 46 50 54 44 50 44 13 1 1 7 21 25 28 35 40 31 17 7 15 6 27 21 8 8 29 26 19 41 18 -25 61 84 95
29 32 -8 70 54 57 46 61 32 11 27 48 55 79 85 79 34 27 4 16 12 26 32 29 23 22 25 27 46 13 19 2 21 17 18 25 23 31 5 -5 52 75 75 106
32 23 11 43 78 61 58 43 26 5 8 38 36 40 61 54 34 27 23 18 7 14 28 26 30 24 15 7 20 51 11 11 10 7 25 32 4 0 60 58 58 57 76 100
34 26 16 -1 82 76 56 51 62 52 43 42 36 45 34 29 48 60 11 25 22 33 31 25 27 18 12 8 4 9 13 2 27 38 50 37 46 55 25 35 39 40 47 105
30 31 20 -3 75 103 79 54 58 64 30 29 31 27 27 27 48 58 59 38 78 64 62 43 26 28 30 8 -2 -2 8 18 22 65 55 -9 31 25 11 38 48 40 41 86
36 31 26 -2 72 129 86 65 47 46 41 33 31 32 32 46 46 54 74 91 104 91 61 40 45 58 26 19 -14 7 34 15 30 42 19 16 2 14 36 49 44 20 34 87
39 32 24 -14 86 137 117 96 33 19 14 21 36 27 26 44 50 42 44 64 97 103 75 55 55 51 50 13 6 31 28 52 57 21 33 2 13 47 54 52 44 39 39 35
31 13 -7 -27 109 104 110 98 79 85 30 23 15 14 31 44 39 25 37 39 78 109 97 92 99 51 48 36 32 55 35 18 15 27 98 30 49 44 59 64 73 98 112 116
7 -25 -18 95 78 86 81 60 39 28 9 -10 20 10 10 13 -2 -2 13 31 52 62 79 96 75 65 43 5 -15 20 32 32 5 -6 38 64 107 142 106 112 109 123 86 130
-11 -15 -25 80 122 115 90 65 46 31 19 2 -13 5 -18 7 -12 1 15 22 26 47 31 37 31 51 31 12 18 42 39 30 11 48 67 94 99 98 107 113 113 126 75 100
-16 0 -9 151 103 83 79 72 66 62 42 61 30 46 -5 19 3 12 11 5 -2 -9 10 19 17 47 24 -15 -22 -22 4 16 0 19 27 60 77 86 95 96 101 86 88 90
3 -23 -37 82 70 37 58 61 57 53 48 53 40 42 9 30 5 30 0 -1 5 -3 13 20 23 72 82 55 18 -5 -2 12 20 3 -2 24 56 109 106 97 90 91 126 101
4 11 75 67 42 76 94 73 84 59 45 54 34 32 17 20 20 5 1 20 1 -17 18 22 55 73 43 24 44 39 34 49 56 43 21 36 63 101 132 126 119 130 132 129
-2 -6 -8 70 62 111 102 77 93 102 65 35 56 42 10 8 14 13 2 1 9 -4 -7 12 25 46 51 48 24 71 72 84 73 49 35 52 65 93 113 116 110 113 119 108
-7 28 29 -25 -33 84 103 99 97 87 67 68 47 42 34 12 2 -12 -9 6 3 3 1 16 60 31 28 40 43 42 81 164 103 11 -5 11 35 44 54 62 59 38 50 64
4 18 32 24 105 81 65 67 64 62 71 79 76 69 57 41 9 17 14 2 -5 -1 12 -19 26 33 36 44 50 53 68 66 33 19 -14 -13 24 67 93 71 50 61 97 94
30 22 28 32 56 56 84 63 66 82 80 67 73 85 72 53 56 45 20 23 9 45 45 25 41 47 45 47 47 44 50 18 19 29 28 40 72 102 138 180 198 148 145 162
27 16 26 38 26 49 82 92 98 84 81 93 102 79 71 84 60 64 66 68 69 56 61 64 56 67 74 64 46 38 34 28 24 30 46 55 91 153 186 184 177 180 164 211

GFSNW_con_3kmhel_054.txt.gz
Helicity
-18 -41 -18 -14 26 -1 32 46 92 49 81 60 40 125 144 269 215 261 255 135 163 157 153 117 103 43 103 21 47 56 103 47 60 72 55 35 70 44 69 61 48 72 46 -1
-28 -56 -34 -26 84 -11 26 65 133 85 91 114 288 255 248 199 184 226 137 79 109 145 86 59 65 48 71 32 76 82 86 42 69 61 39 35 34 54 83 90 75 38 51 9
-27 -66 -56 -25 88 20 14 124 62 59 31 90 262 222 317 143 152 183 81 40 76 141 99 85 81 102 106 47 89 85 74 36 26 13 16 43 68 58 89 115 69 97 143 137
-26 -62 -59 -25 97 43 4 65 46 32 149 189 232 204 260 132 149 88 106 87 110 110 80 87 101 110 126 142 103 97 53 20 18 12 14 22 20 36 88 116 118 126 136 95
-4 -47 -48 38 72 70 28 37 17 32 68 102 77 97 159 162 110 52 48 21 25 62 69 65 52 85 93 54 87 88 70 45 39 26 14 2 8 1 19 108 89 132 205 237
8 -45 -47 14 58 21 58 56 56 51 50 101 52 100 126 130 97 154 87 11 50 99 111 58 54 58 52 30 115 107 70 51 33 14 35 19 10 34 84 38 48 134 135 178
16 -26 -48 -25 65 16 6 54 53 50 53 81 96 121 63 43 46 21 81 58 52 61 55 78 111 114 71 50 71 80 58 45 20 7 29 18 1 15 43 78 49 60 68 84
21 2 -48 -43 56 69 26 39 48 46 33 45 61 109 57 30 42 41 43 66 55 38 52 66 52 57 46 48 38 46 38 40 21 17 14 5 21 27 15 14 -14 27 37 24
32 25 -21 64 55 76 34 12 47 45 51 32 28 50 51 51 45 43 23 37 49 9 34 60 60 42 46 43 43 45 44 49 29 15 13 13 33 49 26 32 -2 8 71 34
32 30 17 -30 76 96 67 30 36 42 28 30 44 53 58 59 26 15 6 1 22 20 34 36 42 61 42 34 20 30 7 10 -3 5 8 33 44 17 23 -6 -22 64 107 83
22 31 23 9 55 90 77 40 34 41 45 24 48 62 69 48 34 26 -4 16 19 26 39 36 28 33 37 27 18 7 8 2 23 30 24 33 36 40 0 1 18 11 47 72
19 25 28 20 8 72 77 57 40 5 8 21 50 58 56 55 56 27 21 18 6 1 21 22 29 28 25 7 25 23 4 10 -9 -1 23 53 34 17 3 8 24 27 46 82
21 29 32 31 24 18 72 51 51 31 18 25 30 32 33 42 25 37 16 18 25 26 28 25 25 21 24 15 4 -5 -1 23 10 26 22 56 53 19 67 29 40 43 58 92
28 32 44 33 28 -3 71 59 41 44 31 27 48 45 45 55 56 51 49 40 64 53 47 41 36 21 25 11 -3 1 -14 19 8 44 52 43 20 15 5 24 29 33 43 89
26 49 60 37 17 -9 55 51 27 63 43 25 14 31 14 39 35 48 69 75 88 87 70 72 50 33 14 25 32 3 41 13 13 42 34 22 14 -16 1 32 27 22 48 77
28 57 63 27 -3 -35 77 92 66 47 54 13 47 34 25 46 56 58 51 64 71 91 83 79 71 82 20 9 30 12 55 31 21 13 15 9 16 -30 8 33 31 26 50 70
32 56 25 2 -27 -18 90 111 81 90 61 32 37 29 28 27 26 45 51 62 69 95 104 123 108 59 47 59 38 39 18 -13 -3 12 27 36 36 6 33 31 43 70 79 88
22 16 7 -14 -18 65 79 80 74 71 45 26 41 30 34 33 20 21 37 31 69 80 92 95 87 91 77 18 3 30 48 69 25 33 25 29 32 78 76 53 59 98 97 112
-6 -4 -6 -37 39 92 102 44 34 54 31 37 15 48 43 33 9 3 1 29 28 59 70 88 66 73 44 58 43 55 55 40 57 54 41 45 40 46 64 72 85 95 95 128
24 16 0 -30 74 65 69 60 50 42 6 -8 -7 -1 16 27 -7 -11 2 15 17 22 25 43 38 48 88 50 6 -8 -21 -5 4 5 6 25 46 35 56 52 54 80 115 129
53 -6 -41 66 97 93 97 83 70 39 29 15 17 40 -15 28 -4 7 11 24 18 28 38 40 32 34 58 66 34 28 25 5 7 1 12 7 13 38 77 67 76 100 110 114
25 6 49 68 74 94 107 94 78 51 45 37 26 25 22 19 26 13 5 24 15 1 27 32 43 67 50 30 38 53 53 46 52 52 42 29 28 50 88 112 120 104 125 121
9 10 24 -4 -23 -47 105 95 77 86 66 36 35 39 31 17 7 6 7 6 13 25 12 17 49 63 60 60 49 58 76 67 67 92 89 69 64 69 109 131 129 141 106 97
7 19 42 12 5 -75 100 109 103 79 59 58 59 49 41 37 17 -8 -14 -2 4 13 16 17 48 107 82 47 50 49 92 81 101 98 83 54 66 44 47 76 84 74 98 142
13 25 27 35 90 73 67 71 60 60 67 71 80 84 76 81 46 23 11 2 -1 -1 24 18 19 34 17 42 45 45 54 119 138 88 64 -2 -17 27 16 0 -3 -16 39 49
35 30 26 24 37 65 91 72 57 62 72 62 69 77 79 74 72 62 32 36 19 29 47 42 46 40 39 43 29 -3 10 98 103 48 5 17 -4 -1 36 74 69 81 67 67
37 25 34 52 36 33 58 74 90 77 79 97 101 98 87 86 77 78 77 71 56 55 43 62 57 55 63 63 42 34 33 19 4 13 32 32 33 62 101 104 111 143 142 148

GFSNW_con_3kmhel_057.txt.gz
Helicity
-3 -53 -45 -16 51 26 43 56 -9 76 69 202 271 332 328 336 297 277 192 140 184 133 123 99 103 67 59 60 66 73 74 48 78 56 61 43 65 48 67 51 40 66 48 29
-8 -58 -45 8 67 36 81 29 88 97 104 165 184 221 216 237 162 151 99 76 85 101 76 75 70 57 61 56 63 39 46 43 65 61 35 52 37 56 75 87 67 40 47 35
-5 -61 -47 27 82 61 39 41 90 111 122 224 254 174 163 124 138 152 64 47 74 79 76 87 62 63 55 31 55 24 30 31 16 11 19 26 55 57 94 102 68 71 83 54
-5 -52 -44 55 92 96 19 -23 29 69 94 148 171 147 134 120 94 93 85 88 105 81 54 78 68 89 83 74 88 116 41 6 18 26 18 18 10 16 46 115 124 54 80 80
7 -40 -51 -3 81 100 -6 28 25 16 101 122 112 118 148 124 124 74 146 106 83 60 45 48 50 72 104 59 87 92 66 25 23 26 25 8 7 -9 13 44 39 100 137 216
15 -24 -50 -51 61 57 23 28 15 -8 82 77 88 125 104 111 71 80 75 100 77 133 130 72 96 102 60 40 86 77 66 47 40 32 53 31 24 15 61 102 106 141 92 218
19 -2 -24 -52 9 44 27 36 36 1 45 35 76 95 59 62 65 49 71 58 40 49 90 52 87 99 53 61 89 60 67 60 26 29 31 13 10 27 41 103 45 127 102 71
-2 19 -10 -20 -29 46 19 52 34 26 18 43 35 97 26 34 46 44 50 73 65 46 54 51 49 59 53 57 52 57 30 44 20 22 5 -2 23 29 21 -4 4 12 74 32
6 11 -5 1 5 52 19 28 58 40 35 14 27 42 48 49 30 27 34 27 33 11 42 54 27 38 32 28 36 52 51 47 21 13 4 -1 36 49 15 16 32 -15 -15 27
5 6 -10 -8 15 56 43 24 48 53 33 35 25 31 41 41 31 10 25 38 32 21 43 56 47 46 46 15 3 13 16 18 11 4 13 34 33 27 12 21 -0 7 6 5
5 7 -11 -15 7 35 51 32 51 66 54 37 19 33 40 58 46 31 23 33 33 36 32 32 29 40 41 38 29 20 30 26 31 13 24 35 28 43 22 6 -9 9 16 18
-2 4 12 5 11 31 45 15 59 26 55 52 52 30 58 51 51 53 39 19 16 16 36 35 31 31 26 13 41 27 11 11 -4 -1 17 32 52 64 25 7 -11 12 3 35
7 3 7 12 27 38 46 27 58 44 46 56 29 39 66 54 46 43 33 28 26 20 29 24 32 27 30 18 11 14 2 23 22 24 31 74 78 33 18 -37 23 46 44 47
11 12 22 21 30 44 43 35 55 52 66 73 65 58 60 58 51 40 38 23 42 40 44 30 25 24 20 16 12 10 -4 20 15 20 30 76 55 14 3 24 20 30 25 32
11 15 27 42 42 34 39 5 28 40 63 72 63 68 45 53 47 44 54 57 62 63 63 43 29 36 23 22 31 26 56 17 9 24 33 -11 32 29 19 -17 -1 16 33 31
12 19 31 57 26 14 41 27 23 63 63 46 67 33 22 31 46 42 49 63 74 81 70 63 70 110 79 19 43 13 13 27 25 14 20 17 27 -13 11 1 19 2 18 49
11 -1 34 21 -6 19 16 -7 52 23 88 46 64 39 30 23 25 35 55 70 69 77 79 91 127 122 101 81 67 54 33 -10 -4 3 -1 41 42 32 25 48 47 29 22 64
-4 -13 -1 -6 2 -10 -109 55 49 72 66 59 50 42 36 17 22 25 40 46 60 52 92 118 93 68 85 35 50 53 44 67 29 82 53 15 23 27 48 65 61 47 36 74
-12 -34 -29 12 -36 -93 59 11 22 63 65 72 32 41 44 29 20 32 23 35 30 72 84 91 78 91 63 98 52 67 55 45 64 63 55 29 27 15 26 49 57 42 50 88
2 18 7 1 -66 48 60 31 40 49 16 5 12 3 9 18 66 23 5 25 26 30 29 51 73 89 121 119 60 27 21 16 18 -18 -48 -30 2 6 35 46 48 49 46 70
43 3 -10 -26 20 35 64 61 55 38 26 8 -3 -17 -18 -14 10 4 12 13 11 9 40 64 52 48 74 71 52 32 36 28 11 -16 -11 1 4 -3 13 51 65 67 73 81
20 -0 8 -5 -0 7 82 68 69 40 39 25 15 15 40 9 20 -1 16 7 21 5 35 41 53 81 55 54 47 45 31 30 33 28 21 32 26 6 21 81 104 95 98 107
23 7 49 31 7 -36 -61 62 64 62 56 37 47 53 54 19 4 -6 8 7 18 20 27 40 68 53 68 57 37 63 40 54 65 76 93 79 64 73 75 100 126 152 93 118
18 25 84 58 74 18 79 86 82 77 61 51 63 68 50 33 35 17 -3 -0 11 24 27 28 30 35 79 89 51 85 74 73 70 85 90 98 91 76 68 82 101 101 76 83
55 33 53 73 78 72 58 51 66 85 85 79 77 86 72 75 62 58 43 9 -3 3 36 36 15 23 24 37 31 50 78 90 79 129 147 164 104 7 4 11 40 51 68 84
79 60 44 32 48 71 76 60 61 71 77 92 82 95 82 88 94 78 60 57 22 14 39 47 46 45 41 34 33 25 14 72 184 108 79 48 35 17 -2 16 18 1 49 55
88 75 40 48 49 47 55 77 86 80 73 104 109 115 110 132 114 105 100 80 54 51 58 59 57 47 49 58 41 15 5 4 48 83 29 33 25 7 -1 13 49 70 82 50

GFSNW_con_3kmhel_060.txt.gz
Helicity
17 -18 -34 -38 36 56 29 77 45 112 130 115 143 245 259 240 203 218 114 130 175 130 145 93 88 102 59 97 67 82 74 50 67 68 52 40 54 37 61 58 48 55 39 56
12 -23 -39 -40 32 49 72 44 75 95 147 81 165 197 173 170 114 92 88 57 59 118 110 63 72 75 57 72 78 60 48 63 65 66 25 42 38 55 80 75 69 29 44 39
16 -18 -34 -19 75 70 33 34 35 48 51 100 160 130 162 85 105 108 90 63 76 56 63 76 70 64 53 61 90 58 48 39 29 39 27 26 47 69 78 75 59 49 52 52
17 -3 34 68 100 104 39 -7 17 73 57 115 175 149 100 104 113 105 92 80 63 35 47 70 84 80 77 83 56 66 31 16 17 29 16 22 22 27 42 66 94 35 64 42
13 8 40 78 94 109 6 8 -16 32 54 60 69 74 115 85 129 69 121 92 62 37 40 77 56 81 66 30 80 99 60 11 3 30 30 17 26 4 1 4 13 75 93 113
11 15 27 68 76 48 -5 26 8 23 46 49 25 57 66 65 41 94 63 70 66 118 89 63 73 78 52 46 64 126 66 15 18 37 35 20 27 13 26 87 78 77 72 66
3 9 10 47 64 38 -9 37 18 6 13 14 31 31 20 42 31 20 81 62 38 49 52 57 93 88 41 72 85 42 57 32 9 36 37 23 10 33 18 72 60 94 40 53
4 1 5 19 61 49 23 32 40 17 8 28 16 44 17 23 40 26 29 52 35 30 22 38 50 64 54 56 61 56 29 27 22 32 21 16 23 23 40 34 39 10 62 29
10 12 9 -0 18 59 14 13 40 39 13 -5 -3 11 22 24 32 33 33 34 34 18 26 44 47 43 41 35 39 62 65 59 30 26 24 16 22 57 36 19 42 37 4 9
24 21 22 1 2 19 28 -14 28 44 46 35 12 9 22 26 25 7 18 36 37 19 38 36 27 36 28 32 24 26 35 33 26 24 18 32 17 20 33 40 18 31 19 8
16 27 23 8 3 3 13 40 42 40 57 27 33 26 24 39 41 33 17 29 37 35 38 36 33 35 33 37 29 16 21 19 16 20 15 40 25 53 34 38 31 14 17 -5
17 27 29 27 2 6 21 36 47 57 23 75 75 45 42 40 58 71 55 35 30 27 38 31 36 34 31 26 48 30 30 17 18 9 21 27 31 65 57 46 27 8 -0 -11
26 28 23 21 21 6 30 27 49 80 21 50 59 49 76 66 59 85 66 59 43 40 36 27 34 39 36 31 27 29 16 38 38 40 37 41 62 42 46 18 -8 -9 -18 4
30 33 35 22 23 14 47 81 95 94 109 91 72 63 115 80 75 58 52 52 51 40 43 42 31 28 25 13 18 10 4 26 24 42 18 23 21 66 37 28 10 -23 -1 18
18 24 9 19 29 46 66 108 78 49 89 122 68 113 62 73 71 59 55 53 47 47 55 49 33 45 30 37 34 16 61 31 30 30 5 -1 2 -26 7 17 -5 -34 19 13
10 12 8 30 37 69 112 110 83 55 56 24 57 70 66 63 60 48 60 57 61 69 61 56 70 89 41 23 41 31 19 16 23 14 17 16 25 13 -5 -5 -4 -12 23 9
6 12 23 14 23 68 93 99 59 -7 84 16 56 75 55 47 50 43 49 55 63 76 70 67 81 81 56 83 75 89 75 41 19 34 30 30 29 39 47 19 40 56 52 47
7 14 7 30 43 36 8 -66 21 53 59 32 78 71 55 33 25 21 35 43 64 75 88 88 74 88 84 40 68 88 53 40 7 57 47 17 14 14 26 43 43 43 32 34
4 7 27 66 18 -44 -90 -28 -23 30 54 69 49 79 76 31 31 34 40 48 38 73 85 98 72 96 60 80 82 69 52 33 48 55 51 41 20 20 14 14 18 30 55 37
-2 64 39 13 -36 -40 -14 -10 37 35 38 32 37 34 52 22 35 51 37 47 35 31 33 70 72 92 156 136 95 62 44 21 20 6 -17 -1 -18 1 8 17 21 36 66 73
37 48 26 -11 -37 -43 -15 13 46 37 16 2 13 25 15 40 35 50 58 32 24 16 29 40 52 61 87 79 53 29 11 15 20 8 6 -7 -22 -22 -0 22 13 45 72 83
36 32 8 -7 6 -11 -38 18 57 41 32 28 25 18 14 30 50 34 31 13 35 -5 32 15 24 78 80 62 54 45 37 36 27 23 21 23 19 27 21 23 20 68 94 108
36 38 59 74 63 68 -20 -64 60 56 61 55 47 26 29 34 31 14 9 4 -2 29 13 23 50 66 47 44 48 60 43 50 43 47 56 64 50 66 52 51 73 114 128 110
58 66 76 80 99 99 79 75 57 56 47 41 38 42 36 50 51 39 29 19 5 1 14 17 54 37 40 47 34 27 36 61 66 58 64 75 79 84 89 74 68 88 100 110
78 76 69 55 88 81 81 63 50 61 80 64 46 64 72 74 69 63 59 30 -0 -31 -4 19 29 20 24 24 21 11 -20 37 95 74 66 103 107 93 72 45 49 64 85 81
82 91 74 38 37 67 76 59 67 68 78 78 77 82 80 79 113 96 70 66 32 30 31 47 63 57 56 49 27 7 -8 -26 89 183 138 95 93 80 32 21 10 1 11 47
58 75 94 68 51 40 56 72 97 85 73 113 117 109 115 131 131 132 121 86 62 46 45 66 66 68 68 66 41 15 -8 -6 -3 25 135 88 61 55 53 19 24 33 26 31

GFSNW_con_3kmhel_063.txt.gz
Helicity
20 5 -12 -23 4 51 40 59 46 111 77 116 181 141 103 97 117 82 102 94 98 70 107 161 78 70 76 74 64 62 48 32 75 69 54 51 63 72 79 87 80 61 79 99
18 8 -11 54 43 40 50 52 54 77 61 47 147 154 126 120 62 60 52 51 48 92 80 50 79 69 67 89 80 39 35 50 60 59 41 66 54 63 70 52 45 36 70 59
11 11 3 61 76 46 41 31 39 24 33 14 67 111 103 58 92 78 58 46 58 62 79 54 57 57 49 108 88 78 68 52 43 43 45 38 52 62 75 69 44 39 48 90
14 9 35 66 95 61 26 22 14 47 30 71 81 33 53 72 76 80 66 48 63 45 50 47 57 69 71 97 110 75 48 30 41 36 34 48 46 40 56 70 65 42 68 45
14 10 9 61 83 75 11 17 -36 12 28 49 37 10 47 80 87 58 101 60 68 51 52 65 59 51 52 41 76 57 62 23 29 44 33 31 48 27 20 35 40 65 49 93
25 10 3 29 62 57 12 14 17 -1 10 -4 -8 9 23 48 43 64 58 57 42 72 69 52 52 62 48 26 47 116 64 19 17 44 35 26 42 32 46 48 42 38 52 48
29 17 9 4 39 25 23 18 18 9 -13 -16 -10 13 15 18 12 -14 25 40 45 5 50 82 76 96 66 79 89 51 57 23 11 41 39 35 16 26 9 66 72 66 74 73
18 20 13 8 4 49 36 22 19 25 21 2 4 19 10 12 10 -2 3 20 6 4 20 53 51 62 45 64 65 63 35 31 28 37 30 32 24 26 41 35 71 50 36 81
19 36 24 9 6 14 32 15 54 28 10 11 -6 1 12 1 12 21 18 23 20 5 22 42 46 35 39 40 47 56 56 49 26 30 31 26 21 58 34 35 55 51 27 24
28 34 22 14 14 17 11 31 48 23 6 45 33 14 15 23 22 4 10 31 30 26 27 36 38 37 33 29 25 32 42 38 34 34 30 34 12 8 41 54 49 61 22 26
33 30 23 19 18 15 20 12 36 67 52 -57 41 41 25 35 26 29 23 21 29 34 40 31 23 29 30 38 35 23 26 33 31 39 43 54 32 62 47 52 92 31 5 -2
26 31 27 16 21 28 24 38 11 25 61 60 61 52 63 29 38 58 49 35 32 20 41 32 32 32 34 31 47 41 37 23 29 25 33 18 19 39 51 47 107 33 13 -4
15 23 32 34 30 26 26 33 37 30 42 30 80 28 83 65 23 71 59 80 65 45 59 39 33 39 40 30 22 28 19 23 31 42 40 23 18 25 28 39 37 35 5 -13
26 26 38 30 17 5 12 57 58 76 72 55 113 111 118 91 106 77 74 91 88 60 57 48 30 28 30 19 24 25 17 37 25 25 -1 29 40 27 27 44 51 37 20 -0
36 29 30 17 3 17 26 71 101 128 120 110 107 174 65 90 88 75 66 71 83 70 57 50 35 49 41 45 41 36 75 38 61 34 19 -3 -0 -3 -2 -4 44 -2 -5 9
28 25 12 12 23 25 47 22 60 76 130 140 181 75 95 84 72 60 79 82 80 75 60 54 63 78 52 26 23 30 46 56 43 24 38 17 50 55 48 25 26 10 17 16
20 11 11 22 24 92 79 90 115 44 93 76 82 73 55 70 82 72 82 79 77 69 69 82 90 77 67 80 78 73 74 77 78 69 39 3 25 51 68 56 49 54 59 47
19 12 11 8 35 65 77 66 85 46 5 -34 7 34 56 60 91 69 65 63 65 63 78 96 89 107 100 35 71 83 94 72 35 48 37 15 35 45 46 42 45 41 36 36
20 15 8 64 60 25 -41 -35 62 72 -34 -10 26 39 37 65 67 59 40 45 44 56 81 92 88 104 70 79 87 85 79 72 49 42 42 30 30 53 47 24 33 31 31 36
29 32 41 27 15 -10 -12 17 -14 -24 -12 -6 4 14 68 57 56 53 43 45 43 38 38 57 77 87 129 132 114 96 68 48 31 34 29 19 -4 17 36 32 26 26 39 52
52 44 32 20 -13 -14 -2 -4 -13 -10 9 -19 -7 12 45 52 49 51 56 57 50 35 28 43 43 49 90 99 72 53 35 -3 -7 8 21 24 10 14 19 20 10 11 29 56
43 35 19 15 23 41 70 23 45 31 23 5 23 27 28 33 43 43 45 43 40 10 45 10 17 55 64 58 54 53 48 34 33 32 22 16 19 20 13 15 26 25 39 70
50 48 40 50 57 70 101 63 65 46 29 40 44 37 40 42 52 27 28 20 -4 47 4 5 19 52 46 37 32 34 37 31 34 39 38 36 35 40 38 48 45 48 71 92
61 66 77 76 62 63 100 91 69 60 35 30 39 44 56 56 38 31 27 34 34 -5 -10 -3 32 24 11 33 19 11 8 9 24 52 56 54 56 55 49 66 67 70 87 93
68 68 66 74 75 76 73 79 72 46 24 55 43 42 39 51 53 55 47 27 1 -8 -25 -30 21 32 24 16 8 -0 -14 -45 8 52 55 52 58 65 73 64 62 66 71 77
90 73 75 66 50 56 73 74 65 56 54 62 76 55 47 56 86 74 48 52 30 26 33 35 57 46 46 41 27 9 -1 -13 -35 -7 72 118 102 111 102 54 27 16 3 17
69 61 74 83 74 54 57 73 80 66 67 104 88 76 87 117 100 112 113 82 65 47 31 39 65 90 67 58 48 35 14 9 -7 -17 -21 4 74 131 124 71 49 18 14 -6

GFSNW_con_3kmhel_066.txt.gz
Helicity
0 20 47 37 71 106 43 42 51 39 63 10 61 76 72 121 122 106 105 65 77 54 67 66 63 65 74 90 84 65 58 57 69 65 70 72 65 59 64 107 71 94 111 79
7 7 51 66 83 78 54 60 45 68 42 17 31 30 67 103 61 59 50 38 55 71 87 39 63 61 56 66 69 28 16 36 73 59 39 46 39 30 49 58 74 68 111 103
7 8 40 75 79 71 39 51 57 35 35 19 17 39 45 46 59 56 48 40 54 52 58 54 45 51 61 93 90 85 50 38 51 57 62 46 50 36 44 63 56 55 82 86
13 3 17 72 86 62 22 20 21 3 7 23 46 40 38 19 28 41 45 22 47 31 10 16 38 39 36 71 104 77 62 42 38 39 46 48 51 38 22 43 58 53 79 71
17 11 5 40 88 57 5 13 13 -28 -16 17 -5 16 58 56 21 34 45 24 46 43 33 45 34 37 41 37 50 66 68 25 35 28 23 26 42 29 19 17 23 32 49 100
23 20 7 10 48 54 5 14 11 5 -8 -28 -37 -20 -2 33 38 28 47 27 19 41 49 53 86 62 34 28 39 63 54 31 35 30 40 41 47 36 34 37 50 58 47 81
25 28 13 12 11 30 0 7 22 27 22 1 -11 -1 4 8 8 -1 23 39 36 21 58 64 55 58 54 62 77 56 37 34 25 36 39 47 43 45 32 29 43 20 59 77
29 34 33 9 10 8 13 12 21 31 20 13 5 13 5 14 11 4 3 28 19 0 27 43 43 40 29 54 70 67 51 41 31 40 38 52 29 30 30 45 97 49 50 81
47 34 29 14 13 17 -3 8 27 23 24 34 26 8 16 4 3 12 10 9 10 -6 15 36 33 33 33 38 35 48 45 43 34 35 45 43 38 55 39 52 68 73 41 50
59 41 31 15 21 22 15 15 11 35 35 35 37 37 37 27 21 -2 2 18 16 20 22 42 33 30 33 29 35 32 36 32 30 30 42 36 28 36 46 51 66 77 34 32
74 38 29 16 19 29 25 20 25 38 58 56 46 58 51 46 36 38 41 13 7 24 16 19 30 23 27 27 33 29 22 31 34 35 40 46 49 63 27 56 59 80 33 11
93 57 21 17 26 21 38 41 23 30 42 51 43 38 37 22 53 59 59 48 33 27 31 25 31 32 30 36 42 35 28 32 41 25 50 61 52 71 45 22 63 69 35 20
85 66 34 36 38 23 22 40 37 18 -8 9 38 28 57 41 22 35 56 61 77 44 57 43 39 36 33 29 27 35 17 17 27 38 32 1 11 4 37 47 56 39 52 28
60 72 50 39 31 3 14 61 55 43 35 36 32 84 97 124 88 59 20 97 115 87 66 52 37 27 27 30 42 31 45 29 25 17 -14 -3 6 33 56 67 34 13 36 27
33 58 46 29 -6 17 50 52 85 86 90 101 51 57 58 69 92 76 79 73 94 90 74 60 38 51 28 40 30 19 62 46 51 38 34 51 36 43 20 10 52 20 41 18
44 35 31 8 19 41 36 -5 70 54 97 109 50 107 84 110 97 94 88 98 101 93 83 66 68 74 48 23 19 32 26 24 35 59 74 37 47 73 66 45 54 51 24 18
82 21 15 3 35 76 93 99 95 36 54 93 116 125 40 62 93 83 84 89 106 88 60 80 86 71 78 78 68 45 42 51 80 72 73 44 36 36 51 61 70 66 51 49
78 19 7 14 15 53 81 96 45 48 26 8 81 73 18 20 68 52 48 88 78 80 102 97 76 83 112 59 27 62 107 99 90 92 105 67 33 42 55 50 59 63 58 52
84 17 15 41 66 44 16 -11 71 61 -23 -46 -31 -9 -2 34 56 46 76 74 92 87 71 75 72 96 106 83 48 44 63 84 82 77 53 50 56 51 55 62 63 51 58 45
75 23 28 32 41 31 42 24 21 -7 -26 -18 -9 20 33 41 62 94 54 90 68 48 37 59 68 96 107 108 116 122 91 92 80 55 51 66 57 37 32 42 44 42 38 44
78 38 33 52 47 31 9 8 2 3 -18 -11 -14 -9 24 22 85 96 92 62 60 43 47 54 46 54 76 85 98 95 65 45 37 21 25 23 26 36 44 51 31 13 24 21
50 45 27 29 49 29 48 47 40 27 18 -9 1 9 16 41 52 65 62 47 36 26 46 37 26 59 48 43 51 56 47 44 40 38 34 38 28 23 17 20 22 15 2 -6
53 52 47 45 46 50 77 55 76 40 11 7 12 18 32 35 45 48 41 22 19 55 17 32 34 30 31 29 31 36 36 33 39 49 55 57 51 45 31 31 37 48 40 36
79 48 44 49 43 48 64 78 78 44 30 21 42 16 46 51 38 44 32 38 37 10 12 8 25 18 6 11 10 3 1 -8 8 34 51 70 61 50 44 44 58 72 74 76
72 44 43 50 62 57 54 38 61 50 41 35 43 21 39 56 53 52 41 20 7 4 8 -1 7 5 15 13 7 8 0 -27 -56 -28 10 36 47 31 36 48 51 55 62 69
73 59 63 58 53 41 48 57 64 48 37 23 45 50 23 46 60 50 41 42 16 14 10 26 45 26 22 37 37 22 16 8 -5 -17 -25 -13 27 61 68 46 54 45 49 44
57 45 37 54 63 51 61 69 72 72 54 81 82 67 79 70 65 85 78 53 49 41 28 18 29 73 91 67 51 44 30 20 12 -4 -10 -6 -4 9 62 97 104 30 14 15

GFSNW_con_3kmhel_069.txt.gz
Helicity
12 12 3 53 42 109 49 49 49 10 57 30 12 51 78 91 80 69 105 121 47 42 54 61 54 42 86 84 74 54 61 43 48 49 49 74 77 93 66 89 59 94 123 56
21 5 -2 52 46 34 40 40 48 39 47 24 17 25 45 56 39 44 32 39 29 44 31 23 39 40 60 74 66 31 17 26 47 55 35 29 35 40 57 63 66 72 107 35
20 10 10 27 68 45 18 27 26 34 19 14 6 27 38 32 24 23 28 32 48 43 44 32 24 26 27 49 51 67 47 31 65 73 68 47 49 31 40 66 79 66 92 36
17 20 27 19 68 66 12 16 16 22 26 -12 21 11 28 -6 7 21 21 9 32 29 16 18 37 46 26 40 64 64 56 34 43 67 56 47 43 45 29 60 60 110 136 73
23 24 32 30 38 70 20 35 15 6 38 -20 -15 6 33 50 19 26 10 8 31 35 22 42 11 29 31 25 42 51 61 36 35 29 26 31 40 36 25 20 19 25 77 100
34 35 28 34 39 7 28 43 17 8 12 6 -6 -13 -17 17 37 29 49 36 20 21 37 37 69 70 49 34 35 38 49 35 26 25 15 24 20 9 13 32 42 25 40 45
47 63 34 21 28 30 -8 20 42 39 10 5 10 -3 -15 -0 3 5 27 41 29 36 53 54 47 47 37 41 39 53 37 31 31 31 18 19 29 39 32 18 48 27 52 80
56 60 58 26 28 30 6 10 24 56 33 19 1 7 6 3 -2 3 6 20 44 24 34 37 36 29 23 41 57 62 70 37 25 40 28 39 16 23 36 21 47 19 33 54
79 70 56 45 29 29 14 35 19 34 43 67 46 18 16 19 23 13 20 18 8 -1 17 37 31 23 33 22 27 33 46 66 58 36 33 25 46 32 27 40 59 86 82 77
109 101 80 53 37 41 19 21 36 23 39 30 42 36 44 40 35 28 26 25 16 18 23 50 42 37 39 25 32 27 26 31 25 23 38 31 22 43 60 55 60 60 70 56
119 98 79 66 33 43 28 37 22 30 34 55 34 29 21 39 39 55 64 34 18 26 19 32 38 32 21 25 35 29 23 33 28 29 29 18 39 56 49 54 52 76 60 33
127 107 91 83 57 45 55 50 17 1 7 60 55 41 36 20 57 76 77 97 56 57 31 28 37 25 26 31 36 31 30 40 53 25 44 41 35 110 81 58 55 70 63 50
116 109 86 77 59 35 44 40 40 18 -37 7 16 27 23 23 32 63 92 71 90 63 69 50 39 36 40 27 19 32 28 32 37 48 26 6 17 37 43 46 53 52 50 47
120 92 71 85 69 23 29 38 48 47 11 -8 8 51 38 68 79 67 31 80 131 102 78 58 50 30 34 46 57 38 66 36 22 21 16 17 11 30 58 62 74 63 37 24
118 97 80 88 74 21 29 40 52 74 85 55 -7 -4 5 9 56 67 56 58 66 103 71 64 45 61 31 20 14 -6 33 27 31 44 75 54 80 83 64 52 41 50 31 20
155 115 107 114 71 35 40 4 42 34 64 27 -19 52 66 107 78 79 82 97 119 108 103 78 84 95 63 6 -10 16 34 20 29 29 80 72 80 58 59 51 38 44 54 41
206 167 141 101 65 56 66 73 117 60 77 62 7 15 103 51 86 120 140 121 146 117 77 74 71 57 76 44 -0 16 38 47 71 92 80 43 35 89 74 43 43 48 61 61
281 203 58 57 77 44 49 58 104 63 41 38 41 49 23 12 72 86 107 115 108 87 93 82 79 60 74 31 17 6 34 115 100 86 100 114 128 81 33 41 44 56 54 64
179 79 105 130 83 55 46 31 81 38 19 31 18 23 36 77 18 23 84 86 53 107 94 97 75 101 93 50 36 57 56 79 92 82 81 87 67 55 63 70 62 49 63 63
240 220 115 54 65 62 51 41 46 27 21 -14 5 16 22 15 11 16 51 85 72 73 73 102 94 115 85 131 149 169 107 79 97 79 67 71 60 61 70 61 53 45 54 56
220 86 62 88 30 28 16 20 18 14 -7 20 6 10 33 -8 33 38 69 70 93 53 50 76 45 44 78 101 97 106 103 84 61 53 54 50 57 54 45 46 52 54 45 32
93 48 60 66 39 22 20 36 36 22 10 -28 -10 3 14 34 11 64 108 62 66 53 70 76 49 75 62 51 54 71 69 59 55 56 52 53 57 54 49 38 33 33 31 23
79 90 90 42 36 14 21 31 15 32 -7 2 3 4 8 35 16 74 81 68 51 63 48 56 48 52 46 42 50 45 45 45 47 59 63 69 80 83 77 51 39 29 23 29
46 42 33 38 22 6 34 66 58 44 20 14 -8 22 10 21 45 42 34 54 55 21 25 2 21 45 37 38 32 17 11 -5 -8 15 41 57 77 79 72 60 41 40 50 68
60 40 26 16 33 28 30 22 27 37 28 21 22 12 17 36 52 41 42 30 21 14 12 15 6 27 17 8 12 6 11 -1 -17 -27 -31 -4 20 31 34 28 27 31 42 60
59 40 39 35 29 25 23 20 39 34 36 26 21 31 38 33 49 55 46 52 19 23 20 24 37 31 24 29 33 28 17 6 -0 -0 -7 -13 -12 -0 14 30 43 35 35 46
46 37 38 52 57 53 53 50 65 56 44 55 53 67 83 72 41 55 51 45 50 33 23 39 46 61 69 72 57 47 44 35 26 16 4 -5 -13 -11 24 21 42 83 57 33

GFSNW_con_3kmhel_072.txt.gz
Helicity
14 9 7 -5 15 71 39 44 47 58 69 19 33 19 53 21 28 91 86 82 22 55 44 79 27 2 29 70 65 25 63 23 73 32 31 40 81 132 194 155 156 160 123 73
2 8 10 2 15 6 18 23 35 58 50 37 12 14 36 43 6 3 28 18 22 23 30 20 28 32 41 76 35 13 24 20 40 37 27 35 31 58 141 139 142 154 139 71
-1 14 13 10 3 7 -3 23 17 29 29 23 24 9 39 26 -5 9 14 13 31 19 28 39 35 49 35 56 42 53 55 48 42 55 48 39 40 49 67 99 94 28 52 43
5 20 21 11 34 9 -7 36 36 32 17 20 6 6 17 32 4 20 2 -9 23 26 19 9 37 30 16 18 25 29 41 32 38 53 37 33 17 47 70 91 73 86 167 55
-8 24 40 23 43 -21 -2 41 45 27 29 17 7 13 12 25 44 21 10 18 22 44 44 46 23 22 22 26 33 58 61 41 43 32 42 32 33 32 28 48 42 66 129 166
0 22 30 50 39 -15 -11 -4 16 12 12 24 20 22 6 -3 18 7 29 32 40 22 29 44 64 70 65 61 37 44 57 42 36 35 26 33 48 34 43 64 57 64 78 72
19 43 60 66 78 56 23 3 -15 16 37 53 52 14 12 1 4 -5 11 35 35 23 33 25 10 32 29 33 37 49 45 41 43 35 17 34 24 43 42 47 44 43 52 94
59 77 91 83 76 71 59 51 39 30 41 26 60 68 25 27 1 2 2 19 43 30 38 35 41 41 30 30 53 52 63 45 33 33 24 16 24 20 33 50 51 36 41 91
62 59 94 104 125 104 107 89 39 40 51 40 73 68 34 34 37 14 25 18 19 12 15 28 42 41 26 30 28 35 53 98 63 45 41 13 29 19 26 24 40 73 77 55
83 58 78 91 125 137 96 105 79 59 52 39 51 44 61 60 49 35 34 35 24 29 22 32 36 39 55 24 15 36 37 35 38 31 33 33 16 19 33 38 45 50 65 62
110 62 60 75 83 85 132 83 63 77 53 23 26 44 34 56 70 57 62 41 32 41 34 28 39 43 28 39 44 29 31 27 34 29 33 20 39 49 49 35 34 53 60 57
132 90 64 82 105 94 100 76 57 43 52 53 45 49 65 59 29 76 79 90 96 67 48 43 46 38 32 29 34 62 35 32 37 19 17 31 16 90 85 76 58 47 43 51
169 154 90 83 90 85 99 80 57 48 8 0 30 73 19 34 23 95 88 68 109 81 89 44 41 40 47 46 35 30 16 40 42 53 25 40 20 59 47 66 69 62 56 47
188 179 118 117 100 90 108 97 53 57 21 19 41 71 64 94 57 87 87 100 134 112 81 61 54 46 43 46 45 54 51 78 29 33 25 30 28 73 91 66 57 56 61 39
155 180 188 110 127 134 126 106 71 101 78 48 14 24 27 10 39 52 70 39 50 71 95 65 52 62 56 48 34 15 50 48 48 48 61 87 98 143 102 78 63 56 53 60
111 214 210 89 168 168 117 52 47 25 67 -27 -27 26 54 80 85 72 62 88 91 114 87 85 67 82 62 20 3 20 49 55 51 21 33 66 77 77 75 65 58 46 31 38
71 278 188 156 196 99 132 87 73 87 93 27 -16 2 23 67 76 105 125 116 130 138 99 72 77 51 64 71 53 53 29 44 54 107 102 86 68 95 99 87 65 44 38 39
193 162 269 119 50 128 26 -20 88 149 60 43 0 -20 44 10 37 68 73 126 119 76 120 100 78 69 88 36 -2 18 40 62 137 143 137 122 112 116 96 73 47 34 31 43
268 171 151 122 112 41 -34 37 106 101 61 13 3 41 54 12 4 52 44 48 121 130 123 112 83 91 103 62 70 67 87 91 114 150 142 122 82 93 101 74 47 43 67 59
257 195 154 91 -35 103 54 27 44 47 35 2 -34 3 16 11 27 16 37 61 49 44 93 80 86 56 85 97 154 158 175 137 128 106 81 96 90 86 79 74 64 50 46 50
94 117 91 20 53 39 11 36 14 9 -17 21 20 25 13 5 18 29 32 18 58 50 49 57 73 42 117 178 176 139 137 138 130 122 91 72 70 71 54 45 49 51 52 55
115 68 22 -2 7 23 24 29 13 2 -5 22 -6 3 60 23 7 17 -7 63 28 62 75 72 46 70 95 91 80 79 69 76 89 90 79 70 64 60 52 45 39 50 49 41
102 50 19 -18 11 4 -2 4 1 -6 12 14 -2 -6 -12 2 11 9 18 42 53 46 42 28 36 61 78 77 68 82 80 69 70 51 54 60 70 70 66 68 68 65 45 46
60 66 21 1 -2 -11 24 20 1 29 5 1 5 2 10 -3 16 27 42 43 65 43 19 13 20 62 63 64 68 63 54 25 7 4 3 14 22 30 45 64 69 65 56 55
54 32 11 3 11 8 25 21 -3 -19 -6 8 13 13 -3 8 17 16 35 31 37 27 19 13 31 50 36 22 17 12 20 13 0 -9 -15 -23 -24 -11 3 12 21 27 39 45
52 36 23 18 18 16 30 23 2 18 14 20 22 29 30 31 32 27 29 45 43 40 30 9 30 23 19 12 14 21 23 17 14 8 2 -5 -9 -15 -10 6 5 5 33 50
46 23 29 46 46 35 39 50 54 34 36 45 40 38 70 66 44 45 43 43 55 54 34 15 -2 9 -1 10 21 32 39 37 35 30 28 16 -2 -17 -12 -7 -2 10 6 34

GFSNW_con_3kmhel_075.txt.gz
Helicity
-22 -19 -10 -9 -7 3 26 33 36 67 72 38 7 16 14 41 66 71 68 67 94 78 55 23 -28 4 -12 62 54 50 120 114 119 71 40 27 66 100 165 137 105 82 89 67
-49 -40 -18 -30 -24 2 55 48 31 30 57 34 39 47 47 49 4 -15 25 5 17 58 38 21 4 17 71 52 28 27 25 51 106 58 41 42 37 57 104 170 170 131 87 85
-54 -55 -55 -40 -36 -35 86 62 72 23 -9 11 31 27 20 29 29 28 -9 -5 14 9 12 26 18 22 56 67 31 57 35 46 24 10 26 56 53 58 80 101 111 125 125 132
-44 -43 -34 -45 -49 -47 99 72 61 69 47 22 20 27 12 25 33 10 14 -12 42 5 8 12 28 28 15 28 34 30 23 17 32 39 54 48 38 51 75 85 93 98 107 116
-24 -32 -32 -30 -35 -27 73 45 71 73 63 24 20 43 35 12 34 27 28 22 44 14 29 34 29 32 36 20 23 45 56 33 44 38 36 43 45 29 41 55 62 72 99 105
-5 -0 -6 10 28 49 65 51 104 115 83 76 38 52 37 27 25 -2 13 27 31 17 6 29 48 31 30 39 33 38 50 54 49 36 24 51 76 38 57 71 70 92 104 91
16 20 27 56 65 96 100 111 134 138 65 90 112 66 40 29 24 11 13 13 35 20 21 26 26 31 39 45 49 34 50 51 51 49 51 55 28 36 36 97 63 54 86 108
37 47 73 87 76 82 107 125 182 184 92 132 80 98 66 57 37 30 27 28 -0 11 28 37 27 32 30 38 49 86 58 63 55 49 32 25 26 25 40 52 31 33 46 92
71 75 93 116 114 106 112 108 118 248 242 152 95 77 52 41 65 51 36 20 8 11 23 46 37 32 38 51 58 60 67 76 59 40 30 21 27 21 29 48 33 46 71 72
72 98 122 134 110 102 109 83 125 203 238 74 82 87 78 61 73 72 57 49 37 38 42 31 23 35 36 36 28 40 51 59 52 49 23 28 25 29 56 34 15 43 67 75
116 122 159 170 108 76 121 86 116 165 148 78 45 51 65 90 63 79 92 67 52 56 51 41 29 37 31 43 29 24 27 37 39 36 35 30 36 44 30 16 49 35 45 62
153 166 202 175 140 123 148 125 110 164 202 153 62 34 -2 60 57 57 69 97 78 58 51 55 55 42 41 25 39 47 32 24 25 23 22 16 8 26 52 24 23 44 27 29
137 188 166 169 142 102 127 134 107 141 159 111 40 47 15 44 3 40 68 56 88 69 67 52 46 42 40 49 36 28 30 28 32 46 33 35 39 53 46 46 47 56 49 41
120 92 83 216 126 111 113 151 137 146 135 101 40 -14 59 26 56 68 55 52 105 97 75 60 58 43 40 29 34 38 26 53 31 37 28 25 6 53 56 64 56 55 60 53
130 97 87 190 215 131 85 155 136 152 137 82 57 63 25 33 74 41 99 -6 -19 63 127 90 59 55 51 46 44 37 46 45 68 35 41 46 38 88 84 67 51 53 53 56
79 47 80 254 179 112 113 66 93 53 -57 4 83 44 17 57 62 25 101 85 103 38 31 89 102 60 59 23 13 11 21 32 59 54 63 46 50 66 66 65 57 50 46 37
45 55 262 236 118 112 92 90 119 57 20 -10 33 23 15 17 56 94 127 160 117 98 77 67 95 91 87 68 76 54 31 28 55 64 86 81 91 68 85 70 69 64 48 38
194 179 137 118 101 83 93 11 77 123 9 18 -9 14 57 -0 11 7 27 89 112 114 83 95 89 65 85 21 1 -10 18 32 87 95 109 111 118 118 117 99 87 77 54 47
207 190 147 93 97 69 -1 -61 69 95 45 8 -13 -2 4 10 -4 1 21 17 100 69 107 103 81 84 99 51 32 59 55 62 77 151 149 139 132 126 110 101 103 92 79 81
173 91 86 117 102 89 54 26 6 23 41 30 -0 47 34 4 9 6 11 26 23 47 65 82 119 104 104 108 107 117 121 119 93 98 109 135 128 131 109 88 69 53 42 51
26 59 78 105 74 46 -17 3 2 15 -3 36 44 89 93 6 12 29 9 28 20 17 13 49 44 34 72 143 178 199 181 155 140 122 120 129 118 102 78 65 63 50 38 44
57 82 75 86 36 -11 6 4 7 9 2 28 42 20 150 78 22 17 12 22 29 7 52 48 32 30 55 79 99 109 101 102 97 95 90 89 81 74 61 47 50 52 52 49
68 75 84 70 30 15 13 11 -6 13 7 -2 -13 13 33 2 1 -5 8 8 28 16 14 2 4 3 49 67 83 97 103 103 87 80 63 52 55 61 62 63 68 71 69 71
85 77 83 63 30 -1 15 -0 -22 -8 -13 -2 5 10 18 -1 -2 -0 -0 17 9 12 18 -4 4 10 67 61 65 67 68 66 54 36 20 14 12 17 20 32 48 68 84 88
70 75 51 57 34 28 17 14 -3 -0 1 -5 -8 8 11 20 17 8 14 3 6 7 23 30 62 72 -3 -8 17 28 22 8 11 11 10 4 -2 -11 -13 -4 10 18 26 38
77 75 70 47 55 34 25 13 -2 -6 16 24 20 26 32 35 35 31 25 33 29 45 57 39 6 -4 8 19 31 6 4 19 23 18 18 15 7 -3 -9 -6 -3 -2 -0 17
98 53 48 61 60 48 39 39 35 33 41 68 60 60 59 61 69 66 57 54 29 51 76 40 20 12 9 9 1 -6 3 12 15 20 29 31 32 24 28 7 -2 1 -5 -10

GFSNW_con_3kmhel_078.txt.gz
Helicity
-109 -118 -115 -93 -83 -56 53 49 68 59 51 56 37 65 37 46 39 50 35 -8 55 46 31 4 25 42 33 93 70 59 62 99 141 65 65 68 98 93 124 116 120 109 78 48
-87 -105 -121 -132 -156 -99 28 58 64 74 54 61 16 49 69 40 30 22 11 -5 -4 8 10 -12 16 35 54 41 31 40 54 96 176 105 106 93 91 87 102 143 152 126 128 81
-47 -54 -71 -77 -111 -76 51 14 50 46 96 59 47 -2 25 57 35 16 2 -1 13 14 20 28 1 28 40 33 27 30 24 51 34 39 51 105 77 70 76 143 151 130 124 85
-20 -19 -27 -28 -26 -13 81 65 92 98 43 125 107 66 32 38 58 57 34 3 1 14 7 19 31 20 32 35 39 23 22 33 43 55 46 60 59 78 97 87 75 109 88 76
10 8 6 8 7 48 79 76 92 138 109 81 118 154 87 49 50 56 54 45 31 22 13 19 32 53 33 27 46 41 41 22 43 63 51 57 56 43 72 83 83 72 75 28
23 38 44 31 57 80 115 81 106 124 177 203 222 216 178 82 66 37 30 25 34 44 22 16 22 39 44 38 25 32 46 53 61 43 42 41 54 15 73 79 85 94 97 51
48 60 72 75 100 123 125 105 87 206 206 223 206 231 158 74 81 59 35 21 36 36 45 53 30 28 28 39 58 40 49 69 64 52 72 56 32 63 62 102 63 85 96 103
57 68 92 102 111 149 125 79 151 157 271 202 106 145 124 46 71 50 29 35 15 21 46 70 44 39 42 51 39 65 55 68 67 61 50 32 34 34 48 65 42 49 59 94
76 88 118 128 138 151 131 76 88 133 281 199 136 119 45 21 104 85 62 70 38 36 32 71 51 44 50 54 47 54 86 85 68 54 47 32 46 41 36 53 37 38 62 72
81 120 133 135 124 131 145 80 101 129 185 82 168 88 16 32 52 118 74 66 69 49 51 46 49 60 49 62 73 72 78 73 58 52 31 43 25 27 27 46 37 40 45 92
113 106 152 168 152 142 160 96 108 169 202 142 85 24 38 -6 26 63 63 94 61 56 62 45 39 36 46 56 48 45 44 46 51 50 34 28 32 51 36 18 32 22 41 52
91 124 166 209 195 219 176 162 90 150 218 269 216 65 -5 -22 7 -11 51 68 118 62 63 51 45 48 50 44 56 44 43 32 38 42 45 26 15 29 23 33 25 27 25 34
121 171 170 123 190 199 109 128 104 158 155 171 55 59 -73 -71 -38 8 104 19 32 84 74 46 52 48 42 40 41 45 44 34 39 45 37 26 14 39 43 38 38 42 46 41
104 126 138 165 232 210 112 98 97 160 123 100 118 53 -18 40 35 35 36 65 25 50 -26 69 62 54 38 27 35 41 23 48 36 44 41 30 23 17 39 51 50 51 55 51
70 78 118 159 218 189 94 75 110 121 138 143 224 53 -40 0 -13 -20 -18 87 37 -2 64 75 43 20 29 39 29 22 47 47 59 33 20 32 32 53 69 55 37 41 42 43
26 32 25 196 254 212 78 82 82 100 114 159 91 35 -24 1 0 10 43 71 112 62 53 68 83 83 61 30 19 24 23 9 31 34 48 29 34 50 63 60 49 49 48 40
41 67 157 156 150 95 94 118 147 155 101 88 42 -3 -4 5 -13 30 78 112 104 71 88 63 88 111 90 53 39 32 21 3 2 34 104 84 52 47 76 76 71 67 63 56
160 162 99 93 91 62 82 69 94 96 63 -4 26 13 -5 -11 -4 9 -6 52 69 59 70 78 69 38 62 12 -11 10 12 -7 30 63 74 49 98 112 110 103 76 68 72 72
147 137 106 77 106 87 44 34 66 60 24 10 3 11 3 -4 4 -17 -9 -40 43 36 56 73 64 87 108 33 -1 30 40 36 35 119 133 138 127 113 112 105 98 64 61 74
139 60 95 107 81 40 42 26 18 -1 2 9 12 46 79 27 2 11 0 3 -10 24 15 44 73 75 53 70 80 69 97 110 106 112 98 107 122 123 123 114 96 79 55 43
102 92 109 78 46 69 45 38 33 21 9 13 24 82 133 88 28 4 4 10 0 13 14 14 44 71 75 101 144 150 142 137 136 129 142 141 117 109 106 92 78 63 52 47
112 75 80 83 69 37 41 36 35 48 31 19 24 37 148 68 25 16 7 3 18 -4 33 12 23 17 16 37 62 84 102 115 130 123 100 100 98 86 75 67 60 51 50 49
77 67 86 69 63 54 57 36 24 38 44 14 10 21 33 26 -1 0 7 7 9 13 23 -8 -6 6 21 42 60 84 87 91 97 95 84 81 77 75 75 69 67 69 68 72
100 121 119 65 52 45 45 36 37 21 11 8 9 11 10 7 5 1 11 8 12 25 28 28 16 -8 9 27 38 50 59 72 78 81 62 41 27 18 13 9 9 17 36 57
128 109 98 67 59 59 52 43 36 20 13 13 21 24 21 29 17 13 13 8 2 -6 13 18 33 56 -3 -21 -11 13 27 29 32 37 40 30 26 12 -6 -11 -3 0 9 18
107 99 91 56 70 47 57 24 15 13 20 31 29 31 32 33 61 44 29 37 33 20 45 49 37 1 0 4 4 1 9 20 27 14 11 24 26 21 12 22 18 9 4 1
138 76 77 87 65 59 45 33 43 39 56 71 82 73 74 72 51 58 76 61 34 41 63 71 23 11 6 13 12 9 6 5 -5 9 22 29 23 20 31 28 22 20 16 12

GFSNW_con_3kmhel_081.txt.gz
Helicity
-50 -57 -64 -59 -60 -37 88 96 61 77 124 126 151 141 99 76 70 80 40 41 51 45 42 30 35 13 19 39 23 62 49 78 136 103 109 55 116 76 117 98 108 90 31 -1
-21 -21 -17 -17 -28 -0 93 120 91 116 144 154 147 134 119 91 67 93 83 49 33 27 5 20 7 -9 74 80 28 24 43 34 124 114 64 74 46 93 116 119 119 45 87 62
5 13 14 29 -2 9 96 117 121 120 125 151 137 132 122 100 67 73 97 55 43 35 13 13 29 -22 -5 45 35 35 54 49 60 46 28 73 76 94 94 130 102 77 100 19
34 33 47 42 29 46 106 140 183 162 201 234 156 171 180 95 44 22 54 101 65 30 33 26 39 29 -16 -4 21 56 37 41 53 71 47 84 89 129 98 66 78 102 69 45
42 46 51 60 78 74 156 136 184 210 261 261 281 269 158 128 68 15 11 45 74 50 30 28 28 42 51 43 29 27 41 45 66 71 65 49 43 61 52 47 109 57 69 46
47 64 70 80 114 96 70 93 165 217 273 308 334 342 188 102 28 5 14 10 32 61 48 35 44 41 55 50 50 42 37 35 59 50 61 48 44 23 84 101 132 100 70 68
61 85 93 104 130 111 85 89 119 177 235 294 299 192 148 106 35 -38 -2 49 60 25 62 56 56 48 39 39 55 52 41 62 72 45 73 47 22 41 45 124 77 127 86 22
66 94 75 92 123 133 58 48 71 122 161 215 146 154 107 74 29 18 -37 41 19 18 50 70 63 50 52 52 48 55 61 70 75 59 50 31 30 32 43 41 25 73 70 57
62 91 74 82 75 113 85 79 107 152 183 158 144 119 97 71 -5 -85 -42 52 195 48 48 59 58 28 36 45 58 70 85 81 72 71 58 41 43 53 35 40 41 43 59 44
56 82 91 68 110 137 169 117 122 162 172 87 149 150 126 16 19 -78 -105 106 100 58 47 17 44 57 51 49 36 52 76 76 58 65 56 47 25 29 28 61 30 42 46 39
34 57 98 118 160 212 251 169 123 186 160 97 108 160 104 78 55 9 -11 36 75 102 42 37 45 36 52 60 47 47 61 63 51 72 51 39 33 47 46 36 41 29 34 44
82 88 121 128 146 219 263 219 109 157 202 210 204 86 37 21 -29 -10 -27 42 81 105 60 42 43 36 41 61 74 57 58 45 33 44 46 35 37 61 42 31 36 31 28 38
87 98 106 107 121 236 262 178 84 109 135 127 122 113 99 43 9 -9 -8 -36 -1 59 42 71 49 49 45 41 43 53 45 33 42 52 42 26 23 23 34 49 46 32 38 47
58 74 76 55 76 183 205 132 105 132 136 122 107 106 88 -7 -21 -4 33 47 44 -20 3 48 68 49 57 40 44 42 27 35 36 50 41 37 22 24 33 47 50 49 55 52
58 60 34 43 86 126 187 149 118 106 144 164 129 37 38 37 -19 11 3 1 61 26 61 55 70 47 50 45 30 21 30 38 51 31 9 22 34 42 49 57 42 38 31 38
61 42 56 114 166 164 111 122 81 110 100 97 23 32 27 -45 -37 -17 8 21 53 69 54 38 39 50 40 33 16 24 28 32 13 32 24 30 33 39 57 62 53 50 46 37
58 85 147 158 136 93 108 154 147 123 85 66 25 16 38 -18 -39 -26 16 31 45 70 49 55 58 66 116 67 16 36 24 17 16 9 52 62 39 32 57 67 72 65 52 46
161 176 159 127 98 107 141 112 120 86 40 21 25 23 14 -0 -9 -4 -23 2 34 43 50 45 47 56 69 40 5 13 29 15 24 40 62 40 55 93 95 93 82 75 62 51
152 142 132 80 101 153 113 87 83 47 12 31 47 73 29 2 -7 -9 8 -7 21 10 47 64 51 58 87 21 20 27 22 36 39 84 100 93 84 95 97 84 79 61 49 48
129 83 128 163 99 60 94 91 48 19 10 8 17 29 41 52 26 21 14 5 -7 20 -5 16 37 75 69 80 47 44 73 68 63 96 84 76 85 89 93 90 88 89 73 64
90 130 151 89 70 100 112 93 72 54 52 22 16 62 98 68 41 15 7 6 -1 7 -11 12 25 55 60 53 44 64 70 85 132 121 107 115 106 103 94 93 95 79 65 54
99 119 96 79 88 113 102 77 59 56 65 31 34 46 75 39 35 7 10 6 15 -3 16 2 22 15 14 29 46 79 101 109 123 112 110 113 110 91 75 66 64 54 45 43
98 126 147 130 120 151 104 88 61 48 40 30 34 42 22 19 26 2 13 24 11 6 32 23 13 -8 8 11 36 66 73 76 82 88 84 74 61 62 62 57 54 49 42 45
142 142 182 183 186 111 77 84 68 43 41 30 22 20 34 35 25 25 26 34 14 31 37 27 26 10 6 30 41 49 63 72 78 82 63 56 41 26 19 15 11 14 17 14
138 155 142 162 76 65 64 63 60 23 34 28 26 19 27 36 48 52 36 24 21 24 25 18 14 17 -5 -6 -4 23 27 27 30 31 39 43 39 32 27 21 13 3 1 -1
151 166 182 115 103 65 74 74 45 31 31 18 24 32 34 33 67 70 61 66 48 28 5 45 47 36 19 8 -4 -0 4 10 19 30 27 22 19 20 19 23 27 22 22 17
194 140 99 112 88 86 90 64 28 37 55 60 66 66 75 72 75 77 80 78 66 46 28 51 53 52 47 27 20 18 16 14 11 9 4 9 20 25 33 24 11 15 15 19

GFSNW_con_3kmhel_084.txt.gz
Helicity
-8 -4 22 12 10 10 97 124 158 170 125 164 175 188 187 209 128 95 42 48 54 42 40 49 17 23 17 0 34 0 98 104 71 49 131 77 149 119 146 85 46 46 10 51
-5 28 41 35 21 34 97 159 131 158 174 292 270 174 163 193 220 101 54 21 32 11 -8 -13 5 -32 21 9 -22 30 66 42 38 55 86 116 92 105 114 114 66 7 26 -16
42 52 60 40 29 48 116 159 139 206 272 325 279 260 227 209 122 94 40 24 27 12 4 -1 5 -8 50 56 13 53 63 49 70 59 40 79 80 96 102 108 80 67 99 92
44 53 55 58 58 67 106 130 161 209 250 220 169 269 291 195 100 74 21 13 53 36 19 22 30 19 -20 60 34 44 40 18 50 36 30 64 75 99 129 147 147 94 50 24
36 41 61 94 98 75 93 80 120 156 112 133 164 236 297 228 91 43 -11 -24 33 19 22 19 34 46 42 19 39 68 63 67 58 73 60 47 44 39 73 82 77 70 21 19
42 49 91 97 129 97 22 13 11 79 -9 77 190 172 157 113 68 -20 -14 -37 -39 117 60 31 33 31 28 13 15 28 46 49 67 59 55 40 37 36 71 73 98 55 101 155
39 68 92 99 149 109 -14 -43 5 53 -1 131 129 133 153 117 77 39 -102 -29 -167 34 75 88 27 49 41 25 37 27 18 33 36 26 49 33 18 12 16 76 78 102 97 84
42 77 74 82 100 14 -27 -20 51 78 78 116 104 136 142 92 58 47 -104 -9 -48 -18 24 43 67 61 36 59 69 53 54 50 45 31 22 23 19 27 23 6 27 32 65 36
50 79 30 80 47 38 48 37 99 93 155 102 104 140 131 122 50 16 -90 -24 -27 39 30 39 44 32 31 28 60 85 84 86 70 50 34 29 26 33 26 13 29 24 11 40
32 57 7 23 57 80 109 91 125 148 163 79 143 115 122 56 85 56 -27 37 77 134 55 27 40 49 34 45 21 28 63 76 67 53 43 43 25 30 32 60 29 47 35 37
26 10 33 53 104 141 138 119 127 132 137 95 131 144 132 53 78 7 9 -30 36 135 68 48 24 23 37 33 31 29 47 50 52 78 51 31 40 52 51 41 37 25 31 27
79 70 106 108 86 156 146 72 88 116 130 138 130 144 111 109 129 80 18 34 54 101 101 103 66 46 28 37 52 34 50 38 38 38 34 33 24 43 50 37 47 26 30 23
81 72 89 77 125 136 122 106 120 106 123 79 58 65 74 88 85 -10 62 -3 54 43 14 81 63 48 39 36 32 37 29 21 35 49 38 18 10 18 20 29 39 32 28 23
67 73 75 90 101 128 113 104 104 119 121 83 49 64 26 34 41 54 38 20 58 13 46 54 46 51 50 44 40 30 22 33 33 39 31 31 26 19 26 36 43 49 50 43
51 75 72 98 122 129 123 105 107 109 89 122 71 28 28 43 53 20 25 4 56 68 68 50 56 60 59 42 23 14 24 21 34 29 9 21 26 30 36 39 43 41 40 44
55 82 90 166 206 156 88 109 87 113 83 65 48 25 27 49 39 26 39 40 51 55 72 53 34 32 41 38 22 19 36 45 30 26 20 24 37 35 49 61 58 56 57 53
70 45 139 186 172 136 128 131 124 118 92 69 52 42 27 41 38 34 19 32 26 37 31 33 85 75 86 66 37 56 47 50 13 -3 10 36 40 35 63 71 83 76 65 55
144 179 207 196 211 155 133 110 151 102 77 61 74 52 34 31 41 47 14 8 5 25 31 33 13 47 71 31 11 30 67 41 29 24 44 43 54 78 83 86 77 78 64 48
172 206 177 144 146 151 117 87 135 77 71 99 81 77 48 37 56 50 37 18 19 6 27 42 51 45 55 15 44 50 33 36 54 88 84 73 73 78 86 79 85 63 52 59
179 117 94 106 102 55 95 117 101 83 80 60 70 31 31 72 61 44 27 13 5 33 -2 8 15 61 74 49 20 57 71 79 93 100 99 88 73 70 71 66 57 47 40 44
106 100 102 115 93 112 153 146 110 97 92 80 48 40 64 57 58 46 15 13 5 6 -11 4 22 24 27 12 37 49 16 40 71 73 83 108 70 50 55 61 67 59 56 50
69 87 115 102 111 136 139 122 104 103 100 66 59 38 51 33 47 40 18 30 32 -5 28 19 11 18 -13 1 13 39 70 88 111 123 117 108 100 90 73 65 65 60 50 44
103 100 84 79 87 130 147 158 164 115 73 62 49 41 15 33 38 32 33 41 37 38 36 40 48 -1 5 10 23 42 58 68 74 83 81 78 76 74 70 63 46 33 29 24
106 86 83 79 96 95 137 173 154 68 84 61 44 45 35 39 43 55 54 47 37 50 45 38 20 3 2 24 37 34 44 52 61 75 75 81 74 52 31 21 18 13 13 6
106 79 63 93 110 132 107 78 90 68 59 40 35 32 36 39 41 53 53 61 61 67 40 13 3 15 5 27 8 14 27 29 34 41 51 52 47 40 26 23 23 24 16 13
105 108 130 110 151 152 128 106 87 82 68 32 39 41 41 38 50 58 62 97 92 70 49 21 2 3 21 16 20 8 6 7 13 18 13 16 27 25 12 10 19 17 9 12
91 93 111 138 157 157 117 114 105 78 67 85 59 67 46 70 75 75 77 98 86 80 55 40 30 20 17 24 17 16 15 17 17 21 22 22 11 -1 1 9 14 16 11 6

GFSNW_con_3kmhel_090.txt.gz
Helicity
17 12 24 20 15 73 134 189 165 210 97 252 212 163 153 95 55 15 6 24 42 64 13 29 82 43 -39 -1 2 -6 52 20 127 110 16 9 118 70 141 109 93 113 147 110
35 24 33 10 17 58 133 170 146 203 143 256 150 84 85 142 34 8 -57 -37 -43 -4 30 15 13 59 22 -3 4 9 27 40 29 9 47 54 68 57 69 63 82 76 138 100
50 30 43 13 25 72 110 115 119 139 185 150 126 68 97 82 40 47 -105 -83 -69 136 29 3 12 44 24 22 22 25 49 70 112 99 87 42 58 34 35 83 67 36 44 44
73 46 60 28 42 63 78 75 86 50 97 98 111 96 97 87 34 47 -90 -99 -125 -22 106 49 33 64 38 56 35 44 48 87 58 79 52 19 43 38 74 70 60 42 19 34
70 67 58 70 51 77 75 58 13 -15 47 66 65 75 84 42 62 48 -88 -151 -91 -20 37 40 77 108 60 21 56 35 50 45 59 71 41 16 35 41 0 6 25 29 32 51
78 80 68 75 57 58 66 -6 -52 -60 0 47 32 52 67 64 71 72 -75 -96 -34 -17 62 99 83 15 42 39 25 46 29 43 72 88 83 60 67 46 28 36 31 26 27 46
90 68 66 94 120 95 38 -64 -82 -64 -11 24 46 50 77 67 44 37 -69 -86 -45 -2 93 125 25 0 12 0 8 20 25 30 60 101 81 58 41 33 32 16 27 -5 13 40
78 72 67 85 97 88 11 -78 -69 -32 -2 16 48 17 82 37 0 -8 -49 -41 7 94 45 24 18 11 0 13 23 13 22 37 48 82 105 80 48 41 42 41 40 31 26 57
75 54 47 73 101 108 9 -60 -7 5 35 15 26 15 48 38 -14 -26 -10 -22 10 29 6 -6 6 12 7 8 5 25 35 39 51 54 76 86 48 53 41 24 49 45 34 59
29 44 36 56 77 95 1 -42 19 54 62 59 50 36 44 16 -12 -47 -16 -24 -24 35 -10 0 9 41 19 16 10 12 26 41 33 40 60 40 31 23 13 39 67 32 17 30
32 41 23 44 72 101 -7 -13 19 56 74 58 50 50 45 31 10 -26 -12 10 4 -3 -15 -18 -3 31 38 16 21 22 23 32 44 53 58 58 27 22 40 57 43 17 9 13
31 34 13 28 79 60 37 -17 19 48 77 40 31 8 -4 5 7 11 6 22 28 20 31 13 47 42 31 32 25 7 21 23 39 33 60 48 20 16 29 36 31 36 19 20
30 17 13 30 89 67 53 17 48 48 86 33 29 25 28 26 14 20 9 19 25 46 79 58 49 65 66 44 30 22 8 1 22 30 39 30 26 18 12 22 29 31 24 28
57 50 39 69 96 94 76 20 29 43 73 65 69 21 16 -10 9 20 16 34 43 29 59 66 44 60 50 42 47 43 44 21 22 22 27 29 36 41 27 30 42 39 43 55
63 53 50 102 110 140 96 54 27 32 26 73 95 41 28 8 20 24 31 26 30 45 49 59 64 83 60 50 42 51 28 31 29 49 42 30 27 36 34 40 54 49 40 43
68 72 72 74 163 174 71 19 36 38 38 63 96 53 33 28 24 47 58 41 28 36 37 28 75 94 86 86 74 49 57 58 80 73 55 28 28 31 51 49 59 79 78 59
87 75 95 81 172 118 28 23 87 78 49 71 111 97 49 30 31 50 66 53 46 25 25 21 41 107 133 111 72 103 97 69 52 38 30 27 36 40 59 71 81 91 100 94
95 120 139 97 190 111 89 110 106 76 81 67 94 102 68 32 47 47 65 76 56 47 25 20 8 46 79 48 79 82 95 91 48 103 91 52 59 80 87 84 74 83 85 75
250 240 199 166 55 13 47 87 102 84 66 76 76 97 107 33 38 36 52 50 61 59 45 35 38 21 3 34 35 59 88 109 116 131 72 80 81 100 89 80 83 78 76 73
194 220 157 92 3 101 102 61 64 60 56 61 60 78 97 47 42 52 41 39 45 66 58 53 52 38 22 -2 -7 13 27 50 52 65 103 120 107 109 112 104 101 94 87 69
250 211 159 78 68 37 17 31 33 52 45 45 67 65 91 47 77 78 46 50 43 56 51 45 55 47 28 -9 -16 0 5 6 24 62 72 103 129 126 107 108 112 84 80 82
117 102 184 91 13 -17 -9 7 37 28 35 55 74 74 61 56 56 80 65 83 62 64 54 49 54 42 14 1 0 12 27 36 32 56 76 102 117 120 115 99 93 81 81 82
225 194 137 84 57 110 84 50 37 32 52 56 77 81 71 67 45 69 70 67 72 59 67 71 48 38 20 16 20 40 27 35 46 59 84 113 141 156 138 109 90 83 67 51
184 118 147 81 137 115 36 57 58 66 81 97 88 98 89 76 103 82 104 71 66 81 83 79 50 28 11 0 13 14 21 40 60 58 63 74 93 106 116 96 73 53 40 33
198 118 138 113 93 34 68 110 118 112 109 116 111 103 103 120 124 100 94 104 102 84 80 63 59 55 41 18 14 9 19 33 36 44 44 46 51 48 48 45 42 45 44 41
130 135 142 133 150 87 118 116 114 114 120 121 106 112 110 131 113 140 138 162 115 81 70 49 61 61 43 38 25 17 12 3 17 22 17 14 9 12 18 25 27 38 45 37
116 138 142 76 57 65 109 110 121 115 141 103 109 104 100 138 144 124 103 103 104 106 79 47 48 83 77 58 40 35 35 25 19 27 25 11 3 7 10 12 14 9 6 2

GFSNW_con_3kmhel_093.txt.gz
Helicity
52 55 31 15 12 48 53 124 165 162 82 163 188 176 115 117 40 -41 -39 -49 -4 16 41 35 105 -12 -45 -1 -3 11 27 31 -45 26 17 33 103 115 124 81 73 91 110 90
60 52 29 18 13 36 68 118 153 159 103 174 145 105 131 104 59 -13 -87 -54 -7 -16 31 13 40 -58 -42 33 18 31 17 10 30 55 24 53 102 137 100 120 104 103 128 59
68 44 36 13 11 29 35 108 131 142 136 114 114 89 63 83 60 -11 -101 -54 0 -15 -5 -2 7 -18 -2 25 11 53 33 58 89 95 77 52 58 41 49 65 57 74 96 59
63 50 55 12 23 16 38 78 100 93 98 145 94 70 52 62 95 -33 -104 -59 -47 -6 -12 -22 5 23 48 52 2 28 38 57 78 99 69 36 36 14 33 52 20 29 43 36
68 78 61 32 29 23 68 85 85 57 84 94 56 66 68 67 74 28 -73 -96 -56 -21 -2 -10 -3 77 3 19 9 -4 10 63 66 80 43 42 66 55 24 7 -14 2 12 17
72 82 74 78 34 34 67 79 54 -19 61 83 45 49 45 49 30 25 -87 -70 -38 -13 -6 11 56 45 76 41 45 53 7 21 59 47 21 18 43 17 14 30 35 9 0 42
73 97 80 94 47 11 82 74 33 -8 61 43 70 52 35 7 0 -9 -50 -39 -33 -38 34 58 38 56 54 33 2 18 45 28 49 90 56 54 53 40 45 10 25 7 12 45
80 92 92 85 92 62 100 78 2 0 53 74 90 45 3 -5 -12 -16 -40 -35 -28 -35 27 7 8 12 15 9 1 4 21 45 48 94 91 76 44 55 55 45 52 49 38 53
82 98 115 96 99 96 107 65 -11 12 53 73 80 54 20 15 18 31 -5 -10 -9 -10 24 8 4 -2 26 34 28 23 28 37 56 55 91 113 90 57 50 41 45 41 39 52
119 72 101 83 75 73 69 54 4 25 59 56 48 40 30 2 -4 15 4 -7 23 23 8 -5 -11 0 28 48 38 41 32 39 43 47 73 65 52 37 23 62 89 48 43 54
167 124 -5 65 64 73 62 64 21 35 42 53 26 20 30 24 19 53 -7 23 35 20 30 27 14 14 38 29 37 40 39 41 42 55 61 53 37 31 74 84 61 42 38 37
115 63 14 54 49 63 65 42 27 39 39 40 0 -6 -12 -11 -7 18 27 37 34 34 41 36 39 38 40 32 32 15 32 49 61 65 99 52 43 42 42 41 43 45 47 39
71 29 36 44 43 59 54 37 43 45 77 41 33 30 20 6 7 -5 21 35 29 53 63 66 64 44 40 42 65 25 11 25 37 45 47 52 42 31 27 25 32 40 37 37
88 18 21 30 64 77 63 32 35 25 53 39 49 5 17 -12 11 12 -3 2 20 26 52 80 56 48 58 68 69 43 62 35 32 17 33 34 29 50 33 27 37 39 38 51
65 53 41 68 114 95 93 47 32 13 17 63 65 35 16 -1 4 13 22 23 12 27 58 82 105 56 50 63 58 42 77 99 69 76 90 64 49 46 41 29 40 54 52 57
123 158 41 141 118 108 64 23 23 25 23 55 45 52 45 17 9 20 31 41 33 38 57 60 49 49 51 55 73 132 103 93 88 74 66 44 22 29 29 40 57 75 75 69
180 32 146 130 123 124 64 35 45 52 28 56 63 59 55 31 29 34 41 54 48 41 50 58 51 44 59 72 69 119 131 116 91 40 49 30 53 46 45 46 73 87 83 90
132 132 161 180 156 51 70 88 88 54 49 61 58 72 74 41 70 64 40 57 42 46 46 52 64 71 62 6 50 61 104 101 54 104 91 50 44 49 66 78 74 73 78 81
211 201 231 240 179 93 52 86 83 59 47 46 63 65 52 54 73 66 50 44 76 52 62 69 77 94 66 38 35 34 47 46 65 99 118 104 79 69 86 94 83 69 68 68
219 247 236 203 170 73 62 46 34 48 59 40 51 67 60 60 84 85 71 59 80 108 90 61 79 74 58 63 22 -8 -8 11 14 13 76 113 98 85 80 98 114 116 99 81
392 333 310 168 102 110 54 60 39 58 43 40 62 62 73 63 86 104 66 102 92 141 114 83 77 65 86 34 19 31 27 30 34 19 18 63 61 92 105 101 132 114 101 90
258 192 176 161 113 120 123 102 67 38 54 54 74 77 69 80 77 103 90 115 104 134 94 98 103 61 45 24 35 34 50 41 40 53 43 57 73 117 110 95 116 114 103 93
215 297 269 140 118 172 151 123 93 69 51 56 82 96 76 73 78 98 100 110 132 109 141 123 75 67 31 26 26 26 38 36 39 42 58 64 83 113 128 130 136 143 137 100
435 448 422 261 247 196 128 111 66 71 64 103 116 117 77 79 94 94 98 123 139 188 181 128 77 69 44 30 31 9 9 36 50 57 46 53 57 84 101 123 124 120 115 95
619 463 335 340 191 128 146 98 79 136 105 133 134 113 88 92 96 98 104 111 126 118 133 115 88 79 67 46 45 21 17 21 31 36 26 27 43 52 66 68 63 55 57 60
432 471 439 193 161 137 117 76 103 115 134 139 112 100 81 89 94 112 113 146 128 133 108 115 117 110 90 72 62 43 30 20 22 35 30 24 27 16 14 24 33 27 23 22
578 603 253 136 134 174 82 59 98 101 132 121 105 110 80 112 107 114 128 129 123 100 110 116 127 125 98 74 67 62 49 46 37 40 40 34 39 41 14 7 22 20 5 1

GFSNW_con_3kmhel_096.txt.gz
Helicity
47 47 46 45 32 39 35 27 103 163 95 157 117 172 144 87 -0 -74 -28 -9 10 20 30 31 10 -22 -4 28 22 -0 4 27 25 22 64 26 73 45 103 93 127 53 111 109
56 49 50 51 37 18 24 54 116 152 97 125 133 162 123 100 32 -25 -53 -26 18 2 40 14 -7 -37 15 74 30 31 8 -5 4 62 79 99 41 53 109 95 82 53 60 51
55 47 60 50 26 4 25 55 75 116 124 124 100 150 127 106 24 -33 -60 -22 -1 -20 1 -20 -12 -25 -19 18 19 13 10 27 35 78 55 73 22 41 68 71 69 110 14 89
46 56 68 42 25 29 19 52 58 94 126 142 117 121 108 89 36 -22 -59 2 -29 -8 -12 -4 -17 -37 -20 7 31 22 51 35 76 84 49 21 2 51 58 35 63 34 45 84
49 62 73 55 32 59 32 73 80 99 131 122 73 134 153 97 14 -6 -4 -31 -33 -5 5 -1 -11 -9 -9 26 16 21 31 66 54 86 52 28 45 22 39 40 31 4 -24 11
67 55 69 57 41 23 51 63 75 92 102 92 61 108 107 72 -24 -28 -75 -51 -33 9 -3 -21 6 25 32 37 31 32 20 53 59 59 29 15 56 35 10 35 33 23 -1 33
134 36 56 50 34 27 57 55 90 72 70 45 95 99 71 27 -36 -95 -76 -37 -20 -21 -46 18 27 40 45 67 66 29 27 44 57 58 43 49 37 51 67 19 44 35 31 37
118 42 84 78 20 16 48 60 68 61 80 102 93 81 46 21 -5 -52 -34 -28 -27 -42 -5 6 24 25 27 33 6 -0 5 29 47 72 82 63 44 48 52 45 29 46 46 61
97 58 108 132 92 101 111 107 74 71 90 65 85 83 32 29 50 24 1 3 9 -0 15 17 8 16 14 24 45 10 9 21 51 65 78 99 70 53 58 51 44 54 54 49
160 118 106 92 97 90 96 73 71 70 86 60 49 51 50 21 27 41 17 2 25 57 33 25 17 13 15 13 19 32 40 41 40 68 86 63 49 47 45 93 74 52 46 41
163 107 106 99 45 69 75 85 77 66 65 63 42 32 55 46 33 70 32 61 41 40 48 28 30 30 8 13 36 46 40 46 62 78 73 65 35 52 86 74 49 51 34 35
191 142 117 24 28 45 61 72 59 85 70 47 23 18 1 23 7 33 48 65 51 44 54 50 33 33 34 25 12 32 38 49 48 67 75 56 46 53 54 49 43 52 54 51
185 133 50 -10 34 80 74 79 55 69 89 52 51 44 19 16 9 -9 45 56 53 63 49 74 72 77 28 40 29 24 65 49 43 58 78 42 73 64 41 41 48 54 56 46
107 80 26 15 46 73 70 69 49 43 37 49 43 15 33 11 16 10 16 35 38 39 54 75 83 80 52 22 7 13 60 62 52 54 131 58 67 54 46 34 45 51 61 61
118 98 21 29 59 98 123 99 54 51 24 47 56 46 24 20 20 23 29 28 38 57 76 94 105 65 57 39 -6 19 113 102 103 63 104 89 46 35 39 49 41 47 48 64
158 108 41 74 65 72 81 54 33 37 40 40 42 38 46 34 27 21 32 39 44 39 46 60 50 50 62 50 49 82 148 153 139 104 59 39 31 41 50 42 59 82 98 72
234 160 137 78 80 131 94 51 31 43 40 36 51 44 50 48 45 23 33 32 39 33 43 43 35 39 96 106 83 128 112 115 114 113 88 78 74 44 41 46 60 77 96 102
326 270 235 101 86 94 97 102 106 77 46 36 46 46 59 42 61 51 35 56 41 51 52 51 57 61 81 64 76 88 54 51 53 77 58 26 45 49 56 58 65 74 78 71
436 377 135 149 161 144 68 66 78 72 44 53 37 68 47 44 62 54 54 58 89 70 106 90 83 80 73 67 83 78 47 39 32 35 73 119 109 98 87 80 83 94 98 90
401 332 294 208 197 119 1 58 91 80 74 57 50 69 76 52 63 56 69 66 77 104 98 77 109 85 68 99 57 37 43 53 31 4 17 34 93 134 106 106 109 121 101 93
539 357 333 214 141 224 114 110 81 96 89 75 74 93 114 72 77 67 54 61 77 90 104 124 114 92 110 88 53 50 60 66 76 63 39 51 59 73 83 93 123 115 120 134
402 392 306 262 202 101 107 95 88 53 83 85 105 141 111 95 79 77 70 65 84 96 130 125 106 87 97 75 57 43 43 47 50 49 41 61 68 60 89 88 86 111 87 98
684 508 305 191 145 154 122 110 132 108 112 69 119 158 102 95 81 85 74 79 91 128 122 103 86 85 74 65 51 42 31 32 38 49 59 74 75 82 89 91 92 95 108 124
589 428 309 187 120 127 150 158 139 109 112 134 164 165 110 100 105 92 80 100 118 123 100 85 119 88 91 78 66 49 36 38 33 30 39 51 63 69 83 91 104 118 122 124
534 392 220 189 239 219 187 186 180 157 94 144 191 165 105 116 108 77 98 99 96 89 89 119 111 109 97 80 62 50 48 50 39 20 10 30 50 67 74 67 73 84 72 54
451 361 281 229 304 253 207 161 176 133 139 187 148 128 112 110 99 110 96 98 78 100 125 111 137 111 89 78 68 59 58 65 56 53 40 26 38 53 55 29 16 25 38 43
406 389 350 321 328 200 126 132 165 91 139 161 116 136 102 125 100 103 87 77 107 112 126 128 105 99 85 81 83 85 83 81 71 74 73 65 61 64 68 51 30 8 50 50

GFSNW_con_3kmhel_099.txt.gz
Helicity
58 65 55 44 38 47 68 34 45 75 60 88 97 82 99 83 22 -53 -41 3 20 38 49 -7 2 -2 17 87 44 41 26 12 47 32 37 49 55 43 67 173 203 159 130 114
94 60 49 44 36 53 56 57 61 62 63 83 79 85 84 85 51 -5 -41 -15 22 19 36 -7 -33 -41 65 69 14 57 56 52 67 47 46 71 54 44 69 57 86 114 83 104
90 42 53 43 22 7 57 61 48 57 53 82 110 90 86 107 16 -17 -47 -22 -13 -2 0 -31 -14 -35 14 57 2 19 46 50 39 40 43 40 49 18 95 71 73 69 14 110
78 51 55 40 26 43 53 49 30 67 60 52 105 84 80 83 45 -40 -55 -15 -20 0 -10 11 1 -16 -12 20 20 60 33 26 53 65 40 61 26 5 15 37 56 42 90 121
68 41 62 46 44 96 64 50 48 59 65 91 102 70 81 69 10 -31 -34 -19 -35 -12 -5 6 21 -7 -19 -2 25 60 21 42 57 56 68 56 35 16 41 51 51 66 45 62
128 166 54 55 55 84 48 42 48 73 45 64 78 75 93 54 -14 -72 -66 -52 -31 8 5 -10 5 -9 7 15 34 25 12 33 31 47 47 32 76 36 -6 8 33 17 29 20
121 85 49 50 36 68 50 30 65 45 40 54 63 82 49 33 -42 -42 -46 -26 -19 -6 -24 0 -5 -3 -3 24 43 46 25 38 41 33 49 23 33 36 51 29 40 31 22 38
143 132 63 20 21 24 63 44 47 32 42 63 65 69 33 16 -24 -23 -9 -12 -4 -29 -14 1 17 18 11 4 10 15 34 34 48 44 37 40 29 40 41 45 49 51 58 68
199 131 89 14 3 45 61 63 53 47 66 23 57 52 29 30 27 -1 -6 -8 0 -10 3 6 45 47 20 10 8 15 23 32 33 50 61 65 63 45 45 48 48 69 65 61
199 133 126 66 66 82 73 50 70 65 41 32 52 26 38 27 31 40 26 7 15 33 31 53 63 40 4 21 8 5 9 42 36 54 50 42 37 39 46 98 52 45 46 32
159 156 156 103 36 38 63 78 111 59 37 58 20 5 31 35 41 66 47 59 21 37 75 71 54 40 27 22 11 7 6 18 47 63 73 56 39 47 66 38 59 49 26 21
221 217 213 60 20 43 54 94 143 129 79 47 43 19 3 9 29 52 40 57 46 38 67 48 47 42 40 47 40 5 -1 17 25 43 35 40 56 43 51 45 41 50 38 17
328 268 180 48 50 85 48 94 107 140 124 65 40 20 -2 0 1 17 44 39 50 58 62 55 63 77 43 80 45 13 -3 26 27 58 101 92 93 69 63 44 31 37 42 35
355 270 167 59 47 58 80 124 109 83 46 21 18 -5 8 -8 4 8 17 53 41 41 49 56 77 109 48 56 30 0 11 2 42 79 111 72 105 83 53 45 27 50 72 58
413 207 105 63 56 86 172 189 143 86 13 21 51 33 9 -3 -1 6 12 25 50 50 47 61 65 47 49 29 17 37 24 26 41 43 74 76 103 70 44 49 47 40 38 64
255 170 130 64 33 72 142 83 92 94 54 39 37 21 28 8 5 10 13 19 31 31 37 23 6 18 36 53 52 47 30 25 47 56 67 66 40 54 60 40 42 54 72 62
235 184 147 88 107 129 107 57 58 82 64 39 51 33 35 31 24 9 17 -1 12 18 29 27 6 15 47 58 84 83 40 34 40 75 77 63 96 75 49 41 48 61 76 90
253 301 225 103 85 94 117 165 149 112 67 60 53 48 41 15 26 22 12 23 22 46 52 43 48 32 51 44 34 51 12 20 57 30 61 51 53 68 60 45 56 67 83 93
442 394 222 249 192 133 78 87 97 87 69 77 66 96 61 39 32 27 22 27 36 42 70 63 70 73 71 57 60 53 16 14 11 -3 30 48 69 101 137 100 110 106 101 115
495 506 413 240 187 43 95 101 95 113 118 88 97 91 87 56 50 30 45 32 36 48 51 57 72 51 32 59 69 61 29 25 30 24 44 65 85 88 96 100 112 145 149 141
595 421 307 195 141 177 95 90 63 65 70 105 120 123 142 73 70 60 33 36 43 51 55 65 55 50 74 80 68 63 51 49 54 57 47 41 43 67 88 132 124 119 128 108
437 349 264 285 268 155 118 88 62 31 44 100 137 205 162 123 78 62 47 56 53 62 81 68 53 53 71 82 70 69 59 56 54 59 53 39 58 62 74 104 98 85 86 114
566 433 302 153 131 125 112 93 96 78 54 88 166 235 163 124 75 81 75 73 64 79 64 66 55 78 82 75 82 79 69 60 54 52 55 48 48 60 77 84 84 81 80 96
409 271 191 98 103 82 87 67 66 83 90 166 228 249 171 133 126 92 94 95 85 68 72 58 59 83 95 86 87 77 65 59 54 46 45 34 31 44 59 84 87 97 97 91
244 153 111 112 139 130 126 134 143 133 136 229 257 222 142 162 137 91 95 111 97 62 62 70 83 106 118 99 82 64 56 56 58 68 61 47 33 22 26 27 27 49 59 53
187 158 155 143 215 204 187 182 176 157 171 215 194 213 198 165 125 117 95 133 85 74 64 75 130 104 96 96 81 62 57 55 65 76 77 68 59 56 59 50 27 18 20 22
190 208 255 215 259 230 177 140 160 169 221 259 225 224 182 155 130 102 91 82 91 79 76 78 92 93 83 79 79 68 61 67 81 86 88 81 71 70 67 62 68 55 44 42

GFSNW_con_3kmhel_102.txt.gz
Helicity
219 114 85 65 44 52 66 66 37 10 37 29 36 36 61 42 1 -26 -9 6 22 31 -11 -10 -5 -12 11 58 43 41 47 11 46 64 64 52 2 149 164 132 198 154 115 128
132 106 62 44 44 91 119 66 53 6 -45 21 33 21 39 28 14 -4 -5 -8 12 -1 -13 4 -15 -27 31 43 31 66 51 29 10 31 33 22 90 -6 95 115 132 142 131 120
171 98 70 35 31 12 118 73 39 25 18 13 67 35 34 43 -17 -11 -23 -26 -19 -16 -15 -24 -4 -3 17 41 13 18 38 35 -3 12 42 31 74 31 36 49 83 84 101 134
167 81 59 30 2 23 106 69 24 15 16 16 46 34 37 45 28 -29 -31 -24 -7 -9 -9 1 -10 -29 -20 16 19 56 40 32 18 35 52 41 33 2 1 56 26 38 83 174
137 114 38 38 -5 21 112 44 35 52 35 72 63 31 34 31 -15 -12 -16 6 -8 -7 3 3 1 -10 -15 -3 59 35 48 49 34 55 54 35 38 46 15 76 90 20 48 124
103 112 46 44 55 89 84 67 55 34 17 34 32 36 43 13 -20 -56 -37 -7 -4 6 10 -10 -14 -24 -14 -3 -8 19 26 43 28 40 63 60 64 30 29 63 38 51 61 78
104 105 39 58 22 96 35 66 57 32 25 14 28 36 17 15 -27 -5 -22 -21 -0 1 -11 -7 -22 -23 -17 -13 22 10 34 53 27 18 45 43 41 46 41 19 35 22 30 44
90 81 46 42 4 94 70 66 49 28 38 15 25 38 17 6 -32 -13 3 -9 -4 -6 -4 2 2 -14 -24 -8 6 3 32 36 35 31 35 35 42 67 48 53 70 77 38 55
121 161 134 74 -6 83 97 99 61 39 46 10 17 16 4 29 21 2 -6 -13 -3 -4 14 15 81 63 15 6 -19 7 17 23 40 43 51 56 42 45 49 58 42 70 63 60
95 143 137 63 10 63 91 87 73 51 37 68 11 -7 -1 4 3 21 18 15 13 17 49 65 95 59 -0 21 14 11 -13 -22 -29 -17 53 45 31 28 41 70 42 51 53 49
173 201 94 107 47 104 90 101 74 45 40 86 7 -29 -3 3 3 35 30 46 9 40 80 89 83 69 27 22 11 6 12 3 -12 -16 16 45 46 41 55 34 49 49 36 17
230 213 177 178 47 90 99 133 119 116 73 66 72 35 13 -25 -13 3 11 14 33 38 76 76 89 90 69 62 89 1 8 14 6 3 10 46 66 61 61 43 32 36 28 17
227 218 245 215 25 92 71 125 105 162 129 138 84 31 54 78 16 -9 2 1 16 15 44 69 74 99 66 125 60 22 -2 -15 -1 18 53 90 103 81 83 62 49 48 42 18
198 262 271 163 54 74 107 137 115 96 68 28 26 18 25 91 36 -9 -24 22 12 24 30 31 63 84 61 75 30 20 24 -18 10 26 35 43 73 93 83 73 37 42 60 56
251 282 267 50 54 97 184 174 147 102 37 14 55 28 47 33 6 7 6 15 9 5 -2 9 35 28 44 28 27 25 31 12 9 13 18 18 42 54 111 68 55 52 42 66
358 335 219 49 41 159 162 140 109 109 66 42 36 14 16 25 19 19 13 6 -4 -11 -0 5 -1 -2 23 51 41 36 34 10 -12 -6 -22 -14 45 53 43 50 50 51 49 53
400 250 186 186 154 151 135 89 98 108 81 43 48 37 26 15 16 3 9 -0 -9 -7 -5 -2 11 13 26 59 56 38 48 23 11 -11 -21 -6 7 48 54 54 62 59 71 74
333 235 236 171 106 99 128 211 187 151 86 58 40 34 33 1 6 8 -11 -2 -0 -10 -0 1 29 25 33 43 22 33 26 31 34 4 -7 3 -1 9 72 75 80 105 81 82
342 267 303 240 204 160 123 121 152 136 91 58 41 77 59 43 27 9 -2 -2 23 -12 11 4 43 30 29 48 58 50 37 35 31 15 11 17 9 7 20 61 54 69 104 115
298 421 367 242 263 113 139 151 121 130 118 80 63 76 64 58 66 40 34 21 43 51 18 10 27 -8 13 39 44 59 63 45 35 35 40 63 55 45 30 32 96 121 140 150
470 441 321 264 203 202 181 132 86 77 65 62 95 103 127 55 94 85 40 54 58 73 37 49 37 14 22 64 80 63 56 45 54 59 54 60 51 29 38 53 70 106 120 105
340 333 318 365 290 193 155 117 98 48 43 79 136 193 144 121 102 90 52 80 84 80 56 57 51 22 46 89 89 77 59 63 65 64 62 57 55 42 29 54 64 57 62 77
592 417 260 164 148 120 102 108 84 64 53 81 147 246 170 155 114 101 94 101 97 80 87 79 43 35 62 87 100 85 69 72 69 65 63 59 53 48 35 43 53 51 60 68
235 173 135 105 114 108 71 94 94 75 93 153 226 270 176 140 149 111 148 104 114 116 104 81 43 30 70 97 92 100 83 65 59 67 67 60 60 50 40 44 49 49 54 65
186 161 87 93 97 76 123 91 109 135 105 206 235 228 145 194 186 136 146 118 121 81 61 68 51 63 120 120 110 97 82 63 59 64 76 78 80 74 58 45 34 26 28 35
180 133 118 97 156 141 115 109 135 130 126 182 224 217 227 219 181 182 143 157 109 82 52 69 100 107 113 121 99 89 81 63 56 71 87 88 90 89 77 73 69 54 42 32
147 140 162 101 131 173 163 116 99 91 135 203 211 220 208 192 186 160 136 127 89 69 63 70 65 95 85 92 97 77 65 66 64 72 72 83 91 97 99 81 81 78 59 55

GFSNW_con_3kmhel_105.txt.gz
Helicity
119 192 240 140 97 97 177 172 103 83 76 -4 -24 26 68 46 13 -20 -8 2 20 19 4 -0 10 -9 23 44 47 36 35 20 80 71 69 49 77 130 95 71 85 129 70 132
135 373 77 148 154 178 256 191 118 88 37 15 9 37 56 12 10 -11 -0 4 -2 -5 -1 4 -8 8 42 50 55 41 35 24 7 49 71 37 117 90 101 75 84 105 72 99
290 320 49 110 147 152 219 135 93 85 4 -11 2 52 41 25 -21 -21 -22 -5 -11 -1 12 -4 16 11 23 33 37 44 48 14 8 32 52 21 34 19 57 59 85 45 77 101
462 17 123 107 71 112 199 185 41 26 31 4 15 47 44 46 30 -29 -31 -12 -2 16 13 20 6 14 4 -4 49 24 36 15 23 38 73 44 71 22 11 42 42 73 24 112
420 86 86 80 15 144 185 114 38 71 64 77 81 22 17 19 17 -2 -0 18 -10 -10 2 9 16 3 -19 -10 34 23 30 24 63 24 59 25 48 50 12 50 60 43 46 107
225 135 98 24 58 167 180 93 64 40 69 50 38 23 20 -9 3 -38 -12 6 -6 2 -4 -13 -13 -11 -6 6 -7 2 15 41 38 34 83 51 76 86 38 54 44 34 43 53
78 106 82 80 11 104 107 62 53 32 39 29 19 15 -13 1 -13 8 -6 -15 -5 -3 -5 -14 -22 -22 -8 3 -1 9 -0 39 35 50 57 42 29 43 27 57 75 44 46 53
110 43 54 64 -8 51 127 65 45 27 58 35 55 16 -13 -11 -32 -8 -7 -13 -4 -0 -4 6 3 -11 -24 -17 2 11 23 -16 -26 7 20 14 25 49 37 48 53 46 18 32
225 37 116 73 46 54 99 90 60 27 48 34 10 -2 -13 8 4 4 -10 -18 -8 -2 8 23 88 89 25 12 -15 -10 -13 -19 -34 -36 -29 34 31 31 16 25 33 48 45 47
43 65 121 81 44 77 90 77 78 39 36 88 34 -17 -16 -23 -13 1 8 15 -1 -9 42 62 93 90 15 67 23 1 -16 -18 -24 -25 -38 31 43 34 30 47 24 39 37 27
106 77 73 100 -11 56 102 92 102 37 52 137 65 63 -12 -2 -15 20 21 27 -3 22 48 54 66 90 66 62 34 21 16 9 -14 -22 -31 -43 54 36 50 25 35 36 32 23
150 127 117 124 98 24 63 103 112 109 99 127 106 88 106 59 -5 -18 7 3 24 26 45 42 58 86 85 109 131 27 28 20 8 4 -7 14 46 41 37 35 35 48 33 21
193 229 209 129 63 73 56 136 111 161 172 185 118 131 147 107 81 17 -6 2 8 6 21 49 46 60 96 137 118 78 42 15 6 -2 6 25 35 47 72 59 46 45 44 30
231 115 81 71 137 74 103 146 109 87 87 70 100 118 101 120 79 44 -41 -12 2 20 30 20 35 37 35 65 67 72 63 23 34 5 15 -0 -0 2 51 62 60 51 48 43
304 305 227 134 91 109 150 153 109 74 53 68 114 103 127 114 81 51 32 13 9 9 -5 -6 17 9 19 21 34 36 59 92 91 44 25 26 -3 -35 10 65 76 57 37 43
356 407 330 110 4 100 129 141 96 88 52 80 83 87 86 100 73 69 61 26 3 -22 -7 -3 -6 -8 11 24 19 27 59 61 63 71 32 16 -8 -19 -39 -34 51 60 64 55
379 340 178 176 130 133 113 98 102 91 75 70 70 71 82 64 51 20 26 23 -12 -20 -17 -7 7 12 16 24 22 29 60 53 50 35 31 37 27 23 -15 -28 -11 53 71 90
416 306 290 163 110 83 115 205 171 121 84 81 60 51 46 41 10 21 9 5 -8 -20 -8 -3 23 18 19 20 23 34 50 42 26 22 19 28 14 11 2 -14 -23 -14 51 89
351 239 262 247 207 168 134 142 160 138 89 68 58 40 36 46 33 22 23 16 41 -13 8 20 37 48 30 27 47 60 54 47 35 32 18 24 28 21 27 18 15 14 19 60
310 420 345 227 230 123 137 152 137 142 135 97 54 65 49 70 62 52 58 37 55 55 43 28 46 24 -0 15 37 57 65 57 54 29 21 45 43 47 38 35 41 48 67 79
457 375 288 242 190 199 180 127 113 124 105 88 80 81 82 38 97 82 54 58 72 99 68 109 77 46 10 75 85 82 82 58 43 39 41 41 42 44 48 44 48 61 67 75
312 244 256 310 285 168 118 118 111 74 51 67 119 165 125 107 82 92 52 86 98 106 72 108 91 63 39 96 115 101 81 65 56 42 40 41 42 54 50 48 44 44 61 66
456 416 251 157 156 132 74 75 101 88 39 97 171 253 183 151 101 94 80 111 120 96 134 113 78 67 56 94 124 112 83 72 71 64 52 54 54 59 55 53 60 60 60 65
299 251 188 133 105 98 80 92 90 84 99 145 224 235 157 166 169 101 144 111 119 147 157 90 68 31 64 91 106 135 103 90 86 72 68 69 71 70 70 66 71 64 59 53
278 206 181 149 113 106 110 83 124 147 103 228 248 223 130 188 194 136 141 127 136 101 78 57 51 52 110 104 103 113 117 115 96 77 75 75 88 93 91 87 79 63 50 48
240 171 155 150 146 114 135 150 143 159 118 175 207 176 173 195 204 198 148 168 118 95 70 65 78 83 96 104 100 109 121 110 106 87 71 81 96 98 100 104 89 80 67 55
133 137 112 126 146 140 99 113 128 75 86 168 175 179 159 179 188 186 160 127 103 63 58 94 71 79 83 97 101 109 110 113 101 74 66 69 75 96 108 99 105 100 84 80

GFSNW_con_3kmhel_108.txt.gz
Helicity
-1 -21 -20 110 237 178 201 205 67 101 101 23 -19 4 -5 12 18 -4 5 13 38 34 5 11 3 2 46 33 66 39 3 20 -38 -14 26 35 47 44 141 91 94 120 109 172
-9 -12 10 114 98 190 257 209 114 102 93 18 36 20 3 1 4 1 15 15 8 10 -3 9 -3 9 39 37 17 25 37 12 38 27 14 28 39 68 64 45 35 103 103 101
-28 -8 93 193 195 175 213 152 59 86 24 -8 2 39 30 17 -22 -21 -18 2 -3 20 -0 -19 18 -9 -1 12 21 18 8 18 13 29 6 10 31 40 35 62 48 30 29 76
-96 134 182 118 61 87 168 116 32 29 30 30 19 29 30 34 17 -30 -23 2 6 29 34 13 16 15 6 -11 51 24 12 14 38 64 84 29 8 -1 18 34 24 46 -1 49
75 248 35 52 -3 113 99 43 15 63 20 35 83 42 43 33 4 4 9 14 11 9 24 33 36 11 -18 12 35 15 33 28 37 34 43 40 27 24 -2 17 36 64 68 83
135 196 145 34 40 99 97 89 91 30 75 72 67 40 34 10 -14 -21 -16 2 5 -0 5 -3 13 14 21 5 -1 -10 1 7 -6 4 54 20 50 66 41 45 61 32 70 72
268 139 55 9 -3 55 76 81 46 24 40 56 26 22 49 14 -9 -4 -15 -27 4 -5 -14 -10 -7 4 7 10 5 12 2 -7 -3 -3 12 -9 -6 26 28 68 82 67 48 34
270 68 89 -6 -2 101 65 94 36 10 44 53 56 46 49 60 35 1 -9 -24 -14 -5 -9 7 28 11 10 15 12 10 14 -0 -27 -37 -28 7 23 30 26 48 64 51 30 40
270 245 88 88 39 66 74 94 70 8 33 56 33 80 44 45 24 22 -10 -16 -11 -13 2 38 90 119 86 91 31 -0 -3 -14 -17 -22 -49 -54 28 19 4 16 33 26 34 40
192 234 63 47 37 20 94 94 76 35 26 99 78 45 12 7 21 4 10 11 -2 -20 46 58 83 82 53 133 152 76 19 -7 -16 -24 -34 -31 29 26 13 32 23 39 31 32
208 85 87 78 33 19 71 122 103 29 41 124 73 76 47 46 16 18 25 16 2 12 40 47 58 65 77 91 95 92 103 74 41 4 -5 -15 -25 32 44 25 37 35 32 26
386 75 84 2 60 70 94 79 135 119 113 115 111 107 103 82 37 -18 21 8 26 26 31 30 43 58 52 108 105 60 93 63 62 23 14 -2 -1 -15 29 26 25 40 36 37
118 125 137 41 78 103 97 99 87 128 161 189 114 147 162 128 91 33 -11 7 4 1 10 29 27 45 69 76 77 91 73 38 60 43 13 21 11 -7 -17 20 36 33 32 30
172 174 125 156 92 65 62 99 97 82 85 65 99 115 95 140 89 33 6 -12 -4 11 10 14 29 34 28 48 34 62 71 55 91 50 42 44 30 20 7 -19 -17 41 42 40
227 197 167 153 98 73 103 123 99 71 34 56 110 102 127 118 85 76 58 20 5 12 6 -2 24 15 31 29 24 43 80 87 110 58 35 54 58 40 4 -6 -13 -20 16 48
311 290 268 80 76 88 108 140 71 64 41 66 81 86 94 111 100 112 92 64 11 -13 -1 3 2 8 19 37 28 16 45 48 49 55 45 53 45 43 11 5 -6 -34 -30 -12
341 283 237 165 136 128 106 97 77 74 58 62 62 79 93 102 90 91 92 79 -2 -13 -3 6 14 14 20 32 27 5 45 52 46 47 55 46 44 48 27 23 17 3 -11 -22
333 339 295 169 111 46 84 135 135 97 74 64 55 57 85 88 59 35 65 38 18 -1 2 5 30 26 31 37 18 12 53 55 37 31 28 37 38 29 29 27 28 30 25 19
327 387 334 289 145 105 90 94 135 103 72 67 58 40 41 92 76 55 64 46 48 6 33 33 33 57 56 50 58 76 85 63 51 49 29 32 34 35 39 38 38 32 31 60
326 297 209 128 148 96 105 131 115 121 105 78 60 80 63 70 101 89 77 69 70 61 50 49 70 32 15 39 43 72 109 90 106 84 46 53 48 45 46 46 58 68 75 89
345 255 204 202 193 156 152 123 108 109 71 54 64 90 61 66 108 102 64 66 74 87 60 113 93 44 38 66 87 91 123 113 82 62 64 61 48 40 42 47 63 61 67 72
184 188 229 246 180 143 112 120 118 81 47 67 115 165 128 101 102 107 69 89 85 86 87 126 100 48 53 94 135 139 146 128 111 88 78 63 55 56 57 56 65 71 74 81
306 342 261 189 118 145 100 117 140 78 34 90 141 210 176 154 122 100 83 108 116 102 124 137 91 71 76 88 144 148 129 122 120 109 85 78 76 73 72 68 73 76 78 88
289 268 181 136 117 109 85 100 98 85 83 115 196 210 140 161 146 94 128 117 127 143 152 123 72 39 71 87 109 147 118 115 119 109 90 85 84 85 91 92 85 82 78 81
217 206 136 137 109 114 98 88 98 164 101 200 203 170 101 159 167 131 149 134 123 98 68 59 43 32 98 102 95 99 114 115 125 124 117 92 81 91 97 102 98 95 87 86
206 161 127 141 149 108 118 113 93 151 112 163 189 157 144 168 179 171 133 167 121 91 68 55 57 83 91 90 85 92 107 123 135 131 108 84 88 96 98 106 99 101 105 90
156 155 155 114 171 139 103 108 108 93 142 208 194 182 152 151 156 135 136 136 101 71 51 72 86 82 64 86 105 109 113 124 123 116 97 81 71 88 106 98 87 94 95 90

GFSNW_con_3kmhel_111.txt.gz
Helicity
35 26 3 33 22 89 255 145 -19 92 120 49 28 47 30 -6 12 -12 -5 8 28 21 15 -17 0 27 41 32 35 39 45 20 7 33 99 69 59 77 54 33 57 91 122 148
28 27 23 23 -30 69 218 115 187 117 100 27 42 48 24 4 10 -6 0 10 5 -12 1 11 -8 27 37 34 18 23 64 15 -53 -15 56 62 49 118 59 27 39 94 56 89
9 13 45 16 7 54 175 101 67 106 35 9 31 66 49 24 5 -10 -20 -1 -10 9 7 -20 16 -12 15 25 27 5 -3 25 25 -29 -14 59 -7 83 85 26 79 85 86 54
-16 11 -16 43 161 21 119 100 38 22 64 20 31 24 25 31 14 -16 -13 -7 3 22 27 12 16 18 4 24 27 0 -9 33 30 12 35 59 36 30 48 26 17 10 -1 64
-3 26 13 26 192 253 151 71 42 62 21 60 94 53 46 30 13 -2 12 14 5 5 28 40 45 21 2 23 30 10 18 17 0 18 -18 0 24 44 45 35 46 45 45 82
-13 65 151 223 -19 116 138 80 95 35 24 53 114 71 36 15 -13 3 -11 0 16 20 18 4 11 4 6 9 5 0 3 1 3 14 6 24 36 71 34 25 35 18 58 63
19 117 241 330 40 37 99 74 62 28 33 74 64 35 59 19 11 2 -5 -18 12 3 -18 -1 2 1 0 -11 -13 0 2 -1 -6 -2 -12 -9 13 8 11 58 64 60 42 33
173 245 91 105 168 103 114 85 69 23 38 63 87 54 52 76 50 46 7 -13 -8 -2 8 37 54 46 37 -3 -28 -10 3 11 -14 -21 -17 -9 -16 17 6 13 59 64 35 38
263 68 96 97 95 119 135 114 77 20 -5 73 43 96 71 78 53 56 11 0 3 -6 3 45 91 105 93 107 49 -18 -14 -16 -13 1 -18 -26 -11 15 -2 -7 34 45 51 55
246 150 54 39 103 140 100 100 84 7 3 87 98 76 34 22 34 21 17 19 4 -17 45 55 68 88 73 130 140 98 50 32 57 15 -9 -15 -2 -2 13 -35 -4 24 25 23
204 221 105 18 37 102 121 108 86 20 27 112 84 71 29 48 27 25 32 13 10 19 51 54 62 69 94 91 77 80 99 108 97 63 45 27 -5 -9 -15 -9 35 33 34 30
115 166 28 5 17 106 160 95 123 95 54 97 87 106 91 71 36 -1 27 19 31 29 27 40 46 64 79 90 65 33 74 59 63 56 48 1 3 7 1 -6 -11 42 42 37
171 102 50 108 24 88 123 92 61 95 103 135 107 146 159 108 69 42 12 21 7 9 7 28 37 55 62 81 74 65 44 17 35 40 17 2 10 12 1 -5 -11 -15 7 33
200 106 63 125 85 77 93 81 66 53 59 53 90 116 96 139 79 26 15 -14 -10 7 12 19 31 39 31 58 45 62 55 51 50 25 15 9 5 10 13 11 -13 -20 -17 -5
120 133 124 125 122 92 106 88 87 64 27 46 91 106 124 117 72 73 75 42 5 20 6 6 31 24 36 28 30 52 87 75 76 33 49 43 33 32 12 13 8 -12 -15 -2
205 179 144 137 104 84 99 84 82 64 10 39 62 75 89 116 104 95 97 76 51 -1 -5 4 5 11 19 44 44 17 42 57 49 36 69 47 61 51 21 15 7 -1 -1 -2
278 301 205 173 165 129 102 89 67 70 36 52 45 63 84 93 88 82 86 76 49 -4 -15 -7 13 17 26 36 46 24 45 61 69 70 100 60 50 44 35 27 20 20 21 23
293 368 253 199 109 55 95 114 104 91 35 56 53 54 76 79 71 57 68 47 44 44 2 -8 18 20 23 35 32 37 59 79 76 77 47 54 72 56 46 40 43 45 38 36
332 355 290 274 197 135 102 52 101 84 47 41 54 44 39 93 83 61 62 47 30 34 23 25 26 36 43 45 61 83 87 78 84 86 78 73 64 60 62 64 68 68 65 61
385 304 314 194 234 116 75 86 98 94 74 45 48 70 56 81 107 65 58 50 45 23 33 58 54 26 -4 28 42 83 106 90 178 152 85 71 65 71 82 72 78 81 85 81
377 216 202 280 192 156 123 112 95 91 51 35 46 79 67 62 88 75 45 39 41 31 33 79 55 46 43 45 121 85 135 130 113 94 100 102 97 103 92 79 74 77 75 67
168 198 198 305 216 182 116 108 109 68 44 57 86 134 116 89 93 89 68 69 57 39 68 76 62 43 48 68 127 125 160 164 131 107 126 121 111 96 85 78 67 70 74 73
290 258 172 209 137 122 90 95 116 68 39 61 128 211 174 141 109 95 73 72 94 87 77 79 63 56 63 94 139 163 160 150 132 121 124 123 108 99 85 85 80 79 80 79
246 201 178 115 92 102 53 76 54 53 51 92 201 209 147 150 117 74 86 93 106 109 94 87 58 41 70 89 109 185 150 128 122 118 122 121 110 95 95 95 102 95 81 76
197 169 117 75 68 50 69 45 81 104 72 157 172 177 103 147 113 76 111 102 79 68 57 60 42 39 67 84 104 128 132 115 106 106 112 106 105 103 90 95 105 110 104 87
189 135 109 95 97 58 66 64 64 141 67 135 173 138 124 124 114 112 105 135 93 101 70 53 58 54 53 92 86 90 108 106 97 97 101 98 95 94 77 95 107 110 111 108
126 105 113 82 112 96 84 89 73 108 153 189 169 153 141 127 140 137 119 117 108 66 61 66 53 61 74 87 91 100 109 102 86 89 94 86 81 87 103 97 80 97 101 105

GFSNW_con_3kmhel_117.txt.gz
Helicity
13 28 26 25 26 49 12 65 73 64 65 2 11 -9 -10 -16 -40 -27 -34 -31 -30 -33 -2 12 20 30 41 -9 34 65 58 80 107 105 129 175 196 163 88 69 79 110 109 154
16 30 23 28 6 3 130 92 90 90 72 3 -15 -4 -14 -15 -30 -27 -33 -18 -17 -26 -15 -8 15 32 35 32 43 35 34 39 124 101 91 101 187 89 86 100 78 56 78 55
23 26 25 -0 -32 -1 158 47 -5 47 47 36 41 -9 -17 -27 -15 -34 -33 -25 -17 1 -14 -37 5 11 22 24 48 51 53 51 97 68 65 132 119 -0 -1 45 93 28 33 19
49 33 16 4 -32 -4 162 53 -0 56 64 1 39 22 -6 -2 -18 -17 -10 -6 2 -7 2 6 7 5 21 43 56 58 56 53 39 43 50 49 36 26 53 80 29 45 13 45
63 37 22 4 -28 -6 65 31 22 55 38 32 43 20 20 31 -9 2 1 13 10 1 3 -7 20 19 18 22 46 36 38 40 31 37 30 35 27 66 26 35 12 -17 -1 14
70 4 30 -3 -19 32 57 35 40 73 96 53 55 48 11 24 -7 -7 3 7 10 7 -7 -7 -12 -9 3 8 -6 5 14 23 38 21 51 77 4 46 14 13 20 20 17 9
39 3 -3 -9 -17 28 77 26 38 99 96 72 56 15 1 6 5 -0 -0 10 18 -12 -4 2 6 -2 -0 11 -2 3 3 8 14 1 47 26 6 19 37 1 14 24 20 14
22 14 -3 -5 -9 34 57 43 92 81 73 36 30 8 22 -5 -10 -13 -5 -11 -3 1 20 56 63 55 53 10 -9 -0 5 16 4 11 -12 14 25 -11 -6 20 10 22 17 21
-7 3 6 7 22 -21 51 -4 56 77 35 40 10 6 10 24 14 18 7 4 9 18 37 70 122 138 79 84 39 -1 4 13 12 -12 8 18 -17 -1 -1 37 2 -0 11 19
27 34 15 23 -4 49 44 18 68 68 25 28 52 33 33 30 33 23 23 38 31 19 59 84 96 115 73 129 110 48 26 2 25 21 47 17 -8 -10 -10 50 1 -6 -2 11
108 73 29 8 29 8 44 36 54 52 35 53 48 65 31 27 39 49 27 46 45 56 77 78 73 106 88 113 86 78 82 84 76 61 72 79 -9 10 26 -12 -8 -11 -20 -30
6 -0 12 60 62 49 43 27 42 50 38 38 18 35 52 40 33 32 46 38 48 44 60 62 62 91 83 86 95 74 100 67 57 49 44 -11 -15 -29 -12 -7 -9 -12 -18 -23
41 117 173 114 71 41 49 50 -1 15 44 33 42 55 72 53 41 36 55 28 18 29 25 36 31 64 41 67 75 72 73 50 67 71 51 35 7 -6 -9 -11 -17 -16 -20 -19
-30 117 130 141 99 60 58 40 18 11 -8 35 31 67 40 77 50 31 18 14 5 13 35 32 27 35 27 34 29 51 39 61 72 49 46 37 35 22 16 10 5 -0 -5 -8
-62 73 115 127 93 86 75 53 41 14 23 43 45 52 52 55 35 21 9 11 25 25 21 22 18 14 30 22 25 56 68 46 51 25 64 49 72 85 54 52 36 8 7 3
-103 14 95 105 101 146 111 54 32 19 -12 18 41 37 47 59 52 40 40 37 28 20 11 -3 2 5 21 22 22 11 62 39 11 -11 56 38 68 92 82 71 51 33 25 21
15 69 92 119 139 134 101 60 40 33 5 22 33 32 41 64 56 35 32 35 29 32 -22 -8 -1 5 18 20 39 24 53 45 34 61 102 60 75 48 84 70 57 50 47 44
158 172 160 146 92 59 87 71 58 54 11 24 42 47 34 57 43 34 38 31 27 23 -0 -7 1 12 20 12 31 25 64 65 50 53 13 13 72 80 84 72 64 57 56 64
147 156 144 188 152 127 91 53 67 49 47 34 39 34 39 57 54 54 36 41 13 30 -6 -2 9 21 30 24 34 76 94 77 77 77 31 53 69 74 68 63 58 54 61 70
158 177 225 86 106 121 78 37 56 35 54 54 45 48 50 53 63 54 39 37 37 14 9 25 7 27 16 16 24 51 81 70 120 126 62 53 54 56 60 57 61 68 81 96
265 199 157 141 157 119 96 76 71 69 40 32 60 81 44 42 80 66 51 31 30 27 31 -31 -21 2 48 53 110 79 91 81 85 56 53 56 55 71 71 71 76 83 92 93
207 183 154 143 132 110 108 100 121 85 73 64 76 104 120 63 75 82 60 51 43 21 51 32 16 17 52 52 110 129 124 119 108 76 84 75 65 75 85 90 95 98 106 115
299 272 190 116 104 132 160 127 197 159 79 74 108 151 143 109 83 86 70 55 38 62 36 36 37 68 69 67 102 142 133 146 142 135 128 118 111 102 105 111 110 110 115 128
266 218 191 164 134 131 168 144 148 179 130 83 134 183 155 153 113 94 77 81 59 23 32 41 49 62 84 79 99 155 170 167 159 163 154 139 126 118 115 107 109 109 116 143
227 187 210 127 164 131 112 151 147 189 166 141 160 181 155 158 155 106 128 79 55 28 41 50 59 66 85 92 112 137 161 189 181 164 147 141 138 130 126 110 103 107 123 132
255 231 203 147 154 135 108 98 152 122 122 234 202 135 160 151 177 147 123 135 60 57 53 67 86 81 71 83 83 89 151 177 173 155 140 130 126 127 115 102 97 104 115 114
249 158 154 146 123 102 127 107 109 149 201 274 246 142 151 173 163 172 164 123 100 80 80 84 85 85 83 108 120 131 139 141 143 142 125 126 126 119 107 95 97 104 113 107

GFSNW_con_3kmhel_120.txt.gz
Helicity
33 25 28 15 -2 -12 64 85 57 54 46 -6 13 1 -11 5 4 23 -10 -15 -47 -20 8 35 48 62 32 -23 20 44 73 69 119 107 110 189 210 193 121 123 137 152 209 137
30 26 17 -0 -12 12 50 81 81 39 46 -4 25 -11 -1 14 4 5 5 -26 -34 -10 -0 16 19 44 24 -15 -3 21 53 51 81 90 125 135 187 87 61 80 79 83 166 140
21 22 1 -26 -25 7 62 65 46 53 39 73 56 -0 8 -6 16 -22 -14 -24 -11 -25 -22 -2 13 22 18 15 46 56 87 126 100 130 96 121 113 83 83 51 10 30 60 71
28 19 -9 -26 -37 15 82 64 45 54 53 43 63 14 8 4 5 -1 -5 -9 -16 -14 -18 -0 5 20 50 51 82 85 55 75 57 64 33 27 110 98 95 50 18 49 3 57
28 17 -8 -16 -35 7 95 56 52 56 102 79 50 18 28 22 5 11 4 -1 1 4 -9 13 18 26 41 35 76 50 84 42 48 60 67 15 68 135 46 52 69 -2 12 16
26 12 -0 -6 -8 68 70 51 26 92 102 45 32 34 11 16 2 -5 -7 3 10 16 -7 -3 -2 4 14 23 27 49 32 47 56 78 103 67 29 67 19 30 57 32 38 11
17 11 -8 -6 17 68 86 47 106 154 90 48 26 27 9 1 -6 -3 12 18 12 6 16 16 28 31 35 33 2 12 30 39 33 59 69 46 14 17 32 8 48 6 -18 -17
14 12 14 22 28 31 57 50 89 97 71 33 11 25 20 -2 -5 6 -0 4 29 4 29 67 77 63 24 -1 11 -1 -3 13 18 17 24 8 13 1 -0 16 29 26 -4 -14
6 4 8 5 7 28 10 23 67 76 34 55 54 29 18 32 18 21 13 18 20 27 56 81 121 143 86 80 22 17 14 24 -2 -7 2 20 36 17 12 40 -11 -32 -15 -5
-3 -18 -1 22 32 36 19 27 58 66 31 28 74 40 50 37 39 23 26 42 41 33 77 107 120 128 84 146 141 90 42 22 46 16 22 -4 -8 2 22 3 -29 3 12 -4
4 5 19 47 20 56 60 49 65 62 66 35 52 58 48 47 45 44 39 45 42 46 71 76 84 109 96 111 92 97 116 158 154 115 122 107 -20 -1 23 15 -3 -18 -6 -4
40 34 54 53 33 28 67 40 58 57 48 48 20 15 24 23 28 40 37 49 55 39 59 62 78 102 89 77 148 63 114 94 119 116 131 20 1 -15 7 15 17 13 5 -3
-17 40 39 44 12 32 50 34 42 31 36 36 38 22 35 22 12 20 39 31 25 32 28 51 49 70 40 90 107 81 63 62 93 102 94 90 64 36 34 15 21 13 11 11
83 32 -24 -15 15 25 28 52 16 7 34 39 28 25 16 61 20 5 8 18 22 29 34 43 42 50 35 52 61 83 69 68 93 58 70 65 75 75 74 62 52 48 26 21
140 126 73 39 18 39 60 42 10 -2 20 47 25 19 23 44 24 3 3 12 21 24 27 33 39 29 29 44 38 71 74 61 63 56 99 51 63 87 90 78 69 54 56 54
106 143 111 91 59 32 47 47 25 22 9 29 30 25 27 44 41 40 30 19 9 10 8 17 13 14 25 28 42 23 89 16 -19 3 32 5 71 98 79 78 84 65 51 47
61 108 100 100 89 60 59 39 22 42 12 35 45 31 31 47 46 36 30 26 23 -7 -13 10 14 9 13 33 54 27 67 52 41 89 144 66 81 34 76 81 72 67 64 64
65 108 99 82 39 48 78 49 51 42 28 36 58 54 42 56 46 41 40 29 26 20 6 4 9 5 23 19 27 13 51 93 69 65 19 6 49 80 95 92 78 58 48 58
66 40 37 80 104 132 115 67 57 36 41 50 56 61 38 45 73 66 53 50 20 32 15 11 12 15 37 37 36 85 75 99 82 106 68 78 91 79 84 82 72 54 50 68
160 212 159 86 90 125 112 77 72 62 65 67 56 81 71 46 58 77 69 50 40 19 24 58 -5 33 47 34 22 61 96 97 139 187 89 83 76 85 78 66 66 67 78 100
311 274 250 159 110 109 86 92 108 110 73 48 71 117 95 54 78 87 76 57 53 36 25 52 -7 -21 -7 24 99 67 110 98 105 108 100 104 88 102 99 92 99 106 106 106
228 225 186 144 123 112 125 122 161 132 95 101 98 123 157 107 82 105 93 95 89 53 54 45 9 -0 37 51 74 133 146 124 127 100 109 111 105 105 119 124 126 124 128 140
296 304 272 158 158 181 147 158 204 190 128 74 148 162 181 161 117 118 108 116 93 101 67 33 46 47 60 63 76 146 156 166 176 160 148 160 170 166 158 164 139 132 134 131
249 238 283 268 238 213 214 162 117 136 107 142 153 229 157 178 161 127 132 124 145 103 68 42 41 43 71 74 82 140 175 187 209 187 179 185 188 186 170 153 140 144 134 136
245 270 284 254 261 271 121 103 114 126 92 168 187 182 166 185 193 173 218 191 151 96 58 47 71 69 94 102 101 124 176 207 199 187 193 184 179 172 168 151 141 145 141 134
295 264 416 304 254 253 250 161 116 106 130 162 203 186 213 199 228 244 182 237 172 121 85 76 81 74 83 91 100 121 156 190 199 192 195 193 177 165 146 143 135 127 123 120
214 423 287 212 251 187 178 185 168 179 246 239 204 226 242 263 223 331 297 289 216 171 145 114 80 85 75 93 116 130 152 175 189 193 175 171 166 165 165 146 117 108 102 102

GFSNW_con_3kmhel_123.txt.gz
Helicity
31 25 26 17 3 11 84 111 52 33 20 25 38 28 23 26 32 19 23 45 21 20 22 25 23 19 26 31 25 34 49 94 137 148 179 184 159 143 136 77 151 125 197 189
28 25 28 30 22 41 65 83 44 34 48 28 41 42 25 19 33 27 22 13 24 33 21 26 14 41 12 21 35 44 70 112 137 117 97 112 122 106 60 58 101 167 223 246
28 21 35 30 24 28 52 59 51 52 42 60 71 30 43 39 20 13 30 23 7 11 6 17 10 16 34 68 82 119 115 150 113 99 72 85 72 94 124 67 100 157 151 179
27 24 32 27 37 35 58 57 80 59 46 44 61 35 43 42 21 19 23 19 6 7 -19 9 34 40 53 63 81 70 88 82 25 45 50 40 84 73 90 68 81 94 132 132
32 35 22 35 19 56 42 63 72 95 72 36 37 38 55 44 23 20 36 17 8 5 3 22 23 48 52 62 77 40 36 23 30 64 46 -12 33 54 78 64 58 59 97 90
32 56 50 7 28 74 58 45 81 80 50 33 49 72 50 22 18 33 16 23 12 -7 14 33 40 32 37 52 50 67 42 42 31 88 76 44 42 39 18 55 42 42 65 113
44 64 63 52 47 47 69 86 62 37 51 46 67 36 47 16 28 43 19 2 15 27 30 21 32 31 43 46 43 40 54 46 39 57 30 39 23 22 14 18 50 56 69 111
27 49 67 75 56 51 65 69 58 28 48 49 43 17 39 24 27 35 28 28 30 28 20 30 22 -8 -13 7 29 32 23 26 34 21 21 2 6 19 27 26 54 75 60 57
26 41 48 38 37 29 48 51 71 35 38 44 56 37 45 68 63 51 45 34 20 15 53 61 69 80 41 -4 -27 8 -2 -8 -3 17 20 40 21 12 2 18 -22 34 39 47
31 29 26 28 23 30 8 35 28 29 29 37 31 17 42 41 44 59 61 57 43 42 60 80 74 74 56 61 57 23 4 -2 12 -6 -9 21 14 9 -0 20 34 18 14 18
31 15 14 11 15 16 9 46 49 41 43 47 29 15 18 30 31 49 59 51 52 59 67 87 96 100 91 51 45 45 72 73 66 27 35 64 -8 4 51 38 -6 5 -3 3
26 5 8 -3 12 25 17 30 68 46 34 52 36 17 7 19 32 35 40 60 66 72 71 74 78 82 73 99 148 36 84 75 71 93 62 -4 -9 -2 16 14 13 24 22 22
34 11 -7 -12 -2 8 14 23 46 41 42 41 15 17 10 10 16 21 37 47 45 46 54 64 73 97 76 106 117 76 53 46 61 49 48 38 40 16 18 33 46 32 27 31
2 -3 -24 -42 -50 -31 14 26 43 38 50 19 28 15 5 31 18 20 20 24 23 37 43 53 63 75 60 92 90 89 81 65 60 19 -9 18 28 41 60 60 60 68 55 62
54 16 -8 -13 -24 15 37 20 19 3 38 28 23 21 9 23 13 8 11 18 24 27 35 46 64 59 49 64 55 104 91 71 87 66 51 17 3 66 79 102 99 93 99 93
87 84 58 57 66 52 28 60 12 13 3 32 37 20 17 29 28 29 -5 3 7 18 25 33 28 25 25 38 54 41 56 46 43 9 32 -18 2 82 78 73 88 83 84 85
147 147 130 85 79 73 50 53 20 31 11 43 57 41 32 38 41 41 37 40 21 28 18 25 36 31 39 38 60 37 44 57 41 58 135 19 87 64 78 76 80 87 84 84
149 131 128 113 81 36 38 15 41 41 32 34 62 62 56 51 55 52 52 47 47 33 35 35 39 35 46 12 35 12 46 105 91 120 52 59 91 100 102 97 97 81 71 72
104 101 94 123 124 100 47 9 24 26 41 67 52 58 61 49 72 78 73 71 45 58 48 47 49 40 34 41 28 46 82 97 90 96 71 100 124 128 130 109 84 75 73 83
72 128 144 102 96 85 80 68 71 60 56 101 56 76 61 48 64 84 86 75 69 44 34 73 38 23 33 28 24 33 74 99 166 187 110 105 100 117 114 73 71 75 81 97
124 138 154 153 74 110 91 91 120 119 94 58 78 126 99 60 77 68 80 84 81 50 30 71 31 35 -10 -7 45 55 71 127 111 91 126 112 123 124 114 84 81 93 102 102
153 165 185 162 144 131 125 130 164 162 121 134 94 90 162 142 113 100 81 101 118 82 88 84 37 20 17 57 54 107 125 162 153 100 96 109 118 128 120 116 120 114 107 118
223 193 173 139 148 180 183 243 265 198 214 130 110 143 154 168 165 141 116 112 102 148 140 89 61 54 57 48 77 103 129 176 189 138 116 123 138 149 156 152 139 143 139 118
201 180 160 172 221 291 280 284 191 196 148 134 131 167 134 165 165 159 135 141 183 153 158 87 58 52 58 65 76 136 163 194 217 185 170 181 187 170 170 171 172 165 143 122
182 168 125 197 269 272 146 109 117 133 105 135 160 182 166 158 190 177 235 210 177 151 112 89 72 84 95 97 83 109 164 196 213 213 210 197 210 209 201 176 167 154 138 127
228 150 228 251 257 216 228 201 184 155 134 168 194 186 205 201 245 268 225 273 194 124 80 92 79 81 82 81 74 92 149 177 199 203 203 217 210 196 192 187 168 139 131 128
297 332 241 251 262 184 160 147 144 170 220 235 233 244 223 265 248 287 290 237 181 145 129 125 87 88 84 82 91 114 149 170 181 207 216 197 207 225 219 187 138 128 122 114

GFSNW_con_3kmhel_126.txt.gz
Helicity
35 37 35 14 22 43 72 61 48 63 53 -2 29 35 24 42 53 53 40 51 33 31 42 29 45 60 54 56 60 78 100 100 131 112 128 125 57 81 99 63 116 80 85 142
46 38 36 65 65 62 51 50 32 54 20 12 36 28 26 32 12 34 13 21 43 32 24 21 45 71 78 78 80 91 81 59 62 94 99 85 32 52 45 76 83 143 145 195
39 52 50 59 42 32 31 28 48 61 44 48 46 41 20 14 16 25 37 34 29 30 24 13 53 64 90 71 116 119 120 90 52 21 53 59 23 71 42 34 67 152 149 265
46 50 29 34 25 17 30 32 51 48 40 55 65 46 16 10 5 8 15 6 11 20 17 33 59 79 81 67 88 55 56 67 60 39 43 25 10 33 15 -16 50 148 201 257
30 23 16 10 3 23 23 47 34 7 43 56 52 14 19 19 16 -1 12 3 11 13 23 41 60 67 68 57 49 29 34 35 26 50 19 -44 -4 50 21 12 39 81 100 181
32 24 15 9 8 21 42 46 22 25 56 49 29 39 16 19 22 15 -3 17 11 3 35 58 77 78 53 61 39 63 36 13 28 48 52 29 6 31 6 4 31 63 96 137
29 30 -4 9 29 33 33 42 35 60 78 35 40 24 22 30 28 48 8 -3 3 21 48 71 65 64 54 53 45 29 46 12 31 47 18 9 13 22 33 8 18 48 74 139
31 35 6 -1 32 29 28 47 37 66 93 41 25 21 35 37 26 34 29 14 23 28 8 -2 -9 12 25 40 47 27 4 2 3 -8 -18 15 -2 16 28 24 49 52 79 67
41 31 12 -18 -10 18 38 46 38 35 68 44 17 15 27 58 54 36 39 25 34 5 23 23 17 -2 -8 -16 1 7 -12 -17 -14 -21 -30 7 11 14 -2 40 58 49 41 42
32 26 1 -25 -23 -9 19 38 33 26 43 37 13 31 45 42 48 60 46 34 23 22 36 62 71 64 30 10 -15 -49 -45 -43 -44 -8 24 25 16 13 15 45 68 18 8 11
40 16 -4 -19 -13 -10 7 35 22 31 29 31 3 1 23 34 43 75 63 41 38 32 30 40 49 56 71 58 46 30 16 4 24 -1 50 80 22 27 106 69 25 23 14 15
-12 4 -15 -3 24 26 8 26 31 12 4 27 15 -1 9 26 32 51 49 59 65 74 60 56 36 33 23 33 68 30 53 68 46 73 59 5 21 27 16 32 56 38 42 42
-42 -53 -79 -16 47 43 20 19 31 13 7 14 -3 -9 -2 1 13 19 41 42 41 43 42 51 49 68 49 63 61 21 1 14 18 12 35 38 43 30 30 34 22 16 21 32
-34 -11 -3 -12 20 39 22 25 30 4 -2 -0 8 -6 2 5 3 14 18 26 17 26 36 48 58 65 49 69 45 51 31 7 -0 -17 -15 -13 2 26 42 41 30 31 23 30
-0 38 51 31 27 33 29 13 11 4 33 2 -2 19 -0 3 2 5 -0 8 17 29 32 47 60 52 51 53 39 75 92 55 53 42 40 36 11 39 43 88 80 70 79 68
88 106 104 69 76 64 26 14 3 16 21 44 14 2 7 26 26 20 7 -1 4 18 30 34 31 34 30 27 35 33 69 57 61 2 29 28 -25 108 71 86 86 64 50 52
111 108 103 106 97 91 39 22 21 27 27 45 37 22 15 45 46 30 24 34 37 46 38 48 58 52 63 44 71 18 47 32 23 18 88 17 25 79 78 77 79 78 73 83
100 123 111 118 141 126 83 36 27 23 52 52 53 47 48 34 66 70 53 52 57 52 63 70 63 68 83 16 56 5 25 53 37 54 25 32 56 90 95 91 116 89 77 81
142 129 154 147 129 97 72 50 61 64 64 50 63 61 54 50 46 62 75 81 60 77 78 80 79 68 53 36 42 43 67 112 80 100 81 124 152 142 145 142 111 94 67 71
183 198 174 125 99 98 85 79 64 78 100 180 112 134 87 77 63 38 55 69 71 55 56 86 72 88 93 -11 32 47 86 99 225 236 147 126 115 148 157 131 134 103 96 85
166 222 183 117 78 100 102 62 95 101 87 90 109 149 136 111 122 78 81 89 80 87 53 78 31 52 45 24 26 91 84 136 138 137 139 141 148 155 147 114 102 96 103 105
85 114 100 82 123 123 103 89 132 131 99 109 81 74 110 108 122 140 112 111 137 118 135 102 28 4 -13 -11 33 89 129 140 120 94 119 127 125 135 131 135 130 114 115 125
125 112 123 114 111 205 178 157 176 126 78 53 65 80 83 106 122 164 148 140 145 176 176 130 57 31 24 27 47 53 134 159 165 159 136 141 138 164 175 151 138 161 160 151
249 184 230 185 238 206 221 172 114 126 140 132 117 101 96 100 129 133 178 158 187 184 170 56 36 23 49 41 53 73 106 128 173 188 191 168 179 166 160 167 190 196 183 168
298 257 187 187 246 254 189 129 144 119 115 134 122 127 120 124 154 154 209 213 200 107 28 57 13 27 20 27 60 72 81 113 138 192 215 209 212 220 210 201 207 196 198 177
317 302 247 204 174 160 187 174 129 109 123 152 145 154 147 87 184 213 171 232 173 168 145 79 70 51 27 10 36 64 74 96 137 180 203 229 248 241 226 245 223 197 181 163
308 267 267 243 216 146 152 174 161 136 187 142 174 191 110 236 196 340 299 312 229 193 144 80 28 39 44 29 40 41 59 84 119 166 194 221 252 300 334 266 190 177 153 133

GFSNW_con_3kmhel_129.txt.gz
Helicity
31 23 16 -7 -30 -5 -10 47 2 36 51 6 36 25 31 37 54 52 59 56 36 31 29 30 35 36 43 26 36 70 87 82 87 92 78 88 73 70 41 -16 36 4 31 112
14 14 4 -42 -46 -34 14 47 32 19 12 42 30 17 19 9 10 40 38 31 30 27 32 46 56 53 52 54 65 76 57 26 27 39 76 61 29 75 41 13 14 36 71 194
2 -4 -5 -16 -24 5 4 37 36 29 35 38 16 1 -12 -5 36 39 41 38 26 25 36 40 48 41 59 77 96 99 90 59 37 -33 -10 66 21 51 32 4 29 116 173 360
-20 -34 -31 -21 -6 -10 21 21 52 47 35 21 3 -0 -15 -11 -8 32 26 12 12 51 46 55 42 36 63 62 80 47 47 36 25 -12 4 38 52 33 24 21 58 143 192 298
-28 -29 -43 -34 -0 12 21 53 60 26 37 18 -2 -16 -20 -14 -4 -13 -5 2 28 42 46 59 49 37 45 35 58 33 37 6 22 37 41 -5 -0 14 11 12 29 97 46 270
-33 -50 -31 -4 10 30 32 40 38 41 25 6 12 27 3 -6 -5 -1 -1 26 23 22 54 62 63 48 51 30 20 26 23 23 33 40 62 43 16 13 4 4 29 86 46 126
-35 -30 -14 29 68 22 28 36 40 42 37 12 14 8 -4 -15 -16 6 -23 -17 1 26 43 62 60 50 35 10 17 20 17 21 19 42 31 2 41 32 30 30 25 65 65 94
-44 -53 -43 -5 33 22 14 32 37 36 37 28 7 -3 12 14 -3 -9 -13 -14 9 11 19 14 21 25 4 -4 -2 13 -5 4 7 -15 -1 18 -5 10 8 8 18 17 64 68
-85 -104 -110 -54 -7 16 42 46 33 24 42 20 9 5 10 41 41 26 14 6 4 -23 -31 -29 -6 -6 -6 -2 -0 -9 -18 -2 -4 -16 -21 29 4 -19 -9 8 24 7 33 13
-67 -99 -121 -94 -37 -6 24 45 35 13 28 19 13 17 26 18 30 49 51 39 28 -6 10 7 27 24 -8 -7 -6 1 3 27 71 76 92 63 16 4 -2 48 58 -0 -2 1
-9 -31 -61 -56 -67 14 2 12 3 17 14 18 8 -0 9 10 16 33 33 23 35 42 73 81 73 71 60 50 63 67 102 110 144 118 143 129 45 44 108 62 14 11 33 46
8 12 -9 -5 -13 12 7 2 17 -4 -14 8 -1 -8 -8 3 15 26 23 29 28 40 33 57 62 66 54 59 68 60 87 119 94 132 103 66 80 75 72 70 92 102 98 97
32 37 43 42 35 41 28 17 18 -2 -15 -13 -16 -5 -5 -14 -2 -4 22 26 19 20 15 22 23 44 35 57 66 30 35 51 46 13 19 67 53 40 39 68 70 69 56 52
24 49 72 87 72 54 43 16 21 21 11 -3 2 -19 -0 -19 -13 -0 -4 9 3 3 3 16 28 37 24 41 31 49 38 41 36 -11 -21 -25 3 17 22 16 13 26 11 13
21 45 71 83 96 90 62 24 11 20 12 4 -3 -17 14 24 15 10 10 10 9 10 10 20 30 26 26 31 16 84 159 128 100 54 27 39 -8 65 38 54 36 5 -1 -5
79 95 109 118 117 117 77 34 19 1 30 23 4 13 11 20 43 56 52 49 49 58 52 41 39 50 45 23 35 36 78 90 119 17 -22 45 -35 -1 54 59 54 34 28 14
129 144 151 145 162 143 118 54 29 31 32 21 7 15 32 49 64 56 67 84 73 76 68 82 100 95 109 95 130 66 43 90 77 52 52 5 11 30 69 9 -7 -26 -46 -38
153 150 139 163 161 159 122 85 71 51 45 35 40 25 46 45 56 72 91 82 89 86 102 105 94 115 143 83 104 28 4 58 70 90 72 20 53 46 105 64 85 59 22 11
176 195 203 175 164 144 109 115 120 99 69 39 61 63 38 57 64 59 69 93 77 98 105 108 117 130 130 13 71 53 88 94 85 95 83 49 78 130 152 166 118 96 72 74
200 193 215 181 146 85 93 111 85 98 118 233 179 201 144 112 74 46 61 64 62 69 65 86 77 107 161 -26 -85 -33 21 68 117 219 96 88 82 150 181 184 173 138 128 111
230 232 220 133 92 120 127 106 119 116 99 84 68 82 119 105 125 99 97 104 105 92 79 89 48 -1 10 24 15 -10 80 89 90 93 84 134 145 175 180 165 146 149 148 138
178 209 183 138 167 158 132 76 117 109 81 76 57 40 63 69 82 108 113 126 139 139 136 121 62 39 65 64 46 32 15 99 102 96 77 123 131 140 172 175 169 155 144 151
152 190 216 178 165 267 296 272 182 109 98 60 61 63 62 70 80 117 114 128 133 157 172 112 73 81 83 37 38 33 31 38 85 118 127 110 112 146 178 171 170 188 178 163
191 208 240 197 171 198 278 239 154 181 172 126 129 134 108 86 84 99 82 117 163 197 164 81 54 -0 28 4 15 52 50 35 73 90 109 133 135 129 140 154 198 228 219 209
279 263 191 144 195 232 158 143 191 165 142 168 166 149 144 154 163 118 189 168 137 70 37 34 29 55 51 67 36 -0 13 26 48 83 109 134 144 160 160 170 193 228 257 256
304 282 307 202 160 146 137 143 161 140 144 182 177 168 157 108 160 210 178 258 238 157 135 136 89 57 16 3 -38 -33 -38 -3 16 46 94 116 162 180 183 224 239 253 256 237
355 308 261 204 166 135 127 155 138 154 216 163 177 157 95 222 191 256 292 287 159 127 101 77 38 -2 -46 -59 -67 -95 -115 -81 -29 25 53 104 155 211 271 291 270 254 243 230